[[{"header":{"parameterUnit":"m.s-1","parameterCategory":1,"la1":30.6,"la2":28.766,"lo1":-90.7593,"lo2":-88.6598,"dy":0.0162,"dx":0.0183,"nx":116,"ny":114,"refTime":"2023-10-05T06:00:00:Z","depth":0,"parameterNumber":2,"parameterNumberName":"U-component_of_WINDS"},"data":[0.0,0.0,0.0,0.0,0.0,0.0,0.0,0.0,0.0,0.0,0.0,0.0,0.0,0.0,0.0,0.0,0.0,0.0,0.0,0.0,0.0,0.0,0.0,0.0,0.0,0.0,0.0,0.0,0.0,0.0,0.0,0.0,0.0,0.0,0.0,0.0,0.0,0.0,0.0,0.0,0.0,0.0,0.0,0.0,0.0,0.0,0.0,0.0,0.0,0.0,0.0,0.0,0.0,0.0,0.0,0.0,0.0,0.0,0.0,0.0,0.0,0.0,0.0,0.0,0.0,0.0,0.0,0.0,0.0,0.0,0.0,0.0,0.0,0.0,0.0,0.0,0.0,0.0,0.0,0.0,0.0,0.0,0.0,0.0,0.0,0.0,0.0,0.0,0.0,0.0,0.0,0.0,0.0,0.0,0.0,0.0,0.0,0.0,0.0,0.0,0.0,0.0,0.0,0.0,0.0,0.0,0.0,0.0,0.0,0.0,0.0,0.0,0.0,0.0,0.0,0.0,0.0,0.0,0.0,0.0,0.0,0.0,0.0,0.0,0.0,0.0,0.0,0.0,0.0,0.0,0.0,0.0,0.0,0.0,0.0,0.0,0.0,0.0,0.0,0.0,0.0,0.0,0.0,0.0,0.0,0.0,0.0,0.0,0.0,0.0,0.0,0.0,0.0,0.0,0.0,0.0,0.0,0.0,0.0,0.0,0.0,0.0,0.0,0.0,0.0,0.0,0.0,0.0,0.0,0.0,0.0,0.0,0.0,0.0,0.0,0.0,0.0,0.0,0.0,0.0,0.0,0.0,0.0,0.0,0.0,0.0,0.0,0.0,0.0,0.0,0.0,0.0,0.0,0.0,0.0,0.0,0.0,0.0,0.0,0.0,0.0,0.0,0.0,0.0,0.0,0.0,0.0,0.0,0.0,0.0,0.0,0.0,0.0,0.0,0.0,0.0,0.0,0.0,0.0,0.0,0.0,0.0,0.0,0.0,0.0,0.0,0.0,0.0,0.0,0.0,0.0,0.0,0.0,0.0,0.0,0.0,0.0,0.0,0.0,0.0,0.0,0.0,0.0,0.0,0.0,0.0,0.0,0.0,0.0,0.0,0.0,0.0,0.0,0.0,0.0,0.0,0.0,0.0,0.0,0.0,0.0,0.0,0.0,0.0,0.0,0.0,0.0,0.0,0.0,0.0,0.0,0.0,0.0,0.0,0.0,0.0,0.0,0.0,0.0,0.0,0.0,0.0,0.0,0.0,0.0,0.0,0.0,0.0,0.0,0.0,0.0,0.0,0.0,0.0,0.0,0.0,0.0,0.0,0.0,0.0,0.0,0.0,0.0,0.0,0.0,0.0,0.0,0.0,0.0,0.0,0.0,0.0,0.0,0.0,0.0,0.0,0.0,0.0,0.0,0.0,0.0,0.0,0.0,0.0,0.0,0.0,0.0,0.0,0.0,0.0,0.0,0.0,0.0,0.0,0.0,0.0,0.0,0.0,0.0,0.0,0.0,0.0,0.0,0.0,0.0,0.0,0.0,0.0,0.0,0.0,0.0,0.0,0.0,0.0,0.0,0.0,0.0,0.0,0.0,0.0,0.0,0.0,0.0,0.0,0.0,0.0,0.0,0.0,0.0,0.0,0.0,0.0,0.0,0.0,0.0,0.0,0.0,0.0,0.0,0.0,0.0,0.0,0.0,0.0,0.0,0.0,0.0,0.0,0.0,0.0,0.0,0.0,0.0,0.0,0.0,0.0,0.0,0.0,0.0,0.0,0.0,0.0,0.0,0.0,0.0,0.0,0.0,0.0,0.0,0.0,0.0,0.0,0.0,0.0,0.0,0.0,0.0,0.0,0.0,0.0,0.0,0.0,0.0,0.0,0.0,0.0,0.0,0.0,0.0,0.0,0.0,0.0,0.0,0.0,0.0,0.0,0.0,0.0,0.0,0.0,0.0,0.0,0.0,0.0,0.0,0.0,0.0,0.0,0.0,0.0,0.0,0.0,0.0,0.0,0.0,0.0,0.0,0.0,0.0,0.0,0.0,0.0,0.0,0.0,0.0,0.0,0.0,0.0,0.0,0.0,0.0,0.0,0.0,0.0,0.0,0.0,0.0,0.0,0.0,0.0,0.0,0.0,0.0,0.0,0.0,0.0,0.0,0.0,0.0,0.0,0.0,0.0,0.0,0.0,0.0,0.0,0.0,0.0,0.0,0.0,0.0,0.0,0.0,0.0,0.0,0.0,0.0,0.0,0.0,0.0,0.0,0.0,0.0,0.0,0.0,0.0,0.0,0.0,0.0,0.0,0.0,0.0,0.0,0.0,0.0,0.0,0.0,0.0,0.0,0.0,0.0,0.0,0.0,0.0,0.0,0.0,0.0,0.0,0.0,0.0,0.0,0.0,0.0,0.0,0.0,0.0,0.0,0.0,0.0,0.0,0.0,0.0,0.0,0.0,0.0,0.0,0.0,0.0,0.0,0.0,0.0,0.0,0.0,0.0,0.0,0.0,0.0,0.0,0.0,0.0,0.0,0.0,0.0,0.0,0.0,0.0,0.0,0.0,0.0,0.0,0.0,0.0,0.0,0.0,0.0,0.0,0.0,0.0,0.0,0.0,0.0,0.0,0.0,0.0,0.0,0.0,0.0,0.0,0.0,0.0,0.0,0.0,0.0,0.0,0.0,0.0,0.0,0.0,0.0,0.0,0.0,0.0,0.0,0.0,0.0,0.0,0.0,0.0,0.0,0.0,0.0,0.0,0.0,0.0,0.0,0.0,0.0,0.0,0.0,0.0,0.0,0.0,0.0,0.0,0.0,0.0,0.0,0.0,0.0,0.0,0.0,0.0,0.0,0.0,0.0,0.0,0.0,0.0,0.0,0.0,0.0,0.0,0.0,0.0,0.0,0.0,0.0,0.0,0.0,0.0,0.0,0.0,0.0,0.0,0.0,0.0,0.0,0.0,0.0,0.0,0.0,0.0,0.0,0.0,0.0,0.0,0.0,0.0,0.0,0.0,0.0,0.0,0.0,0.0,0.0,0.0,0.0,0.0,0.0,0.0,0.0,0.0,0.0,0.0,0.0,0.0,0.0,0.0,0.0,0.0,0.0,0.0,0.0,0.0,0.0,0.0,0.0,0.0,0.0,0.0,0.0,0.0,0.0,0.0,0.0,0.0,0.0,0.0,0.0,0.0,0.0,0.0,0.0,0.0,0.0,0.0,0.0,0.0,0.0,0.0,0.0,0.0,0.0,0.0,0.0,0.0,0.0,0.0,0.0,0.0,0.0,0.0,0.0,0.0,0.0,0.0,0.0,0.0,0.0,0.0,0.0,0.0,0.0,0.0,0.0,0.0,0.0,0.0,0.0,0.0,0.0,0.0,0.0,0.0,0.0,0.0,0.0,0.0,0.0,0.0,0.0,0.0,0.0,0.0,0.0,0.0,0.0,0.0,0.0,0.0,0.0,0.0,0.0,0.0,0.0,0.0,0.0,0.0,0.0,0.0,0.0,0.0,0.0,0.0,0.0,0.0,0.0,0.0,0.0,0.0,0.0,0.0,0.0,0.0,0.0,0.0,0.0,0.0,0.0,0.0,0.0,0.0,0.0,0.0,0.0,0.0,0.0,0.0,0.0,0.0,0.0,0.0,0.0,0.0,0.0,0.0,0.0,0.0,0.0,0.0,0.0,0.0,0.0,0.0,0.0,0.0,0.0,0.0,0.0,0.0,0.0,0.0,0.0,0.0,0.0,0.0,0.0,0.0,0.0,0.0,0.0,0.0,0.0,0.0,0.0,0.0,0.0,0.0,0.0,0.0,0.0,0.0,0.0,0.0,0.0,0.0,0.0,0.0,0.0,0.0,0.0,0.0,0.0,0.0,0.0,0.0,0.0,0.0,0.0,0.0,0.0,0.0,0.0,0.0,0.0,0.0,0.0,0.0,0.0,0.0,0.0,0.0,0.0,0.0,0.0,0.0,0.0,0.0,0.0,0.0,0.0,0.0,0.0,0.0,0.0,0.0,0.0,0.0,0.0,0.0,0.0,0.0,0.0,0.0,0.0,0.0,0.0,0.0,0.0,0.0,0.0,0.0,0.0,0.0,0.0,0.0,0.0,0.0,0.0,0.0,0.0,0.0,0.0,0.0,0.0,0.0,0.0,0.0,0.0,0.0,0.0,0.0,0.0,0.0,0.0,0.0,0.0,0.0,0.0,0.0,0.0,0.0,0.0,0.0,0.0,0.0,0.0,0.0,0.0,0.0,0.0,0.0,0.0,0.0,0.0,0.0,0.0,0.0,0.0,0.0,0.0,0.0,0.0,0.0,0.0,0.0,0.0,0.0,0.0,0.0,0.0,0.0,0.0,0.0,0.0,0.0,0.0,0.0,0.0,0.0,0.0,0.0,0.0,0.0,0.0,0.0,0.0,0.0,0.0,0.0,0.0,0.0,0.0,0.0,0.0,0.0,0.0,0.0,0.0,0.0,0.0,0.0,0.0,0.0,0.0,0.0,0.0,0.0,0.0,0.0,0.0,0.0,0.0,0.0,0.0,0.0,0.0,0.0,0.0,0.0,0.0,0.0,0.0,0.0,0.0,0.0,0.0,0.0,0.0,0.0,0.0,0.0,0.0,0.0,0.0,0.0,0.0,0.0,0.0,0.0,0.0,0.0,0.0,0.0,0.0,0.0,0.0,0.0,0.0,0.0,0.0,0.0,0.0,0.0,0.0,0.0,0.0,0.0,0.0,0.0,0.0,0.0,0.0,0.0,0.0,0.0,0.0,0.0,0.0,0.0,0.0,0.0,0.0,0.0,0.0,0.0,0.0,0.0,0.0,0.0,0.0,0.0,0.0,0.0,0.0,0.0,0.0,0.0,0.0,0.0,0.0,0.0,0.0,0.0,0.0,0.0,0.0,0.0,0.0,0.0,0.0,0.0,0.0,0.0,0.0,0.0,0.0,0.0,0.0,0.0,0.0,0.0,0.0,0.0,0.0,0.0,0.0,0.0,0.0,0.0,0.0,0.0,0.0,0.0,0.0,0.0,0.0,0.0,0.0,0.0,0.0,0.0,0.0,0.0,0.0,0.0,0.0,0.0,0.0,0.0,0.0,0.0,0.0,0.0,0.0,0.0,0.0,0.0,0.0,0.0,0.0,0.0,0.0,0.0,0.0,0.0,0.0,0.0,0.0,0.0,0.0,0.0,0.0,0.0,0.0,0.0,0.0,0.0,0.0,0.0,0.0,0.0,0.0,0.0,0.0,0.0,0.0,0.0,0.0,0.0,0.0,0.0,0.0,0.0,0.0,0.0,0.0,0.0,0.0,0.0,0.0,0.0,0.0,0.0,0.0,0.0,0.0,0.0,0.0,0.0,0.0,0.0,0.0,0.0,0.0,0.0,0.0,0.0,0.0,0.0,0.0,0.0,0.0,0.0,0.0,0.0,0.0,0.0,0.0,0.0,0.0,0.0,0.0,0.0,0.0,0.0,0.0,0.0,0.0,0.0,0.0,0.0,0.0,0.0,0.0,0.0,0.0,0.0,0.0,0.0,0.0,0.0,0.0,0.0,0.0,0.0,0.0,0.0,0.0,0.0,0.0,0.0,0.0,0.0,0.0,0.0,0.0,0.0,0.0,0.0,0.0,0.0,0.0,0.0,0.0,0.0,0.0,0.0,0.0,0.0,0.0,0.0,0.0,0.0,0.0,0.0,0.0,0.0,0.0,0.0,0.0,0.0,0.0,0.0,0.0,0.0,0.0,0.0,0.0,0.0,0.0,0.0,0.0,0.0,0.0,0.0,0.0,0.0,0.0,0.0,0.0,0.0,0.0,0.0,0.0,0.0,0.0,0.0,0.0,0.0,0.0,0.0,0.0,0.0,0.0,0.0,0.0,0.0,0.0,0.0,0.0,0.0,0.0,0.0,0.0,0.0,0.0,0.0,0.0,0.0,0.0,0.0,0.0,0.0,0.0,0.0,0.0,0.0,0.0,0.0,0.0,0.0,0.0,0.0,0.0,0.0,0.0,0.0,0.0,0.0,0.0,0.0,0.0,0.0,0.0,0.0,0.0,0.0,0.0,0.0,0.0,0.0,0.0,0.0,0.0,0.0,0.0,0.0,0.0,0.0,-3.8646,0.0,0.0,0.0,0.0,0.0,0.0,0.0,0.0,0.0,0.0,0.0,0.0,0.0,0.0,0.0,0.0,0.0,0.0,0.0,0.0,0.0,0.0,0.0,0.0,0.0,0.0,0.0,0.0,0.0,0.0,0.0,0.0,0.0,0.0,0.0,0.0,0.0,0.0,-2.7029,-2.7679,-2.818,-2.8583,-2.9663,-3.0629,-3.1539,0.0,0.0,0.0,0.0,0.0,0.0,0.0,0.0,0.0,0.0,0.0,0.0,0.0,0.0,0.0,0.0,0.0,0.0,0.0,0.0,0.0,0.0,0.0,0.0,0.0,0.0,0.0,0.0,0.0,0.0,0.0,0.0,0.0,0.0,0.0,0.0,0.0,0.0,0.0,0.0,0.0,0.0,0.0,0.0,0.0,0.0,0.0,0.0,0.0,0.0,0.0,0.0,0.0,0.0,0.0,0.0,0.0,0.0,0.0,0.0,0.0,0.0,0.0,0.0,0.0,0.0,0.0,0.0,0.0,0.0,0.0,-3.7924,0.0,0.0,0.0,0.0,0.0,0.0,0.0,0.0,0.0,0.0,0.0,0.0,0.0,0.0,0.0,0.0,0.0,0.0,0.0,0.0,0.0,0.0,0.0,-2.9072,-3.0006,-3.1696,-3.1714,-3.1492,0.0,0.0,0.0,0.0,0.0,0.0,-2.6227,-2.6317,-2.6372,-2.6365,-2.6715,-2.713,-2.7631,-2.8077,-2.8767,-2.981,-3.2189,0.0,0.0,0.0,0.0,0.0,0.0,0.0,0.0,0.0,0.0,0.0,0.0,0.0,0.0,0.0,0.0,0.0,0.0,0.0,0.0,0.0,0.0,0.0,0.0,0.0,0.0,0.0,0.0,0.0,0.0,0.0,0.0,0.0,0.0,0.0,0.0,0.0,0.0,0.0,0.0,0.0,0.0,0.0,0.0,0.0,0.0,0.0,0.0,0.0,0.0,0.0,0.0,0.0,0.0,0.0,0.0,0.0,0.0,0.0,0.0,0.0,0.0,0.0,-3.1271,-3.1458,-3.1559,-3.1252,-3.1028,-3.1009,-3.3656,-3.5463,-3.6609,0.0,0.0,0.0,0.0,0.0,0.0,0.0,0.0,0.0,0.0,0.0,0.0,0.0,0.0,0.0,0.0,0.0,0.0,0.0,0.0,-2.5883,-2.736,-2.7945,-2.9245,-3.1845,-3.1424,-3.1496,-3.2619,0.0,0.0,0.0,0.0,-2.7806,-2.7054,-2.7072,-2.7083,-2.7069,-2.6035,-2.5314,-2.4926,-2.5484,-2.5896,-2.624,-3.0131,-3.2587,-3.3719,0.0,0.0,0.0,0.0,0.0,0.0,0.0,0.0,0.0,0.0,0.0,0.0,0.0,0.0,0.0,0.0,0.0,0.0,0.0,0.0,0.0,0.0,0.0,0.0,0.0,0.0,0.0,0.0,0.0,0.0,0.0,0.0,0.0,0.0,0.0,0.0,0.0,0.0,0.0,0.0,0.0,-3.1689,-3.2197,0.0,0.0,0.0,0.0,0.0,0.0,0.0,0.0,0.0,0.0,0.0,0.0,0.0,-3.0205,-3.052,-3.0652,-3.0482,-3.0097,-3.1479,-3.1493,-3.0269,-3.0595,-3.0337,-2.9682,-3.0363,0.0,-3.4033,-3.364,0.0,0.0,0.0,0.0,0.0,0.0,0.0,0.0,0.0,0.0,0.0,0.0,0.0,0.0,0.0,0.0,0.0,0.0,0.0,0.0,0.0,-2.6616,-2.775,-2.9786,-2.9647,-2.987,-3.0925,-3.0233,0.0,0.0,-2.816,-2.7304,-2.6166,-2.5719,-2.5038,-2.4123,-2.3565,-2.3021,-2.2508,-2.2754,-2.3418,-2.4428,-2.6558,-2.9079,-3.1742,-3.1386,0.0,0.0,0.0,0.0,0.0,0.0,0.0,0.0,0.0,0.0,0.0,0.0,0.0,0.0,0.0,0.0,0.0,0.0,0.0,0.0,0.0,0.0,0.0,0.0,0.0,0.0,0.0,0.0,0.0,0.0,0.0,0.0,0.0,0.0,0.0,0.0,0.0,0.0,0.0,-3.0978,-3.1884,-3.1457,-3.2401,-3.2356,0.0,0.0,0.0,0.0,0.0,0.0,0.0,0.0,0.0,-2.6874,-2.6449,-2.6196,-2.5984,-2.6675,-2.7033,-2.7043,-2.8387,-2.8747,-2.8305,-2.8302,-2.8063,-2.7689,-2.7569,-2.8541,-3.0305,-3.1203,-3.2153,-3.3039,0.0,0.0,0.0,0.0,-3.2557,-3.1474,0.0,0.0,0.0,0.0,0.0,0.0,0.0,0.0,0.0,0.0,0.0,0.0,-2.3894,-2.4398,-2.5447,-2.7397,-2.7385,-2.7754,-2.884,-2.8716,-2.8372,-2.7857,-2.7287,-2.6428,-2.5297,-2.382,-2.2299,-2.0737,-2.0546,-2.0301,-1.9964,-2.0167,-2.0921,-2.2177,-2.2963,-2.5569,-2.9383,-2.9825,-3.0271,-3.0664,0.0,0.0,0.0,0.0,0.0,0.0,0.0,0.0,0.0,0.0,0.0,0.0,0.0,0.0,0.0,0.0,0.0,0.0,0.0,0.0,0.0,0.0,0.0,0.0,0.0,0.0,0.0,0.0,0.0,0.0,0.0,0.0,0.0,0.0,0.0,0.0,0.0,-3.0336,-3.0823,-2.9872,-3.1211,-3.1108,0.0,0.0,0.0,0.0,0.0,0.0,-2.4589,-2.3757,-2.3295,-2.3289,-2.322,-2.2979,-2.2589,-2.3366,-2.3998,-2.4333,-2.5107,-2.5599,-2.5778,-2.5581,-2.5374,-2.5167,-2.5023,-2.5486,-2.644,-2.867,-3.0071,-3.0681,-3.0248,-3.0169,-3.0326,-3.0694,-2.9865,-2.8715,0.0,0.0,0.0,0.0,0.0,0.0,0.0,0.0,0.0,0.0,0.0,-2.0749,-2.0732,-2.0757,-2.2089,-2.5369,-2.4922,-2.5368,-2.7457,-2.6872,-2.6484,-2.6576,-2.5905,-2.5411,-2.5204,-2.1799,-1.943,-1.8178,-1.7471,-1.7123,-1.7134,-1.7879,-1.8306,-1.8525,-1.9953,-2.3219,-2.7695,-2.8598,-2.896,-2.9021,-3.0019,0.0,0.0,0.0,0.0,0.0,0.0,0.0,0.0,0.0,0.0,0.0,0.0,0.0,0.0,0.0,0.0,0.0,0.0,0.0,0.0,0.0,0.0,0.0,0.0,0.0,0.0,0.0,0.0,0.0,0.0,0.0,0.0,0.0,0.0,0.0,0.0,0.0,0.0,-2.7466,-2.8505,0.0,0.0,0.0,0.0,-2.211,-2.2089,-2.2171,-2.2072,-2.1469,-2.1635,-2.2736,-2.249,-2.2534,-2.29,-2.2936,-2.2989,-2.3006,-2.3042,-2.2867,-2.2565,-2.2892,-2.2649,-2.1971,-2.2708,-2.286,-2.2792,-2.5704,-2.7912,-2.9443,-2.8903,-2.8993,-2.9387,-2.8948,-2.8017,-2.6908,0.0,0.0,0.0,0.0,0.0,0.0,0.0,0.0,-2.0855,-1.9446,-1.8747,-1.8197,-1.7645,-1.8417,-1.9621,-2.129,-2.2098,-2.3018,-2.4273,-2.4528,-2.4798,-2.52,-2.4475,-2.3052,-2.0944,-1.8411,-1.6621,-1.5623,-1.535,-1.5083,-1.4769,-1.5082,-1.5324,-1.5595,-1.6465,-1.8533,-2.1522,-2.462,-2.6515,-2.757,-2.8897,-2.8865,0.0,0.0,0.0,0.0,0.0,0.0,0.0,0.0,0.0,0.0,0.0,0.0,0.0,0.0,0.0,0.0,0.0,0.0,0.0,0.0,0.0,0.0,0.0,0.0,0.0,0.0,0.0,0.0,0.0,0.0,0.0,0.0,0.0,0.0,0.0,0.0,0.0,-2.4725,-2.5816,0.0,-2.3311,-2.3343,-2.2454,-2.0108,-2.0008,-1.9876,-1.9415,-1.9182,-1.9365,-1.9968,-1.9874,-1.9928,-2.0092,-2.0727,-2.1091,-2.1137,-2.1791,-2.1951,-2.1603,-2.1727,-2.1644,-2.1412,-2.1669,-2.1711,-2.1678,-2.2713,-2.4339,-2.6045,-2.512,-2.5534,-2.6459,-2.5192,-2.4477,-2.3992,0.0,0.0,0.0,0.0,0.0,0.0,0.0,-2.1699,-1.9913,-1.8027,-1.7065,-1.6175,-1.5098,-1.5807,-1.6869,-1.8053,-1.908,-2.0133,-2.1152,-2.1845,-2.2455,-2.3014,-2.1901,-1.9586,-1.6087,-1.4452,-1.3147,-1.2077,-1.2077,-1.1902,-1.1633,-1.1915,-1.2205,-1.2484,-1.3408,-1.4692,-1.641,-1.9855,-2.2809,-2.5377,-2.7132,-2.7675,-2.7469,0.0,0.0,0.0,0.0,0.0,0.0,0.0,0.0,0.0,0.0,0.0,0.0,0.0,0.0,0.0,0.0,0.0,0.0,0.0,0.0,0.0,0.0,0.0,0.0,0.0,0.0,0.0,0.0,0.0,0.0,0.0,0.0,0.0,0.0,0.0,-2.2806,-2.2318,-2.2985,-2.2617,-2.0435,-1.9916,-1.9219,-1.8036,-1.787,-1.7848,-1.8016,-1.7896,-1.7936,-1.8036,-1.813,-1.809,-1.7889,-1.8717,-1.9069,-1.8961,-1.9816,-2.0097,-1.9872,-1.9938,-1.9992,-1.9992,-1.9992,-1.9923,-1.9856,-1.9748,-2.0758,-2.2431,-2.2568,-2.3052,-2.3539,-2.2846,-2.236,-2.183,0.0,0.0,0.0,0.0,0.0,0.0,-2.2761,-2.1366,-1.9522,-1.6716,-1.5647,-1.4574,-1.3075,-1.2909,-1.3748,-1.5769,-1.5998,-1.6704,-1.8282,-1.8886,-1.9417,-1.9951,-1.8036,-1.511,-1.1113,-1.0113,-0.8986,-0.7623,-0.7618,-0.7613,-0.7644,-0.8479,-0.897,-0.9194,-1.0833,-1.1978,-1.282,-1.4569,-1.7926,-2.2288,-2.4682,-2.5848,-2.6261,0.0,0.0,0.0,0.0,0.0,0.0,0.0,0.0,0.0,0.0,0.0,0.0,0.0,0.0,0.0,0.0,0.0,0.0,0.0,0.0,0.0,0.0,0.0,0.0,0.0,0.0,0.0,0.0,0.0,0.0,0.0,0.0,0.0,-2.1075,-2.0939,-2.0425,-2.0184,-1.9913,-1.8921,-1.6883,-1.5863,-1.5441,-1.5855,-1.5588,-1.616,-1.7882,-1.7716,-1.7428,-1.7199,-1.746,-1.7281,-1.6714,-1.7038,-1.7038,-1.6707,-1.7058,-1.7199,-1.7199,-1.7435,-1.7569,-1.7569,-1.7569,-1.7402,-1.7166,-1.682,-1.747,-1.8863,-2.1462,-2.1747,-2.0937,-2.204,-2.1691,-2.044,0.0,0.0,0.0,0.0,0.0,0.0,-2.2497,-2.0385,-1.8043,-1.556,-1.3227,-1.1592,-1.0966,-1.1062,-1.1575,-1.2541,-1.3847,-1.5012,-1.5848,-1.6159,-1.5998,-1.5303,-1.3066,-1.1021,-0.9238,-0.7452,-0.6339,-0.5964,-0.5966,-0.5969,-0.5969,-0.621,-0.6679,-0.732,-0.781,-0.9046,-1.0868,-1.2328,-1.4422,-1.7116,-2.0764,-2.3328,-2.4936,0.0,0.0,0.0,0.0,0.0,0.0,0.0,0.0,0.0,0.0,0.0,0.0,0.0,0.0,0.0,0.0,0.0,0.0,0.0,0.0,0.0,0.0,0.0,0.0,0.0,0.0,0.0,0.0,0.0,0.0,0.0,0.0,-1.6974,-1.7721,-1.6219,-1.4953,-1.4883,-1.5012,-1.4803,-1.4085,-1.4647,-1.507,-1.5074,-1.5889,-1.6566,-1.7016,-1.6994,-1.6907,-1.6834,-1.6901,-1.6867,-1.6707,-1.6787,-1.6787,-1.6707,-1.7058,-1.7085,-1.684,-1.7186,-1.732,-1.732,-1.732,-1.7152,-1.682,-1.674,-1.6643,-1.6772,-1.8417,-1.9538,-2.0187,-1.9341,-1.8268,-1.7139,0.0,0.0,0.0,0.0,0.0,0.0,-2.2726,-2.0356,-1.782,-1.5487,-1.2971,-1.1005,-1.0049,-1.0067,-1.0442,-1.1084,-1.2357,-1.3351,-1.3912,-1.3629,-1.2549,-1.0586,-0.8971,-0.7489,-0.6099,-0.4866,-0.4194,-0.4128,-0.4122,-0.4117,-0.4117,-0.4117,-0.4424,-0.4987,-0.5358,-0.6569,-0.8394,-0.9603,-1.1384,-1.361,-1.6087,-1.93,-2.2626,-2.2941,-2.3621,-2.4659,-2.5893,-2.658,-2.7178,-2.9268,0.0,0.0,0.0,0.0,0.0,0.0,0.0,0.0,0.0,0.0,0.0,0.0,0.0,0.0,0.0,0.0,0.0,0.0,0.0,0.0,0.0,0.0,0.0,0.0,-1.4855,-1.4025,-1.4182,-1.3583,-1.3085,-1.2898,-1.2646,-1.2549,-1.2815,-1.2997,-1.3515,-1.4609,-1.5368,-1.5984,-1.6526,-1.664,-1.6593,-1.6346,-1.658,-1.6587,-1.6339,-1.658,-1.658,-1.6346,-1.6938,-1.7045,-1.6714,-1.7065,-1.7266,0.0,-1.7253,-1.7032,-1.6707,-1.6707,-1.6359,0.0,0.0,0.0,0.0,0.0,-1.6433,-1.5784,0.0,0.0,0.0,0.0,0.0,0.0,-2.3037,-2.081,-1.8371,-1.6081,-1.3877,-1.1866,-1.0085,-0.9826,-1.0057,-1.0769,-1.1398,-1.1874,-1.2115,-1.1114,-0.9227,-0.6339,-0.5631,-0.4423,-0.2577,-0.2368,-0.2213,-0.2078,-0.1971,-0.1938,-0.1913,-0.1913,-0.2098,-0.2444,-0.3189,-0.4329,-0.5728,-0.6911,-0.883,-1.1107,-1.1502,-1.4802,-1.9507,-2.0058,-2.0772,-2.169,-2.3288,-2.3874,-2.4166,-2.6405,0.0,0.0,0.0,0.0,0.0,0.0,0.0,0.0,0.0,0.0,0.0,0.0,0.0,0.0,0.0,0.0,0.0,0.0,0.0,0.0,0.0,0.0,0.0,0.0,-1.3063,-1.0737,-1.0866,-1.2156,-1.2989,-1.2548,-1.1746,-1.1478,-1.2238,-1.1433,-1.1835,-1.4313,-1.4616,-1.5121,-1.6184,0.0,0.0,0.0,0.0,-1.6353,-1.5832,-1.638,-1.6393,-1.5885,-1.6707,-1.7012,-1.6714,-1.7032,-1.7293,-1.7468,-1.73,-1.7012,-1.666,-1.6693,-1.6359,-1.592,-1.7037,-1.6803,-1.5784,-1.5784,-1.5784,-1.5784,0.0,0.0,0.0,0.0,0.0,0.0,-2.2279,-2.0443,-1.841,-1.6449,-1.3906,-1.1943,-1.1071,-1.0571,-1.0313,-1.0427,-1.116,-1.0947,-0.9311,-0.8064,-0.6493,-0.4572,-0.3006,-0.198,-0.1574,-0.0295,0.0424,0.056,0.1225,0.1583,0.1683,0.1683,0.0905,-0.0535,-0.0687,-0.1784,-0.3635,-0.5828,-0.7162,-0.7983,-1.002,-1.2717,-1.5725,-1.6982,-1.7767,-1.8519,-2.0857,-2.172,-2.2188,-2.5311,-2.6124,-2.6323,-2.8935,-2.9671,0.0,0.0,0.0,0.0,0.0,0.0,0.0,0.0,0.0,0.0,0.0,0.0,0.0,0.0,0.0,0.0,0.0,0.0,0.0,-1.2102,-1.1194,-1.0365,-0.946,-0.9505,-0.9626,-0.9563,-1.0143,-1.0616,-1.0641,-1.2329,-1.3556,-1.3994,-1.4963,-1.563,-1.5871,-1.5965,0.0,-1.5784,-1.5891,-1.5945,-1.5784,-1.6179,-1.6299,-1.6192,0.0,0.0,-1.6707,-1.6767,-1.682,-1.6887,-1.7125,-1.6898,-1.6373,-1.6607,-1.6359,-1.5825,-1.6062,-1.6015,-1.5784,-1.5784,-1.5784,-1.5784,0.0,0.0,0.0,0.0,0.0,0.0,-2.2315,-2.0897,-1.928,-1.7657,-1.566,-1.3897,-1.2563,-1.2128,-1.1696,-1.1069,-1.0693,-0.9718,-0.7884,-0.6177,-0.4463,-0.2722,-0.135,-0.0436,0.0,0.0793,0.1477,0.1999,0.2389,0.2677,0.2785,0.2785,0.2345,0.157,0.1668,0.0524,-0.1538,-0.2763,-0.3978,-0.5228,-0.6567,-0.8249,-1.026,-1.2939,-1.4191,-1.4832,-1.7438,-1.8385,-1.887,-2.1795,-2.3358,-2.4324,-2.596,-2.7406,-2.8499,0.0,0.0,0.0,0.0,0.0,0.0,0.0,0.0,0.0,0.0,0.0,0.0,0.0,0.0,-1.6255,0.0,0.0,-1.1973,-1.1039,-1.0275,-0.9607,-0.8982,-0.874,-0.8598,-0.8598,-0.9034,-0.9784,-1.0938,-1.2255,-1.3533,-1.4765,-1.5439,-1.5784,-1.5784,-1.5784,-1.5784,-1.5784,-1.5784,-1.5784,-1.5784,-1.6126,-1.6199,-1.6052,-1.6493,-1.6627,-1.6486,-1.6486,-1.6567,-1.6707,-1.6757,-1.6596,-1.6321,-1.6266,-1.6044,-1.5784,-1.5784,-1.5784,-1.5784,-1.5784,-1.5784,-1.5784,0.0,0.0,0.0,0.0,0.0,0.0,0.0,-2.1643,-2.0421,-1.9111,-1.7872,-1.6377,-1.4373,-1.4059,-1.346,-1.2083,-1.0096,-0.8323,-0.6927,-0.4719,-0.274,-0.1125,-0.0378,0.0442,0.1328,0.1482,0.2031,0.3056,0.3376,0.3612,0.3767,0.3968,0.3901,0.3657,0.3863,0.2734,0.063,0.042,-0.082,-0.2687,-0.3109,-0.4119,-0.578,-0.9229,-1.1008,-1.1994,-1.4477,-1.5463,-1.5986,-1.8271,-2.0277,-2.1913,-2.2659,-2.4703,-2.6858,-2.6846,-2.7284,0.0,0.0,0.0,0.0,0.0,0.0,0.0,0.0,-1.9237,-1.7371,-1.6665,-1.5261,-1.3923,-1.2856,-1.1535,-1.0598,-1.068,-0.9699,-0.8885,-0.8885,-0.8911,-0.8941,-0.8941,-0.8756,-0.9473,-1.1673,-1.2139,-1.3253,-1.5635,-1.5784,-1.5784,-1.5784,-1.5784,-1.5784,-1.5784,-1.5784,-1.5784,-1.5784,-1.6126,-1.6152,-1.5919,-1.6393,-1.65,-1.6321,-1.6213,-1.6313,-1.652,-1.6286,-1.6219,-1.6253,-1.5952,-1.5784,-1.5784,-1.5784,-1.5784,-1.5784,-1.5784,-1.5784,-1.5771,0.0,0.0,0.0,0.0,0.0,0.0,0.0,0.0,-2.1483,-2.028,-1.9469,-1.8361,-1.6692,-1.6086,-1.505,-1.3101,-0.9362,-0.6728,-0.5923,-0.3187,-0.1166,-0.0181,-0.0035,0.0494,0.1549,0.2099,0.3016,0.4291,0.5743,0.6567,0.6823,0.7727,0.7264,0.5667,0.5828,0.48,0.287,0.1986,0.0818,-0.0477,-0.1576,-0.335,-0.556,-0.7158,-0.9322,-1.1733,-1.3501,-1.4684,-1.5655,-1.6994,-1.7458,-1.8069,-2.1471,-2.2824,-2.3555,-2.5856,-2.6249,-2.5893,-2.5797,-2.4191,-2.2097,-2.0273,-1.9132,-1.8268,0.0,-1.6785,-1.5767,-1.4892,-1.349,-1.2277,-1.1599,-1.0347,-0.9363,-0.9179,-0.8992,-0.8885,-0.8885,-0.9915,-1.0633,-1.0633,-1.0141,-1.0364,-1.1755,-1.2963,-1.4268,-1.5683,-1.5784,-1.5784,-1.5784,-1.5784,-1.5784,-1.5784,-1.5784,-1.5784,-1.5784,-1.6126,-1.6301,-1.6226,-1.6293,-1.6355,-1.6315,-1.5999,-1.5844,-1.5878,-1.5892,-1.6025,-1.6253,-1.5952,-1.5784,-1.5784,-1.5784,-1.5784,-1.5784,-1.5784,-1.5784,-1.5792,0.0,0.0,0.0,0.0,0.0,0.0,0.0,0.0,-2.1999,-2.1406,-2.0922,-2.0102,-1.8625,-1.7149,-1.5624,-1.3937,-1.0649,-0.7761,-0.5601,-0.3377,-0.1477,-0.0074,0.0,0.0757,0.2324,0.2596,0.3862,0.6136,0.6812,0.7627,0.8604,0.9008,0.8923,0.8429,0.7873,0.6801,0.5332,0.4336,0.3232,0.211,0.0822,-0.115,-0.3508,-0.5477,-0.8756,-1.2484,-1.3814,-1.4578,0.0,-1.6424,-1.7652,-1.8845,-1.9796,-2.1067,-2.2409,-2.3782,-2.349,-2.2503,-2.1394,-2.013,-1.869,-1.6919,-1.5949,-1.5447,-1.512,-1.4097,-1.3158,-1.3154,-1.1834,-1.061,-1.0245,-1.033,-1.0345,0.0,-1.0824,-1.1354,-1.0973,-1.1592,-1.1992,-1.1704,-1.166,-1.2074,-1.3177,-1.3803,-1.4582,-1.5696,-1.5784,-1.5784,-1.5784,-1.5784,-1.5784,-1.5784,-1.5784,-1.5784,-1.5784,-1.5952,-1.6012,-1.6012,-1.6012,-1.6012,-1.6012,-1.5838,-1.5784,-1.5784,-1.5784,-1.5899,-1.6005,-1.5879,-1.5784,-1.5784,-1.5784,-1.6244,-1.6788,-1.5919,-1.5977,-1.6469,0.0,0.0,0.0,0.0,0.0,0.0,0.0,0.0,0.0,0.0,-2.1991,-2.1274,-1.9911,-1.8193,-1.647,-1.486,-1.2316,-0.9494,-0.6344,-0.4178,-0.2249,-0.0534,-0.0149,0.0922,0.2928,0.2965,0.4449,0.7554,0.7513,0.8235,0.9622,0.9584,0.9601,0.9598,0.8941,0.7963,0.6862,0.6228,0.5315,0.4194,0.2893,0.0469,-0.2632,-0.5337,-0.9279,-1.3418,-1.4276,-1.498,-1.5623,-1.6613,-1.7979,-1.918,-1.8829,-1.9892,-2.1374,-2.1859,-2.0953,-1.9443,-1.7737,-1.6454,-1.5132,-1.3283,-1.2265,-1.1623,-1.1376,-1.0774,-1.0425,-1.0838,-1.0236,-0.9724,-0.9932,-1.0713,-1.1321,-1.1384,-1.2418,-1.3009,-1.2583,-1.3335,-1.3854,-1.3573,-1.4443,-1.5198,-1.5625,-1.4898,-1.4887,-1.5989,-1.5999,-1.5952,-1.5952,-1.5872,-1.5784,-1.5784,-1.5784,-1.5784,-1.5784,-1.5784,-1.5784,-1.5784,-1.5784,-1.5784,-1.5784,-1.5784,-1.5784,-1.5784,-1.5784,-1.5784,-1.5784,-1.5784,-1.6015,-1.6332,-1.6195,-1.6901,-1.7858,-1.6538,-1.6771,-1.7643,0.0,0.0,0.0,0.0,0.0,0.0,0.0,0.0,0.0,0.0,0.0,-2.1748,-2.034,-1.9435,-1.8065,-1.5927,-1.4016,-1.1574,-0.8419,-0.5487,-0.3169,-0.1638,-0.0536,0.0954,0.3037,0.3078,0.4755,0.8186,0.8063,0.863,0.9878,0.9766,0.9167,0.8254,0.8359,0.7854,0.6903,0.7193,0.663,0.5455,0.4229,0.0766,-0.4012,-0.7355,-1.0999,-1.4376,-1.4528,-1.5951,-1.7728,-1.7736,-1.7581,-1.7637,-1.9099,-1.9593,-1.9788,-2.0533,-1.9251,-1.7348,-1.6279,-1.4021,-1.1436,-0.932,-0.7683,-0.6393,-0.5573,-0.6566,-0.7705,-0.7713,-0.886,-1.0137,-1.1203,-1.1385,-1.1693,-1.3019,-1.2976,-1.2831,-1.2768,-1.4822,-1.6463,-1.6821,-1.9145,-2.0289,0.0,-1.6447,-1.5293,-1.6573,-1.642,-1.6259,-1.6259,-1.5985,-1.5784,-1.5784,-1.5784,-1.5784,-1.5784,-1.5784,-1.5784,-1.5784,-1.5784,-1.5784,-1.5784,-1.5784,-1.5784,-1.5784,-1.5784,-1.5784,-1.5784,-1.5784,-1.6527,-1.7608,-1.7128,-1.7717,-1.8761,-1.8014,-1.845,-1.9327,0.0,0.0,0.0,0.0,0.0,0.0,0.0,0.0,0.0,0.0,0.0,0.0,0.0,0.0,0.0,0.0,-1.6357,-1.4212,-1.189,-1.0117,-0.8464,-0.6905,-0.5683,-0.439,-0.2954,-0.1753,0.0474,0.3801,0.4364,0.5697,0.7715,0.768,0.7569,0.7377,0.6652,0.5666,0.4474,0.3829,0.2867,0.1568,-0.0379,-0.2821,-0.5648,-0.956,-1.2929,-1.5807,0.0,-1.7968,-1.8591,-1.8591,-1.8985,-1.946,-1.927,-1.9195,-1.8885,-1.7144,-1.5844,-1.4377,-1.1556,-0.9536,-0.7845,-0.6393,-0.573,-0.5304,-0.5042,-0.5381,-0.6062,-0.708,-0.8206,-0.944,-1.0858,-1.254,-1.3821,-1.406,-1.5176,-1.605,-1.6281,-1.7571,-1.8584,-1.863,-2.0328,0.0,0.0,0.0,0.0,-1.8079,-1.7775,-1.765,-1.765,-1.6457,-1.5784,-1.5784,-1.5784,-1.5784,-1.5784,-1.5784,-1.5784,-1.5832,-1.6669,-1.749,-1.8257,-1.8257,-1.8257,-1.8257,-1.8257,-1.8257,-1.8257,-1.8257,-1.8495,-1.8894,-1.872,-1.9389,-2.0412,-1.9904,-2.0656,-2.1618,0.0,0.0,0.0,0.0,0.0,0.0,0.0,0.0,0.0,0.0,0.0,0.0,0.0,0.0,0.0,0.0,0.0,-1.7174,-1.4715,-1.3708,-1.2382,-1.0597,-0.9846,-0.8866,-0.7575,-0.6791,-0.4873,-0.1688,-0.1168,0.0162,0.2224,0.2117,0.2062,0.2059,0.1339,0.0535,-0.0308,-0.0994,-0.1747,-0.2601,-0.4577,-0.6505,-0.8605,-1.2031,-1.5063,0.0,-1.9035,-1.9662,-1.9764,-1.9615,-2.004,-2.0401,-1.9362,-1.8264,-1.6946,-1.4588,-1.2826,-1.1063,-0.8224,-0.6207,-0.4678,-0.3968,-0.3475,-0.3177,-0.3138,-0.403,-0.5272,-0.6723,-0.8295,-1.0026,-1.2064,-1.3827,-1.5056,-1.5259,-1.679,-1.8022,-1.8286,-1.9564,-2.0541,-2.0823,-2.2066,-2.2626,0.0,0.0,0.0,-1.9946,-1.9511,-1.9269,-1.9152,-1.7861,-1.7109,-1.7109,-1.6709,-1.648,-1.648,-1.648,-1.6709,-1.7117,-1.7948,-1.8726,-1.9497,-1.9497,-1.9497,-1.9497,-1.9497,-1.9497,-1.9497,-1.9497,-1.9761,-2.0107,-1.9979,-2.0695,-2.1717,-2.1708,-2.248,-2.3235,0.0,0.0,0.0,0.0,0.0,0.0,0.0,0.0,0.0,0.0,0.0,0.0,0.0,0.0,0.0,0.0,0.0,0.0,-1.7054,-1.64,-1.5185,-1.3073,-1.318,-1.2539,-1.0985,-1.1948,-1.1028,-0.8112,-0.8215,-0.748,-0.6022,-0.6337,-0.6725,-0.718,-0.7116,-0.7202,-0.7326,-0.7155,-0.7093,-0.7197,-0.8404,-1.0328,-1.2748,-1.4867,-1.7276,-1.9598,-2.03,-2.08,-2.1071,-2.0664,-2.0489,-2.0264,-1.913,-1.6799,-1.4263,-1.2771,-1.0162,-0.7524,-0.6222,-0.3861,-0.1829,-0.1839,-0.0829,0.0225,0.0114,-0.2256,-0.4895,-0.6546,-0.8976,-1.1751,-1.4613,-1.5135,-1.5482,-1.6566,-1.7747,-1.8548,-1.8701,-2.0601,-2.2312,0.0,0.0,0.0,0.0,0.0,0.0,-2.2047,0.0,-2.112,-2.073,-1.9931,-1.9497,-1.9497,-1.8365,-1.7777,-1.7777,-1.7777,-1.8411,-1.9579,-1.9579,-1.9625,-1.967,-1.967,-1.967,-1.967,-1.967,-1.967,-1.967,-1.967,-2.035,-2.1346,-2.0974,-2.1506,-2.2608,-2.3298,-2.385,-2.4075,0.0,0.0,0.0,0.0,0.0,0.0,0.0,0.0,0.0,0.0,0.0,0.0,0.0,0.0,0.0,0.0,0.0,0.0,-2.1774,-2.1741,-2.1524,-2.0992,-2.0165,-1.9788,-1.9929,-1.8863,-1.7292,-1.5188,-1.4597,-1.3394,-1.17,-1.1783,-1.2428,-1.3472,-1.2959,-1.3853,-1.568,-1.514,-1.4874,-1.4977,-1.6412,-1.6944,-1.6998,-1.8541,-1.9873,-2.0851,-2.0005,-1.998,-2.0255,-1.9852,-1.9291,-1.8465,-1.6361,-1.4676,-1.286,-0.9724,-0.6994,-0.4536,-0.2205,-0.0312,0.122,0.2328,0.2841,0.2856,0.1878,0.0221,-0.2039,-0.5638,-0.8371,-1.1039,-1.3836,-1.5603,-1.6755,-1.7048,-1.7859,0.0,-1.9148,-2.0894,0.0,-2.2602,0.0,-2.5198,-2.4315,-2.5441,0.0,0.0,-2.2804,-2.2173,-2.2076,-2.0449,-1.9497,-1.9497,-1.9177,-1.9039,-1.9039,-1.9039,-1.9633,-2.0845,-2.0845,-2.1302,-2.2183,-2.2183,-2.2183,-2.2183,-2.2183,-2.2183,-2.2183,-2.2183,-2.2359,-2.2624,-2.2518,-2.2664,-2.3089,-2.4072,-2.4556,-2.4746,0.0,0.0,0.0,0.0,0.0,0.0,0.0,0.0,0.0,0.0,0.0,0.0,0.0,0.0,0.0,0.0,0.0,0.0,0.0,-2.4361,-2.4813,-2.4566,-2.476,-2.5023,-2.533,-2.4913,-2.395,-2.2459,-2.175,-2.0635,-1.9154,-1.8922,-1.9303,-2.0227,-1.9829,-2.0507,-2.19,-2.1488,-2.1182,0.0,0.0,-2.1884,-2.0881,-2.1662,-2.2019,-2.1809,-2.0241,-1.8863,-1.7671,-1.6469,-1.5924,-1.5443,-1.3485,-1.1854,-1.0012,-0.6714,-0.406,-0.1777,0.0306,0.185,0.3071,0.392,0.4096,0.3624,0.1666,-0.0321,-0.2924,-0.7148,-1.0014,-1.2422,-1.466,-1.6238,-1.7159,-1.6974,-1.8172,-1.9177,-1.945,-2.1191,-2.2522,0.0,-2.4249,0.0,-2.4736,-2.5205,-2.5215,0.0,-2.3964,-2.3533,-2.3176,-2.1844,-2.1087,-2.1087,-2.0576,-2.0305,-2.0305,-2.0305,-2.0899,-2.2076,-2.1898,-2.2277,-2.3091,-2.2906,-2.2916,-2.3091,0.0,-2.3091,-2.3091,-2.3091,-2.3091,-2.3091,-2.3091,-2.343,-2.3963,-2.5136,-2.5828,-2.6356,0.0,0.0,0.0,0.0,0.0,0.0,0.0,0.0,0.0,0.0,-2.3551,0.0,0.0,0.0,0.0,0.0,0.0,0.0,0.0,0.0,-2.6318,-2.5893,-2.7629,-2.8568,-2.8432,-2.9519,-2.9558,-2.8507,-2.8094,-2.7334,-2.6217,-2.5764,-2.5825,-2.6344,-2.6357,-2.644,-2.6609,-2.6622,-2.6186,-2.5508,-2.625,-2.5647,-2.4246,0.0,-2.3796,-2.2801,-2.0638,-1.7637,-1.4344,-1.2242,-1.1924,-1.2054,-1.0527,-0.8702,-0.654,-0.4047,-0.1629,0.0551,0.191,0.3265,0.4336,0.4521,0.4439,0.3569,0.0732,-0.2244,-0.5601,-0.9916,-1.2678,-1.4753,-1.6206,-1.6843,-1.7079,-1.6854,-1.8457,-1.9674,-1.9493,-2.1376,-2.292,-2.3358,-2.406,-2.4629,-2.4951,-2.4639,-2.4365,-2.4258,-2.4648,-2.4617,-2.3828,-2.3335,-2.3091,-2.3091,-2.2076,-2.1525,-2.1525,-2.1525,-2.2076,-2.3091,-2.2773,-2.274,-2.3081,-2.2721,-2.275,-2.3091,0.0,0.0,-2.3299,-2.3178,-2.3178,-2.3343,-2.3343,-2.392,-2.4957,-2.6254,-2.7279,-2.8136,0.0,0.0,0.0,0.0,0.0,0.0,0.0,0.0,0.0,0.0,-2.4363,-2.4725,0.0,0.0,0.0,0.0,0.0,0.0,0.0,0.0,0.0,-2.834,-2.93,-2.9914,-3.0152,-3.0378,-3.0018,-2.9057,-2.8983,-2.8412,-2.7403,-2.7311,-2.7753,-2.8616,-2.8708,-2.932,-3.0352,-3.0411,-2.9413,-2.7908,-2.9023,-2.8321,-2.6564,-2.6076,0.0,0.0,-2.051,-1.6225,-1.2218,-1.0719,-1.028,-0.9982,-0.7593,-0.5811,-0.4307,-0.2708,-0.0401,0.196,0.3264,0.462,0.5954,0.725,0.6708,0.4973,0.1406,-0.251,-0.6796,-1.1784,-1.4223,-1.5818,-1.7203,-1.7107,-1.6927,-1.7361,-1.8191,-1.8714,-1.8714,-2.0926,-2.2418,-2.2072,-2.3763,-2.4844,-2.456,-2.4463,0.0,0.0,0.0,-2.3945,-2.3799,-2.3335,-2.3091,-2.3091,-2.2906,-2.2775,-2.2775,-2.2775,-2.2906,-2.3091,-2.3023,-2.3023,-2.3091,-2.3023,-2.3023,-2.3091,-2.3091,0.0,-2.4414,-2.3474,-2.3681,-2.45,-2.45,-2.4628,-2.5041,-2.7064,-2.7924,-2.8215,0.0,0.0,0.0,0.0,0.0,0.0,0.0,-2.3735,-2.4531,-2.5612,-2.5687,-2.5815,-2.6246,-2.6076,-2.5954,0.0,0.0,0.0,0.0,0.0,0.0,-2.8365,-2.911,-2.9793,-3.0378,-3.0394,-3.0376,-3.0326,0.0,-3.0211,-2.9315,-2.9274,-2.9311,-2.936,-2.9208,-2.9509,-3.0116,-3.0141,-2.9626,-2.8895,-2.9838,-2.9405,-2.8211,-2.8002,0.0,0.0,-2.0004,-1.6567,-1.3363,-1.0031,-0.8922,-0.8318,-0.4974,-0.3501,-0.2688,-0.1363,0.0956,0.3165,0.3815,0.5472,0.72,0.7979,0.6123,0.3102,-0.0784,-0.5324,-1.0053,-1.4585,-1.6632,-1.7895,-1.8534,-1.8111,-1.7732,-1.8029,-1.8181,-1.8263,-1.8263,-2.0423,-2.1966,-2.1913,-2.3395,-2.4404,-2.4414,-2.3968,-2.3539,0.0,0.0,-2.3457,-2.3457,-2.3208,-2.3091,-2.3091,-2.3091,-2.2994,-2.2769,-2.2769,-2.2769,-2.2812,-2.2598,-2.2672,-2.3091,-2.2867,-2.2886,-2.3091,-2.3091,0.0,-2.392,-2.3963,-2.3963,-2.4049,-2.521,-2.5336,-2.5073,-2.7267,-2.8096,-2.8255,0.0,0.0,0.0,0.0,0.0,0.0,0.0,-2.3759,-2.4787,-2.6441,-2.6693,-2.6699,-2.6588,-2.6775,-2.6915,0.0,0.0,0.0,0.0,0.0,0.0,0.0,0.0,0.0,-2.992,0.0,0.0,-3.114,-3.1691,0.0,0.0,0.0,0.0,0.0,-2.9178,-2.8965,-2.8738,-2.8925,-2.9082,0.0,0.0,-2.9903,-2.9468,0.0,0.0,0.0,0.0,-1.8145,-1.5518,-1.1351,-0.9553,-0.8432,-0.4724,-0.2854,-0.1771,-0.0757,0.1459,0.3565,0.3565,0.532,0.7129,0.7129,0.3966,-0.0146,-0.3867,-0.9141,-1.4232,-1.7712,-1.938,-2.0198,-1.9943,-1.9256,-1.8776,-1.8871,-1.8709,-1.86,-1.8856,-2.0724,-2.218,-2.2542,-2.3558,0.0,-2.4404,-2.3686,0.0,0.0,0.0,0.0,-2.3091,-2.3091,-2.3052,-2.2964,-2.2955,-2.276,-2.2383,-2.2373,-2.2422,-2.251,-2.2178,-2.2412,-2.3081,-2.275,-2.2779,-2.3091,-2.3091,0.0,0.0,-2.4168,-2.4049,-2.3637,-2.5431,-2.5755,-2.542,-2.7389,-2.8255,-2.8597,0.0,0.0,0.0,0.0,0.0,0.0,0.0,-2.3568,-2.4321,-2.5642,-2.6592,-2.7402,-2.8018,-2.7801,-2.7778,0.0,0.0,0.0,0.0,0.0,0.0,0.0,0.0,0.0,0.0,0.0,0.0,-3.032,-3.1321,0.0,0.0,0.0,0.0,0.0,0.0,-2.8939,-2.7959,-2.8705,0.0,0.0,0.0,0.0,0.0,0.0,0.0,0.0,0.0,-2.113,-1.742,-1.6615,-1.4623,-1.2012,-0.9422,-0.5578,-0.1955,-0.1872,0.0101,0.2163,0.2163,0.3265,0.4366,0.4366,0.0543,-0.4041,-0.7024,-1.3203,-1.8918,-2.0908,-2.2049,-2.2343,-2.1328,-2.0184,-1.9578,-2.0135,-2.0176,-2.0529,-2.1554,-2.2954,-2.3919,-2.4056,0.0,0.0,-2.4492,-2.4004,0.0,0.0,0.0,0.0,-2.3091,-2.3091,-2.2916,-2.2578,-2.2568,-2.2373,-2.1953,-2.1943,-2.2139,-2.251,-2.2471,-2.2652,-2.3091,-2.3052,-2.3062,-2.3091,-2.3091,0.0,0.0,-2.3637,-2.38,-2.466,-2.4872,-2.5504,-2.6472,-2.7683,-2.8767,-2.9663,0.0,0.0,0.0,0.0,0.0,0.0,-2.3117,-2.3444,-2.4286,-2.6182,-2.6553,-2.7398,-2.9351,-2.8438,-2.7927,-2.843,0.0,0.0,0.0,0.0,0.0,0.0,0.0,0.0,0.0,0.0,-3.0558,-3.1279,-3.2125,0.0,0.0,0.0,0.0,0.0,0.0,-2.8638,-2.755,-2.8322,0.0,0.0,0.0,0.0,0.0,0.0,0.0,0.0,0.0,0.0,-2.1346,-1.9725,-1.8091,-1.6291,-1.3932,-1.099,-0.7677,-0.3974,-0.1142,0.0954,0.176,0.2964,0.3773,0.2892,-0.2309,-0.7795,-1.0259,-1.6815,-2.2699,-2.3843,-2.4075,-2.3935,-2.3471,-2.1861,-2.0644,-2.0885,-2.0474,-2.0327,-2.0982,-2.2458,-2.3547,-2.379,-2.4456,0.0,0.0,0.0,0.0,0.0,0.0,0.0,-2.3091,-2.3091,-2.2906,-2.2519,-2.2711,-2.2568,-2.1894,-2.2139,-2.2344,-2.251,-2.251,-2.2691,-2.3091,-2.3091,-2.3091,-2.3091,-2.3091,0.0,0.0,-2.4296,-2.4372,-2.4914,-2.6273,-2.6232,-2.5755,-2.8239,-2.8976,-2.8858,0.0,0.0,0.0,0.0,0.0,-2.2494,-2.3111,-2.3571,-2.4655,-2.6875,-2.7054,-2.7858,-3.0152,-2.8981,-2.8227,-2.8753,-2.8065,0.0,0.0,0.0,0.0,0.0,0.0,0.0,0.0,0.0,-3.0878,-3.1996,-3.2865,-3.3324,0.0,0.0,0.0,0.0,0.0,0.0,0.0,0.0,0.0,0.0,0.0,0.0,0.0,0.0,0.0,0.0,0.0,0.0,0.0,0.0,0.0,-2.0713,-1.8757,-1.6551,-1.3407,-0.7067,-0.3581,-0.1499,-0.0151,0.0903,0.1305,-0.0152,-0.5856,-1.16,-1.3509,-2.0014,-2.5697,-2.5808,-2.5798,-2.5703,-2.5378,-2.3664,-2.2322,-2.2347,-2.1518,-2.1012,-2.1514,-2.2739,-2.3736,-2.4101,0.0,-2.4844,0.0,0.0,0.0,0.0,0.0,0.0,0.0,-2.2974,-2.2721,-2.2344,-2.2617,-2.2422,-2.1699,-2.1982,-2.2223,-2.251,-2.251,-2.2691,-2.3091,-2.3091,-2.3256,-2.3594,0.0,0.0,0.0,-2.4585,-2.467,-2.542,-2.6644,-2.6562,-2.6066,-2.845,-2.8988,-2.8727,0.0,0.0,0.0,0.0,0.0,0.0,-2.3111,-2.4055,-2.5422,-2.7526,-2.8246,-2.9053,-3.0282,-2.9437,-2.8974,-2.9452,-2.8323,0.0,0.0,0.0,0.0,0.0,0.0,0.0,0.0,0.0,-3.112,-3.1996,-3.3345,-3.4051,-3.4211,-3.4794,-3.4137,-3.2452,0.0,0.0,0.0,0.0,0.0,0.0,0.0,0.0,-3.1511,0.0,0.0,0.0,0.0,0.0,0.0,0.0,0.0,0.0,0.0,-2.1787,-1.8143,-1.119,-0.7614,-0.5634,-0.431,-0.3915,-0.426,-0.5586,-1.0577,-1.5476,-1.6827,-2.2808,-2.7759,-2.6712,-2.7316,-2.7723,-2.6678,-2.5546,-2.4745,-2.4745,-2.38,-2.3349,-2.4251,-2.4795,-2.5234,0.0,0.0,-2.5859,0.0,0.0,0.0,0.0,0.0,0.0,0.0,-2.2701,-2.2324,-2.1904,-2.1894,-2.1689,-2.121,-2.121,-2.1639,-2.251,-2.251,-2.2691,-2.3091,-2.3091,-2.3714,0.0,0.0,0.0,0.0,-2.4059,-2.4435,-2.6348,-2.5252,-2.6149,-2.8084,-2.8096,-2.8806,-2.9792,0.0,0.0,0.0,0.0,0.0,0.0,0.0,-2.3952,-2.5171,-2.7073,-2.7756,-2.8694,-3.037,-2.9297,-2.8906,-3.003,-2.9,0.0,0.0,0.0,0.0,0.0,0.0,0.0,0.0,-3.0919,-3.1742,-3.2341,-3.3268,-3.4284,-3.5381,-3.5548,-3.5054,-3.3977,-3.3552,0.0,0.0,0.0,0.0,0.0,0.0,-3.1283,-3.1451,0.0,0.0,0.0,0.0,0.0,0.0,0.0,0.0,0.0,0.0,0.0,0.0,-1.8414,-1.3642,-0.9255,-0.8195,-0.7879,-0.8171,-0.9352,-1.4025,-1.8548,-1.9345,-2.3985,-2.8014,-2.7681,-2.7569,-2.755,-2.7584,-2.6707,-2.6074,-2.6457,-2.5496,-2.4784,-2.5183,-2.5135,0.0,-2.4463,-2.4531,-2.4326,0.0,0.0,0.0,0.0,0.0,0.0,0.0,-2.2588,-2.2324,-2.1894,-2.1885,-2.1816,-2.168,-2.1963,-2.234,-2.2896,-2.2896,-2.2964,-2.3091,-2.3091,0.0,0.0,0.0,0.0,0.0,-2.4059,-2.4435,-2.6472,-2.6099,-2.6378,-2.7209,-2.87,-2.9495,-2.9792,0.0,0.0,0.0,0.0,0.0,0.0,0.0,-2.4772,-2.602,-2.8002,-2.8509,-2.9343,-3.1114,-2.9746,-2.9265,-3.0664,-2.9684,0.0,0.0,0.0,0.0,0.0,0.0,0.0,-3.0514,-3.1483,-3.2065,-3.2248,-3.3247,-3.4421,-3.5671,-3.5927,-3.5892,-3.5593,-3.5104,-3.3644,0.0,0.0,0.0,0.0,-3.1137,-3.123,-3.1436,0.0,0.0,0.0,0.0,0.0,0.0,0.0,0.0,0.0,0.0,0.0,0.0,0.0,-1.9624,-1.5291,-1.3644,-1.317,-1.3461,-1.4591,-1.8213,-2.1658,-2.2291,-2.5531,-2.836,-2.8147,-2.7829,-2.778,-2.8315,-2.7521,-2.6839,-2.6978,-2.5958,-2.5117,-2.4944,0.0,0.0,-2.4316,0.0,0.0,0.0,0.0,0.0,0.0,0.0,0.0,0.0,-2.2119,-2.1914,-2.165,-2.1641,-2.1641,-2.1641,-2.206,-2.249,-2.2867,-2.3023,-2.3091,-2.3091,-2.3091,0.0,0.0,0.0,0.0,0.0,-2.4059,-2.467,-2.7046,-2.6637,-2.7017,-2.7931,-2.9287,-2.9792,-2.9792,0.0,0.0,0.0,0.0,0.0,0.0,0.0,-2.618,-2.7548,-2.9771,-3.0108,-3.0737,-3.2274,-3.0694,-3.0035,-3.1278,0.0,0.0,0.0,0.0,0.0,0.0,0.0,0.0,-3.1199,-3.1884,-3.2108,-3.1893,-3.3234,-3.4371,-3.5272,-3.5959,-3.6559,-3.703,-3.6308,-3.516,0.0,0.0,0.0,0.0,-3.0882,-3.0972,0.0,0.0,0.0,0.0,0.0,0.0,0.0,0.0,0.0,0.0,0.0,0.0,0.0,0.0,0.0,0.0,0.0,-1.9431,-1.9589,-2.0726,-2.2764,-2.4693,-2.5434,-2.7234,0.0,-2.8197,-2.8072,-2.8235,-2.8787,-2.8079,-2.7266,-2.6767,-2.5715,-2.4697,-2.4034,-2.4147,0.0,0.0,-2.4248,0.0,0.0,0.0,0.0,0.0,0.0,0.0,0.0,-2.1455,-2.1161,-2.1103,-2.1132,-2.1161,-2.119,-2.1641,-2.2051,-2.2471,-2.2847,-2.3052,-2.3052,-2.3081,0.0,0.0,0.0,0.0,0.0,-2.4092,-2.5041,-2.7763,-2.6842,-2.7758,-2.9585,-2.9663,-2.9714,-2.9792,0.0,0.0,0.0,0.0,0.0,0.0,0.0,0.0,0.0,0.0,-2.984,-3.097,-3.1865,-3.1106,-3.078,0.0,0.0,0.0,0.0,0.0,0.0,0.0,0.0,0.0,-3.1352,-3.1412,-3.1869,-3.2707,-3.2824,-3.355,-3.4934,-3.566,-3.6284,-3.6788,-3.6814,-3.598,0.0,0.0,0.0,0.0,-3.2094,-3.1827,0.0,0.0,0.0,0.0,-2.8498,-2.8039,0.0,0.0,0.0,0.0,0.0,0.0,0.0,0.0,-2.6701,-2.6794,-2.6136,0.0,-2.3253,-2.3265,-2.493,-2.6542,0.0,-2.7041,-2.7758,-2.8047,-2.777,-2.777,-2.8712,-2.8687,-2.8474,-2.8373,-2.7345,-2.6259,-2.5295,0.0,0.0,-2.4043,0.0,0.0,0.0,0.0,0.0,0.0,0.0,0.0,0.0,-2.1249,-2.0888,-2.0244,-2.0547,-2.0889,-2.119,-2.1298,-2.1602,-2.2041,-2.2461,-2.2656,-2.2676,-2.2945,0.0,0.0,0.0,0.0,-2.5168,-2.4628,-2.4872,-2.5661,-2.6265,-2.6812,-2.7383,-2.8187,-2.9067,-2.9663,0.0,0.0,0.0,0.0,0.0,0.0,0.0,0.0,0.0,0.0,0.0,-3.1139,-3.2021,-3.1426,0.0,0.0,0.0,0.0,0.0,0.0,0.0,0.0,0.0,-3.0122,-3.0483,-3.1011,-3.1463,-3.176,-3.2615,-3.3534,-3.4552,-3.5888,-3.678,-3.7217,-3.6782,-3.6129,0.0,0.0,0.0,-3.2927,-3.2608,0.0,0.0,0.0,0.0,0.0,-2.7974,-2.7373,0.0,-2.6646,-2.5959,-2.5331,0.0,0.0,0.0,0.0,-2.6757,-2.7319,-2.7081,-2.7007,-2.6932,-2.6708,-2.7553,-2.8324,-2.7762,-2.7656,-2.767,-2.772,-2.6948,-2.6576,-2.7617,-2.741,-2.7272,-2.7737,-2.6811,0.0,0.0,0.0,-2.3303,-2.3019,0.0,0.0,0.0,0.0,0.0,0.0,0.0,0.0,0.0,-2.0449,-2.0127,-1.9639,-1.9853,-2.0185,-2.0586,-2.0995,-2.1317,-2.1592,-2.2217,-2.251,-2.2529,-2.2906,-2.3091,0.0,0.0,0.0,-2.3807,-2.4491,-2.4998,-2.5315,-2.6176,-2.7139,-2.8091,-2.8661,-2.8937,-2.8937,0.0,0.0,0.0,0.0,0.0,0.0,0.0,0.0,0.0,0.0,0.0,0.0,0.0,0.0,0.0,0.0,0.0,0.0,0.0,0.0,0.0,0.0,-2.9521,-2.9482,-2.9423,-3.0526,-3.0887,-3.0458,-3.23,-3.3523,-3.4174,-3.6112,-3.7359,-3.7917,-3.6709,-3.6128,-3.5962,-3.4387,-3.3717,-3.3616,-3.2941,0.0,0.0,0.0,0.0,0.0,0.0,0.0,0.0,-2.5618,-2.4838,-2.4184,-2.4545,0.0,0.0,0.0,0.0,0.0,-2.5695,-2.734,-2.9266,-2.947,-2.96,-2.9528,-2.9001,-2.8436,-2.7809,-2.719,-2.6019,-2.5312,-2.6132,-2.5615,-2.5328,-2.6121,0.0,0.0,-2.3943,-2.3769,-2.3323,0.0,0.0,0.0,0.0,0.0,0.0,0.0,0.0,0.0,0.0,-1.9512,-1.9258,-1.9189,-1.9248,-1.9453,-1.9814,-2.0586,-2.1025,-2.1103,-2.2002,-2.2412,-2.2432,-2.2877,-2.3091,0.0,0.0,0.0,-2.2624,-2.4154,-2.5056,-2.5476,-2.6218,-2.7711,-2.9422,-2.9341,-2.8779,-2.8096,0.0,0.0,0.0,0.0,0.0,0.0,0.0,0.0,0.0,0.0,0.0,0.0,0.0,0.0,0.0,0.0,0.0,0.0,0.0,0.0,0.0,-2.9636,-2.9531,-2.9521,-2.9567,-2.9669,-3.021,-3.1242,-3.1328,-3.2205,-3.3802,-3.5433,-3.6928,-3.8196,-3.7381,-3.6767,-3.6287,-3.5564,-3.494,-3.4363,-3.37,0.0,0.0,0.0,0.0,0.0,0.0,0.0,0.0,-2.5425,-2.4467,-2.3371,-2.3947,0.0,0.0,0.0,0.0,0.0,-2.4715,-2.5426,-2.6708,-2.8028,-2.8711,-2.9001,-2.8913,-2.8134,-2.7155,-2.6215,-2.5767,-2.5456,-2.524,-2.5369,-2.5426,-2.5114,0.0,-2.3575,0.0,0.0,0.0,0.0,0.0,0.0,0.0,0.0,0.0,0.0,0.0,0.0,0.0,-1.9512,-1.9121,-1.8715,-1.9092,-1.9316,-1.9385,-1.9873,-2.0303,-2.0713,-2.1562,-2.1982,-2.2012,-2.274,-2.3091,0.0,0.0,-2.3922,-2.2624,-2.4154,-2.4366,-2.3873,-2.5746,-2.6984,-2.7618,-2.718,-2.7452,-2.7976,0.0,0.0,0.0,0.0,0.0,0.0,0.0,0.0,0.0,0.0,0.0,0.0,0.0,0.0,0.0,0.0,0.0,0.0,0.0,0.0,-3.1331,-2.9666,-2.9152,-2.8771,-2.8524,-2.877,-2.9034,-2.9278,-2.9998,-3.102,-3.2365,-3.5242,-3.7279,-3.8496,-3.8129,-3.7823,-3.753,-3.6633,-3.6053,-3.5706,0.0,0.0,0.0,0.0,0.0,0.0,0.0,0.0,0.0,0.0,-2.4381,-2.3208,-2.3816,0.0,0.0,0.0,0.0,0.0,-2.2924,-2.3559,-2.4803,-2.5772,-2.6817,-2.768,-2.7987,-2.7651,-2.7113,-2.6327,-2.5695,-2.5122,-2.4563,-2.4184,-2.3898,-2.3892,0.0,-2.3941,0.0,0.0,0.0,0.0,0.0,0.0,0.0,0.0,0.0,0.0,0.0,0.0,0.0,0.0,-1.8506,-1.8266,-1.8496,-1.8818,-1.9287,-1.9482,-1.9912,-2.0615,-2.1221,-2.1533,-2.1553,-2.267,-2.3202,-2.3275,0.0,-2.4034,-2.2727,-2.3971,-2.423,-2.4015,-2.5817,-2.719,-2.8025,-2.6903,-2.6419,-2.6149,0.0,0.0,0.0,0.0,0.0,0.0,0.0,0.0,0.0,0.0,0.0,0.0,0.0,0.0,0.0,0.0,0.0,0.0,0.0,-3.2082,-3.1566,-2.9888,-2.9101,-2.8213,-2.7189,-2.7563,-2.7553,-2.7057,-2.8494,-3.0111,-3.1929,-3.547,-3.7693,-3.8702,-3.8629,-3.854,-3.8384,-3.7455,-3.6965,-3.6698,0.0,0.0,0.0,0.0,0.0,0.0,0.0,0.0,0.0,0.0,0.0,0.0,0.0,0.0,0.0,-2.2285,-2.2435,-2.26,-2.1371,-2.2,-2.3019,-2.3207,-2.465,-2.6165,-2.6748,-2.6734,-2.641,-2.5874,-2.5211,-2.4541,-2.3795,-2.2856,0.0,-2.3135,-2.3677,0.0,0.0,0.0,0.0,0.0,0.0,0.0,0.0,0.0,0.0,0.0,0.0,0.0,0.0,0.0,-1.8008,-1.8008,-1.8008,-1.8379,-1.9131,-1.9238,-1.9754,-2.0605,-2.1025,-2.119,-2.125,-2.2664,-2.3282,-2.3362,-2.4473,-2.4093,-2.2793,-2.3894,-2.4266,-2.4269,-2.6001,-2.7355,-2.8169,-2.6949,-2.5599,-2.4296,0.0,0.0,0.0,0.0,0.0,0.0,0.0,0.0,0.0,0.0,0.0,0.0,0.0,0.0,0.0,0.0,0.0,0.0,0.0,-3.181,-3.119,-3.0475,-2.9851,-2.8361,-2.5894,-2.5756,-2.5717,-2.5749,-2.6908,-2.9742,-3.4121,-3.6207,-3.7717,-3.8703,-3.8638,-3.8368,-3.7936,-3.7879,-3.7432,-3.6732,-3.5941,0.0,0.0,0.0,0.0,0.0,0.0,0.0,0.0,0.0,0.0,0.0,0.0,0.0,-2.092,-2.0268,-2.0776,-2.1402,-2.0797,-2.1017,-2.1236,-2.0611,-2.2471,-2.4673,-2.552,-2.5054,-2.4248,-2.3636,-2.381,-2.3774,-2.2787,-2.196,-2.1893,-2.3483,-2.2506,0.0,0.0,0.0,0.0,0.0,0.0,0.0,0.0,0.0,0.0,0.0,0.0,0.0,0.0,0.0,0.0,-1.8008,-1.8008,-1.8223,-1.8646,-1.9082,-1.9754,-2.0605,-2.1025,-2.119,-2.125,-2.2664,-2.3282,-2.3362,-2.4355,-2.4004,-2.2811,-2.4203,-2.4265,-2.379,-2.6294,-2.7011,-2.6673,-2.6543,-2.5105,-2.3222,0.0,0.0,0.0,0.0,0.0,0.0,0.0,0.0,0.0,0.0,0.0,0.0,0.0,0.0,0.0,0.0,0.0,0.0,0.0,-3.1964,-3.1607,-3.0566,-2.9446,-2.8236,-2.69,-2.641,-2.5794,-2.4987,-2.707,-2.9841,-3.325,-3.5768,-3.7625,-3.8897,-3.8873,-3.8748,-3.8514,-3.7601,-3.7066,-3.6738,-3.5961,-3.4389,0.0,0.0,0.0,0.0,0.0,0.0,0.0,0.0,-2.3735,-2.1677,-2.1849,-2.1333,-2.0562,-2.0037,-2.0397,-2.0788,-2.0294,-2.0684,-2.1207,-2.1244,-2.2036,-2.2978,-2.3526,-2.4134,-2.4504,-2.4272,-2.4367,-2.4094,-2.2761,-2.1848,-2.1444,-2.1813,0.0,0.0,0.0,0.0,0.0,0.0,0.0,0.0,0.0,0.0,0.0,0.0,0.0,0.0,0.0,0.0,0.0,-1.8008,-1.8008,-1.8178,-1.8598,-1.9072,-1.958,-2.0166,-2.0605,-2.1114,-2.1755,-2.2889,-2.3762,-2.4374,-2.4756,-2.4616,-2.4147,-2.4332,-2.4442,-2.4645,-2.693,-2.704,-2.6006,-2.636,-2.5062,-2.3091,0.0,0.0,0.0,0.0,0.0,0.0,0.0,0.0,0.0,0.0,0.0,0.0,0.0,0.0,0.0,0.0,0.0,0.0,-3.1342,-3.1643,-3.1526,-3.0825,-2.9498,-2.8599,-2.8243,-2.7382,-2.6251,-2.4923,-2.7377,-2.9801,-3.2226,-3.5103,-3.7004,-3.7993,-3.8434,-3.8514,-3.8251,-3.7235,-3.666,-3.64,-3.6096,-3.4841,0.0,0.0,0.0,0.0,0.0,0.0,0.0,0.0,-2.3693,-2.1604,-2.1526,-2.0617,-1.9586,-1.9507,-1.993,-2.0348,-2.0179,-2.0762,-2.1423,-2.1365,-2.1453,-2.1522,-2.1457,-2.2522,-2.344,-2.3172,-2.305,-2.2668,-2.162,-2.057,0.0,0.0,0.0,0.0,0.0,0.0,0.0,0.0,0.0,0.0,0.0,0.0,0.0,0.0,0.0,0.0,0.0,0.0,0.0,0.0,-1.8008,-1.8144,-1.8403,-1.8867,-1.9228,-1.9485,-2.0088,-2.0795,-2.1593,-2.2925,-2.3891,-2.4564,-2.5194,-2.53,-2.5004,-2.4938,-2.5228,-2.5874,-2.728,-2.6918,-2.5634,-2.6073,-2.4798,-2.2916,0.0,0.0,0.0,0.0,0.0,0.0,0.0,0.0,0.0,0.0,0.0,0.0,0.0,0.0,0.0,0.0,0.0,0.0,-3.1276,-3.0723,-3.0694,-3.1356,-3.0228,-2.9606,-2.9621,-2.8304,-2.6969,-2.5607,-2.7555,-2.9499,-3.1469,-3.4341,-3.5679,-3.5762,-3.723,-3.7466,-3.6778,-3.6778,-3.6299,-3.5633,-3.6434,-3.5864,-3.4344,0.0,0.0,0.0,0.0,0.0,0.0,0.0,-2.3451,-2.0985,-2.0696,-1.9135,-1.7602,-1.8354,-1.9212,-2.0019,-2.0478,-2.1201,-2.1617,-2.0466,-2.0461,-2.0411,-1.9314,-1.9922,-2.0474,-1.9678,-1.9289,-1.9093,-1.9085,-1.7814,0.0,0.0,0.0,0.0,0.0,0.0,0.0,0.0,0.0,0.0,0.0,0.0,0.0,0.0,0.0,0.0,0.0,0.0,0.0,0.0,-1.8008,-1.8008,-1.8008,-1.8393,-1.8598,-1.8617,-1.9465,-2.0137,-2.0663,-2.259,-2.3478,-2.3624,-2.5604,-2.5921,-2.5075,-2.6094,-2.6813,-2.7268,-2.7281,-2.6595,-2.5619,-2.5579,-2.427,-2.2568,0.0,0.0,0.0,0.0,0.0,0.0,0.0,0.0,0.0,0.0,0.0,0.0,0.0,0.0,0.0,0.0,0.0,0.0,-3.0496,-3.0412,-3.0251,-2.9927,-2.9266,-2.931,-3.0208,-2.9834,-2.8782,-2.7009,-2.8076,-2.9853,-3.2337,-3.4136,-3.5252,-3.5729,-3.6122,-3.5654,-3.4545,-3.4454,-3.4034,-3.3484,-3.4134,-3.4134,-3.3579,0.0,0.0,0.0,0.0,0.0,0.0,0.0,0.0,0.0,-2.1548,-2.0744,-2.0001,-1.8907,-1.9463,-2.0332,-2.0156,-2.0212,-2.025,-2.009,-1.9808,-1.9262,-1.8053,-1.8685,-1.944,-1.8937,-1.8777,-1.8671,-1.8378,-1.7293,0.0,0.0,0.0,0.0,0.0,0.0,0.0,0.0,0.0,0.0,0.0,0.0,0.0,0.0,0.0,0.0,0.0,0.0,0.0,0.0,-1.8008,-1.8008,-1.8008,-1.8393,-1.8598,-1.8617,-1.9465,-2.0188,-2.0798,-2.193,-2.3058,-2.4108,-2.5049,-2.5699,-2.6094,-2.6383,-2.6587,-2.6694,-2.6357,-2.5981,-2.55,-2.4482,-2.3663,-2.3012,0.0,0.0,0.0,0.0,0.0,0.0,0.0,0.0,0.0,0.0,-3.2565,-3.2366,0.0,0.0,0.0,0.0,0.0,0.0,-3.014,-3.0267,-3.0035,-2.9341,-2.9079,-2.932,-3.0118,-3.0372,-3.0058,-2.9146,-2.928,-3.0347,-3.2256,-3.3609,-3.4166,-3.4007,-3.4197,-3.3691,-3.2634,-3.2551,-3.2492,-3.2488,-3.3144,-3.3406,-3.3313,0.0,0.0,0.0,0.0,0.0,0.0,0.0,0.0,0.0,-2.2678,-2.1492,-2.0407,-1.9057,-1.9119,-1.9611,-1.9511,-1.9502,-1.96,-1.9748,-1.9187,-1.8022,-1.6073,-1.6571,-1.7418,-1.7211,-1.7,-1.6753,-1.6503,-1.571,0.0,0.0,0.0,0.0,0.0,0.0,0.0,0.0,0.0,0.0,0.0,0.0,0.0,0.0,0.0,0.0,0.0,0.0,0.0,0.0,-1.7852,-1.7842,-1.8008,-1.8227,-1.8354,-1.8364,-1.9046,-1.9584,-1.996,-2.136,-2.2492,-2.346,-2.4531,-2.525,-2.5657,-2.6249,-2.6499,-2.6421,-2.5732,-2.532,-2.49,-2.3623,-2.2872,-2.2443,0.0,0.0,0.0,0.0,0.0,0.0,0.0,0.0,0.0,0.0,-3.1568,-3.1641,0.0,0.0,0.0,0.0,0.0,0.0,0.0,-3.0259,-2.9962,-2.9252,-2.9396,-2.9562,-2.9681,-3.0283,-3.0884,-3.1469,-3.081,-3.0823,-3.1524,-3.2739,-3.2554,-3.1158,-3.1755,-3.1618,-3.0954,-3.1069,-3.1492,-3.2181,-3.2912,-3.3237,-3.3288,-3.3237,0.0,0.0,0.0,0.0,0.0,0.0,0.0,0.0,-2.4245,-2.207,-2.0019,-1.9143,-1.8678,-1.8487,-1.8688,-1.8909,-1.9071,-1.9104,-1.8095,-1.6408,-1.3631,-1.3846,-1.4614,-1.4703,-1.4352,-1.4008,-1.4008,-1.3527,0.0,0.0,0.0,0.0,0.0,0.0,0.0,0.0,0.0,0.0,0.0,0.0,0.0,0.0,0.0,0.0,0.0,0.0,0.0,-1.7881,-1.7529,-1.751,-1.7891,-1.793,-1.7959,0.0,-1.8383,-1.8598,-1.8672,-2.0825,-2.1862,-2.2039,-2.3979,-2.4589,-2.432,-2.5586,-2.6189,-2.6171,-2.511,-2.4434,-2.4009,-2.29,-2.1995,-2.1351,0.0,0.0,0.0,0.0,0.0,0.0,0.0,0.0,0.0,0.0,0.0,0.0,0.0,0.0,0.0,0.0,0.0,0.0,0.0,-3.0412,-2.9776,-2.8584,-2.9212,-2.9816,-3.0298,-3.0943,-3.1249,-3.1203,-3.0717,-3.0823,-3.1509,-3.1338,-3.0482,-2.9154,-2.9701,-2.9589,-2.9051,-2.9964,-3.0499,-3.0788,-3.1419,-3.2019,-3.2479,-3.1884,-3.2293,0.0,0.0,0.0,0.0,0.0,0.0,0.0,-2.717,-2.5707,-2.4151,-2.1322,-2.0338,-1.9887,-1.8675,-1.7016,-1.5729,-1.5972,-1.4354,-1.2498,-1.1854,-1.1536,-1.1601,-1.2409,-1.3007,-1.34,-1.34,0.0,0.0,0.0,0.0,0.0,0.0,0.0,0.0,0.0,0.0,0.0,0.0,0.0,0.0,0.0,0.0,0.0,0.0,0.0,0.0,-1.697,-1.6892,-1.6882,-1.697,-1.7344,-1.7519,0.0,-1.8247,-1.8598,-1.8637,-1.9831,-2.0771,-2.1613,-2.2811,-2.3456,-2.3635,-2.3268,-2.3766,-2.4536,-2.2836,-2.2772,-2.3461,-2.1671,-2.1373,-2.1771,0.0,0.0,0.0,0.0,0.0,0.0,0.0,0.0,0.0,0.0,0.0,0.0,0.0,0.0,0.0,0.0,0.0,0.0,0.0,0.0,-2.993,-2.9342,-2.9772,-2.9997,-2.9926,-3.0587,-3.0799,-3.0591,-3.0029,-3.0306,-3.1292,-3.0784,-2.9958,-2.8896,-2.9141,-2.9067,-2.8844,-2.973,-3.0342,-3.0777,-3.1075,-3.1427,-3.1769,-3.1752,-3.2188,-3.2844,-3.2483,0.0,0.0,0.0,0.0,0.0,0.0,0.0,-2.5107,-2.1899,-2.0153,-1.8807,-1.6708,-1.5199,-1.413,-1.3702,-1.2439,-1.114,-1.0583,-1.028,-1.0151,-1.0115,-1.0828,-1.1444,-1.1444,0.0,0.0,0.0,0.0,0.0,0.0,0.0,0.0,0.0,0.0,0.0,0.0,0.0,0.0,0.0,0.0,0.0,0.0,-1.5709,-1.6087,-1.6687,-1.6523,-1.6514,-1.6697,-1.6921,-1.7178,-1.7425,-1.7832,-1.8217,-1.8627,-1.9316,-1.9786,-2.0119,-2.1364,-2.1893,-2.1891,-2.2094,-2.2628,-2.311,-2.1674,-2.1677,-2.2293,-2.0805,-2.0716,-2.1331,0.0,0.0,0.0,0.0,0.0,0.0,0.0,0.0,0.0,0.0,0.0,0.0,0.0,0.0,0.0,0.0,0.0,0.0,0.0,0.0,0.0,-3.0665,-3.055,-3.0186,-2.9506,-3.0025,-3.0049,-2.9512,-2.8995,-2.9297,-3.0411,-3.0084,-2.9475,-2.8641,-2.868,-2.885,-2.9108,-2.9694,-3.0437,-3.119,-3.119,-3.119,-3.1258,-3.1887,-3.2276,-3.2581,-3.3186,-3.3605,-3.3859,-3.3859,0.0,0.0,0.0,0.0,-2.5377,-2.2355,-1.9928,-1.7565,-1.4836,-1.3693,-1.2904,-1.1556,-1.0977,-1.045,-0.9393,-0.927,-0.9096,-0.8131,-0.8749,-0.9418,0.0,0.0,0.0,0.0,0.0,0.0,0.0,0.0,0.0,0.0,0.0,0.0,0.0,0.0,0.0,0.0,0.0,0.0,-1.4996,-1.4881,-1.5306,-1.6432,-1.6143,-1.6133,-1.6473,-1.6551,-1.6836,-1.7275,-1.7422,-1.7852,-1.851,-1.8906,-1.8906,-1.8652,-1.9884,-2.0237,-2.0033,-2.1067,-2.1606,-2.1718,-2.0769,-2.0715,-2.1036,-2.0202,-2.0195,-2.0674,0.0,0.0,0.0,0.0,0.0,0.0,0.0,0.0,0.0,0.0,-3.0298,-3.092,0.0,0.0,0.0,0.0,0.0,0.0,-3.0994,0.0,0.0,-3.1775,-3.0961,-3.0398,-3.017,-3.0256,-2.9364,-2.7491,-2.7629,-2.7676,-2.7635,-2.7712,-2.7099,-2.6039,-2.6535,-2.7431,-2.8554,-2.9087,-3.0052,-3.119,-3.119,-3.119,-3.1207,-3.1309,-3.2138,-3.3271,-3.3372,-3.4221,-3.5318,-3.5318,-3.4858,0.0,0.0,0.0,-2.8056,-2.4853,-2.2052,-1.9228,-1.5842,-1.2771,-1.019,-0.8871,-0.8391,-0.8174,-0.7904,-0.7588,-0.7236,0.0,-0.8099,0.0,0.0,0.0,0.0,0.0,0.0,0.0,0.0,0.0,0.0,0.0,0.0,0.0,0.0,0.0,0.0,0.0,0.0,0.0,-1.3289,-1.3951,-1.468,-1.5556,-1.5527,-1.5527,-1.5556,-1.5997,-1.6377,-1.6794,-1.7568,-1.7988,-1.8096,-1.8154,-1.8315,-1.8607,-1.8797,-1.9081,-1.936,-1.8772,-1.922,-2.0133,-1.9229,-1.938,-2.01,-1.995,-2.0195,-2.0674,0.0,0.0,0.0,0.0,0.0,0.0,0.0,0.0,0.0,0.0,0.0,-3.0463,0.0,0.0,0.0,-2.863,-2.8066,-2.8271,-2.9627,-3.0207,-3.0726,-3.1257,-3.1101,-3.0772,-3.0249,-2.9797,-2.8479,-2.6278,-2.5879,-2.5108,-2.3922,-2.4885,-2.5906,-2.6933,-2.7654,-2.8292,-2.8876,-2.9578,-3.0397,-3.1225,-3.0845,-3.0898,-3.1241,-3.1667,-3.2226,-3.2882,-3.3711,-3.4438,-3.5064,-3.5447,-3.5407,-3.4968,-3.376,0.0,0.0,0.0,-2.3692,-2.0578,-1.5384,-1.1879,-0.9433,-0.8312,-0.7923,-0.7773,-0.7631,-0.7251,-0.6842,-0.6732,0.0,0.0,0.0,0.0,0.0,0.0,0.0,0.0,0.0,0.0,0.0,0.0,0.0,0.0,0.0,0.0,0.0,0.0,0.0,-1.1803,-1.2926,-1.3118,-1.3861,-1.5342,-1.5186,-1.5176,-1.541,-1.5596,-1.5918,-1.6367,-1.7246,-1.7656,-1.7666,-1.79,-1.8115,-1.8247,-1.8247,-1.8379,-1.8519,-1.8168,-1.8344,-1.8811,-1.8419,-1.8627,-1.9192,-1.9473,-1.9834,-2.0332,0.0,0.0,0.0,0.0,0.0,0.0,0.0,0.0,0.0,0.0,0.0,0.0,0.0,0.0,0.0,0.0,-2.7131,-2.723,-2.8507,-2.9748,-3.0557,-3.0866,-3.1307,-3.1118,-3.0229,-2.9288,-2.7736,-2.5547,-2.4312,-2.2958,-2.1565,-2.2563,-2.4392,-2.6908,-2.7954,-2.8554,-2.8793,-2.971,-3.048,-3.1028,-3.0533,-3.0594,-3.1037,-3.1408,-3.1763,-3.2219,-3.3327,-3.4063,-3.4585,-3.5155,-3.547,-3.5379,-3.4012,-3.2722,0.0,0.0,0.0,-2.0926,-1.5377,-1.1915,-0.9629,-0.8619,-0.8087,-0.7773,-0.7631,-0.7282,-0.6886,0.0,0.0,0.0,0.0,0.0,0.0,0.0,0.0,0.0,0.0,0.0,0.0,0.0,0.0,0.0,0.0,0.0,0.0,0.0,0.0,-1.1296,-1.2917,-1.2611,-1.327,-1.5186,-1.4951,-1.4932,-1.5254,-1.5469,-1.5742,-1.6105,-1.6846,-1.7275,-1.7393,-1.7705,-1.8002,-1.8337,-1.8337,-1.8202,-1.8008,-1.8236,-1.8202,-1.8008,-1.8008,-1.8237,-1.8656,-1.9131,-1.9551,-2.0107,0.0,0.0,0.0,0.0,0.0,0.0,0.0,0.0,0.0,0.0,0.0,0.0,-3.0108,-2.9431,-2.867,-2.7874,-2.7131,-2.736,-2.8962,-3.0482,-3.1336,-3.1366,-3.1741,0.0,-3.0229,-2.8921,-2.7319,-2.541,-2.322,-2.2081,-2.1968,-2.1263,-2.1932,-2.38,-2.5568,-2.6772,-2.7564,-2.876,-2.973,-3.0446,-3.0414,-3.0421,-3.038,-2.9785,-3.0341,-3.1468,-3.1593,-3.2866,-3.4503,-3.4622,-3.5075,-3.5379,-3.4012,-3.2993,-3.1787,0.0,0.0,0.0,-1.6737,-1.3493,-1.068,-0.9676,-0.8583,-0.7773,-0.7631,0.0,-0.7004,0.0,0.0,0.0,0.0,0.0,0.0,0.0,0.0,0.0,0.0,0.0,0.0,0.0,0.0,0.0,0.0,0.0,0.0,0.0,0.0,-1.1296,-1.2917,-1.2611,-1.3148,-1.4786,-1.4795,-1.4795,-1.4814,-1.5654,-1.6075,-1.6105,-1.6543,-1.6982,-1.7383,-1.7402,-1.8081,-1.9243,-1.9243,-1.8754,-1.8076,-1.8877,-1.8754,-1.8008,-1.8008,-1.8237,-1.8656,-1.9131,-1.9551,-2.0107,0.0,0.0,0.0,0.0,0.0,0.0,0.0,0.0,0.0,0.0,0.0,0.0,0.0,-2.8943,-2.867,-2.7874,-2.7131,-2.7041,-2.7884,-2.914,-2.9955,-3.0179,-3.1512,-3.1844,-3.0984,-3.0048,-2.833,-2.5845,-2.4057,-2.2448,-2.1106,-2.1379,-2.1846,-2.2568,-2.4823,-2.6281,-2.7156,-2.803,-2.9126,-3.0204,-2.9332,-2.9572,-3.032,-2.9707,-3.0271,-3.1402,-3.1466,-3.2785,-3.4501,-3.4533,-3.502,-3.5379,-3.4012,-3.3395,-3.2558,-2.9663,-2.6047,-2.2407,-1.9519,-1.6423,-1.3448,-1.1079,-0.9605,-0.8515,-0.767,-0.7221,-0.6903,0.0,0.0,0.0,0.0,0.0,0.0,0.0,0.0,0.0,0.0,0.0,0.0,0.0,0.0,0.0,0.0,0.0,0.0,0.0,0.0,0.0,-1.2917,-1.2314,-1.2841,-1.4747,-1.4512,-1.4629,-1.5186,-1.5488,-1.5644,-1.5654,-1.6094,-1.6533,-1.6963,-1.6963,-1.735,-1.815,-1.9233,-1.9372,-1.8854,-1.9177,-1.8787,-1.8008,-1.8008,-1.8237,-1.8656,-1.9131,-1.9551,-2.0107,0.0,0.0,0.0,0.0,0.0,0.0,0.0,0.0,-2.7442,-2.6788,0.0,0.0,0.0,0.0,-2.8587,-2.7519,-2.7215,-2.7232,-2.7637,-2.887,-2.9659,-2.9868,-3.1618,-3.2226,-3.143,-3.0497,-2.8882,-2.6489,-2.4524,-2.267,-2.1037,-2.1333,-2.1616,-2.1987,-2.3806,-2.5249,-2.6374,-2.7557,-2.8631,-2.9525,-2.8901,-2.9255,-3.0078,-2.9446,-3.0108,-3.1345,-3.0996,-3.2141,-3.3804,-3.3561,-3.3796,-3.4119,-3.3681,-3.3431,-3.2721,-3.0081,-2.7744,-2.5431,-2.2831,-1.9783,-1.6621,-1.3593,-1.1397,-0.9602,-0.8087,-0.7283,-0.6829,0.0,0.0,0.0,0.0,0.0,0.0,0.0,0.0,0.0,0.0,0.0,0.0,0.0,0.0,0.0,0.0,0.0,0.0,0.0,0.0,0.0,-1.2917,-1.2155,-1.2517,-1.4301,-1.4182,-1.4445,-1.5195,-1.5342,-1.541,-1.5391,-1.5703,-1.6074,-1.6514,-1.6514,-1.6975,-1.7875,-1.8976,-1.9158,-1.8705,-1.9433,-1.9044,-1.8008,-1.8008,-1.8237,-1.8656,-1.9131,-1.9648,-2.0303,0.0,0.0,0.0,0.0,0.0,0.0,0.0,0.0,-2.8153,-2.7542,0.0,0.0,0.0,0.0,0.0,-2.6911,-2.7435,-2.7998,-2.8384,-2.985,-3.0647,-3.0594,-3.2128,-3.2508,-3.143,-3.0212,-2.8838,-2.7299,-2.4475,-2.2719,-2.1908,-2.1069,-2.1132,-2.1963,-2.2476,-2.3579,-2.5199,-2.7233,-2.8166,-2.8326,-2.9138,-2.951,-2.9478,-2.8775,-2.9678,-3.1147,-2.9969,-3.0798,-3.2348,-3.1678,0.0,-3.1682,-3.3031,-3.3031,-3.2235,-3.0734,-2.9579,-2.8384,0.0,0.0,0.0,-1.7261,-1.4021,-1.101,-0.8958,0.0,-0.6883,0.0,0.0,0.0,0.0,0.0,0.0,0.0,0.0,0.0,0.0,0.0,0.0,0.0,0.0,0.0,0.0,0.0,0.0,0.0,0.0,-1.1341,-1.2917,-1.2212,-1.232,-1.3484,-1.388,-1.4299,-1.4813,-1.5186,-1.54,-1.541,-1.541,-1.5644,-1.6095,-1.6085,-1.699,-1.8553,-1.8585,-1.8136,-1.7566,-1.9695,-1.9562,-1.8008,-1.8008,-1.8237,-1.8676,-1.9131,-1.9862,-2.0732,0.0,0.0,0.0,0.0,0.0,-2.9887,-2.9147,-2.8347,-2.7412,0.0,0.0,0.0,-2.7102,-2.7684,-2.8197,-2.835,-2.8553,-2.8707,-2.8832,-2.9735,-3.0263,-3.0245,-3.2195,-3.2707,-3.143,-3.163,-3.0289,-2.7299,-2.606,-2.4547,-2.2763,-2.2537,-2.2537,-2.2763,-2.2911,-2.3485,-2.4358,-2.5344,-2.634,-2.7236,-2.6608,-2.7284,-2.8476,-2.696,-2.759,-2.9206,0.0,-2.9367,-3.1037,0.0,-3.1428,-3.2321,-3.2676,-3.2,-3.101,-3.0556,-2.9497,-2.8174,-2.6888,0.0,0.0,0.0,0.0,0.0,0.0,0.0,0.0,0.0,0.0,0.0,0.0,0.0,0.0,0.0,0.0,0.0,0.0,0.0,0.0,0.0,0.0,0.0,0.0,0.0,0.0,0.0,-1.1575,-1.2121,-1.2956,-1.3286,-1.3582,-1.3912,-1.3753,-1.4033,-1.4775,-1.4902,-1.5107,-1.541,-1.541,-1.5644,-1.6085,-1.5732,-1.6186,-1.7266,-1.7906,-1.7881,-1.7511,-1.9022,-1.9011,-1.8008,-1.8008,-1.8457,-1.9121,-1.9238,-1.9862,-2.0732,0.0,0.0,0.0,-2.9796,-2.9659,-2.9584,-2.9916,-2.8848,-2.775,0.0,0.0,0.0,-2.7489,-2.7655,-2.8111,-2.8925,-2.8993,-2.9128,-2.9431,-3.0159,-3.0565,-3.0565,-3.2087,-3.2463,-3.1414,-3.1528,-3.0194,-2.7299,-2.6323,-2.5024,-2.3471,-2.3471,-2.3471,-2.3471,-2.371,-2.3873,-2.4029,-2.4562,-2.5314,-2.6144,-2.6029,-2.6767,-2.785,-2.6755,-2.7584,0.0,0.0,0.0,-3.041,-2.9856,-3.0776,0.0,-3.1366,-3.1067,-3.0887,-3.0583,-2.9704,-2.872,-2.8139,-2.6708,-2.4801,-2.2369,0.0,0.0,-1.3107,-1.059,0.0,0.0,0.0,0.0,0.0,0.0,0.0,0.0,0.0,0.0,0.0,0.0,0.0,0.0,0.0,0.0,0.0,0.0,0.0,-1.1415,-1.1893,-1.2523,-1.3199,-1.3793,-1.4104,-1.4104,-1.387,-1.4092,-1.4775,-1.4961,-1.5166,-1.541,-1.541,-1.5547,-1.5821,-1.5743,-1.6064,-1.6738,-1.7434,-1.7712,-1.769,-1.8452,-1.8462,-1.7988,-1.7822,-1.8379,-1.9287,-1.9287,-1.9951,-2.0918,0.0,0.0,-2.8931,-2.9103,-2.9272,-2.9595,-3.0179,-2.9436,-2.8727,0.0,-2.8412,-2.8589,-2.9165,-2.8465,-2.8294,-2.9179,-2.9247,-2.9534,-3.0192,-3.0835,-3.119,-3.119,-3.1921,-3.1981,-3.1302,-3.0648,-2.931,-2.7299,-2.5888,-2.4788,-2.4004,-2.4004,-2.4004,-2.4017,-2.4569,-2.4556,-2.4117,-2.4669,-2.4912,-2.5082,-2.6326,-2.7053,-2.7297,0.0,-2.8371,-2.9918,-2.8785,-2.9167,-3.0006,-2.8903,-2.9688,0.0,0.0,0.0,0.0,0.0,-2.9918,-2.9292,-2.9367,-2.8464,-2.7108,-2.5418,0.0,0.0,-1.5449,-1.2226,-0.9463,0.0,0.0,0.0,0.0,0.0,0.0,0.0,0.0,0.0,0.0,0.0,0.0,0.0,0.0,0.0,0.0,-1.2045,-1.1866,-1.1462,-1.2013,-1.2734,-1.362,-1.3995,-1.4182,-1.4182,-1.4085,-1.427,-1.4775,-1.5107,-1.5284,-1.541,-1.541,-1.541,-1.543,-1.5889,-1.631,-1.6648,-1.7119,-1.7529,-1.7861,-1.7812,-1.7881,-1.7969,-1.7598,-1.8174,-1.9219,-1.9268,-2.0049,-2.1064,-2.5652,-2.6922,-2.7992,-2.7988,-2.9167,-2.9795,-2.8871,-2.9523,-2.9564,-2.8004,-2.7695,-2.8061,-2.9239,-2.9103,-2.9409,-3.0644,-3.0768,-3.0818,-3.097,-3.1123,-3.119,-3.119,-3.1921,-3.1769,-3.0631,-3.0867,-2.9747,-2.7223,-2.6348,-2.5257,-2.4004,-2.4004,-2.4004,-2.4017,-2.4569,-2.4725,-2.4662,-2.5222,-2.498,-2.424,-2.4515,-2.5258,-2.6116,-2.5262,-2.5911,-2.7244,-2.7012,-2.7453,-2.8225,-2.8493,-2.8807,-2.9327,0.0,0.0,0.0,-3.0069,0.0,0.0,0.0,0.0,0.0,0.0,0.0,0.0,-1.8726,-1.6156,-1.3563,0.0,0.0,0.0,0.0,0.0,0.0,0.0,0.0,0.0,0.0,0.0,0.0,0.0,0.0,0.0,0.0,-1.2062,-1.2395,-1.1824,-1.2635,-1.3441,-1.4064,-1.445,-1.4658,-1.4658,-1.3984,-1.4004,-1.4775,-1.4484,-1.4708,-1.541,-1.541,-1.541,-1.543,-1.5889,-1.6144,-1.6251,-1.667,-1.6872,-1.6921,-1.6592,-1.7061,-1.8008,-1.792,-1.8242,-1.8773,-1.916,-1.9668,-2.0235,-2.5485,-2.6408,-2.7229,-2.7637,-2.8138,-2.8449,-2.8285,-2.8311,-2.8278,-2.802,-2.8273,-2.8567,-2.8919,-2.9092,-2.9625,-3.0653,-3.0736,-3.1005,-3.1715,-3.1478,-3.143,-3.1729,-3.1787,-3.1364,-3.0423,-3.0567,-2.9513,-2.7193,-2.672,-2.5933,-2.4795,-2.4795,-2.4657,-2.4443,-2.5272,-2.5335,-2.4838,-2.5686,-2.5745,-2.5217,-2.4632,0.0,-2.5101,-2.4924,-2.5315,-2.6014,-2.6363,-2.6747,-2.7229,-2.8263,-2.8585,0.0,0.0,-2.8862,-2.7815,0.0,-2.8112,-2.6761,0.0,0.0,0.0,-2.6728,0.0,0.0,0.0,-1.9051,-1.6977,-1.4799,0.0,0.0,0.0,0.0,0.0,0.0,0.0,0.0,0.0,0.0,0.0,0.0,0.0,0.0,0.0,-1.1609,-1.2066,-1.2473,-1.307,-1.3714,-1.4428,-1.4658,-1.4883,-1.5088,-1.4473,-1.4453,-1.5088,-1.4883,-1.4962,-1.541,-1.541,-1.541,-1.543,-1.5889,-1.6095,-1.6114,-1.6543,-1.6697,-1.6687,-1.6484,-1.6787,-1.734,-1.734,-1.773,-1.8344,-1.8809,-1.9365,-1.998,-2.5661,-2.626,-2.6844,-2.752,-2.7302,-2.729,-2.7974,-2.7322,-2.7179,-2.8412,-2.9019,-2.916,-2.875,-2.8908,-2.9405,-3.0222,-3.0123,-3.0644,-3.2021,-3.1645,-3.1596,-3.2105,-3.1853,-3.1291,-3.0416,-3.0339,-2.9352,-2.7343,-2.7037,-2.6349,-2.5319,-2.5319,-2.5045,-2.4574,-2.5586,-2.5589,-2.486,-2.5902,-2.6105,-2.5697,0.0,-2.4695,-2.459,-2.4993,-2.5212,-2.5396,-2.5942,-2.6124,-2.6289,-2.7433,-2.7902,-2.8077,-2.8385,-2.7993,0.0,0.0,0.0,0.0,0.0,0.0,0.0,0.0,0.0,-2.483,0.0,0.0,0.0,-1.8924,0.0,0.0,0.0,0.0,0.0,0.0,0.0,0.0,0.0,0.0,0.0,0.0,0.0,0.0,0.0,-1.1294,-1.1897,-1.2877,-1.3484,-1.4029,-1.4549,-1.4872,-1.5186,-1.5527,-1.5049,-1.498,-1.541,-1.5332,-1.5332,-1.541,-1.541,-1.541,-1.543,-1.5889,-1.6046,-1.5987,-1.6406,-1.6521,-1.6443,-1.6443,-1.6443,-1.6473,-1.6726,-1.7243,-1.7949,-1.8422,-1.9085,-1.9805,-2.6285,-2.6851,-2.7228,-2.7321,-2.7855,-2.8151,-2.7743,-2.8256,-2.8812,-2.9158,-2.8904,-2.8869,-2.9326,-2.8886,-2.9039,-3.0208,-2.9805,-3.0047,-3.1331,-3.1424,-3.1402,-3.1402,-3.2524,-3.2282,-3.0439,-3.0842,-3.0035,-2.7902,-2.7238,-2.6023,-2.4369,-2.4369,-2.4026,-2.3505,-2.4167,-2.4612,-2.4835,-2.5434,-2.4703,0.0,-2.4331,-2.5053,0.0,-2.4506,-2.4559,-2.509,-2.4819,-2.4716,-2.4756,0.0,-2.5408,-2.6239,0.0,-2.7695,-2.7063,-2.894,0.0,0.0,0.0,0.0,0.0,0.0,-2.6019,0.0,0.0,0.0,-2.3251,-2.206,0.0,0.0,0.0,0.0,0.0,0.0,0.0,0.0,0.0,0.0,0.0,0.0,0.0,0.0,0.0,0.0,-1.3061,-1.2429,-1.4135,-1.489,-1.4205,-1.529,-1.5968,-1.6016,-1.5234,-1.498,-1.541,-1.5039,-1.5039,-1.541,-1.541,-1.541,-1.543,-1.5889,-1.588,-1.5508,-1.5977,-1.5918,-1.5566,-1.5566,-1.5566,-1.5674,-1.6855,-1.7373,-1.7549,-1.8315,-1.8945,-1.9414,-2.6449,-2.6939,-2.7281,-2.7281,-2.784,-2.7985,-2.7114,-2.7703,-2.8216,-2.8094,-2.8541,-2.9055,-2.9505,-2.9285,-2.9278,-2.9783,-2.9974,-3.0442,0.0,-3.1879,-3.2474,-3.3179,-3.3769,-3.3334,-3.1702,-3.1851,-3.0655,-2.8013,-2.8075,-2.6934,-2.4648,-2.4648,-2.4164,-2.3309,-2.3663,-2.3852,-2.3962,-2.4267,-2.393,0.0,0.0,0.0,0.0,-2.4315,-2.4367,-2.4612,-2.4438,-2.4376,-2.446,0.0,-2.5214,0.0,0.0,0.0,0.0,0.0,0.0,0.0,0.0,0.0,0.0,0.0,0.0,0.0,-2.6466,0.0,-2.6626,0.0,0.0,0.0,0.0,0.0,0.0,0.0,-1.8465,0.0,0.0,0.0,0.0,0.0,0.0,0.0,0.0,0.0,0.0,0.0,0.0,-1.501,-1.463,-1.5556,-1.6095,-1.6095,-1.5469,-1.5234,-1.541,-1.5234,-1.5234,-1.541,-1.541,-1.541,-1.542,-1.5596,-1.5586,-1.542,-1.5605,-1.5586,-1.541,-1.541,-1.5557,-1.5899,-1.6689,-1.7002,-1.7109,-1.7925,-1.8701,-1.9307,-2.6688,-2.7165,-2.7557,-2.7708,-2.8059,-2.8009,-2.709,-2.7627,-2.804,-2.76,-2.8558,-2.9312,-2.9479,-2.9282,-2.9286,-2.9738,-2.9904,-3.0339,0.0,0.0,-3.301,-3.372,-3.4671,0.0,-3.2608,-3.2901,-3.1512,-2.8278,-2.875,-2.7492,-2.46,-2.46,-2.3922,-2.2746,-2.2953,-2.3003,-2.2929,-2.3294,-2.3069,-2.2574,-2.3292,-2.3589,-2.3604,-2.4035,-2.4116,-2.3933,-2.365,-2.3636,-2.3801,-2.4036,-2.4354,0.0,-2.5264,0.0,0.0,0.0,0.0,0.0,-2.6225,0.0,0.0,0.0,0.0,0.0,0.0,0.0,0.0,0.0,0.0,0.0,0.0,0.0,0.0,-2.3567,0.0,-2.0537,0.0,0.0,0.0,0.0,0.0,0.0,0.0,0.0,0.0,0.0,0.0,0.0,-1.5185,-1.6083,-1.6525,-1.6281,-1.5937,-1.5625,-1.541,-1.5527,-1.5527,-1.541,-1.541,-1.541,-1.541,-1.541,-1.541,-1.541,-1.541,-1.541,-1.541,-1.541,-1.5664,-1.6134,-1.6531,-1.6775,-1.697,-1.7734,-1.8555,-1.9287,-2.719,-2.7708,-2.8247,-2.875,-2.885,-2.8675,-2.8134,-2.8802,-2.914,-2.8554,-2.916,-2.9581,0.0,0.0,0.0,0.0,0.0,-2.9176,-3.0459,0.0,-3.2295,0.0,0.0,-3.5397,0.0,-3.3886,-3.2788,-2.8975,-2.8989,-2.7121,-2.3562,-2.3562,-2.2735,-2.1311,-2.1771,-2.1951,-2.1983,-2.2912,-2.2025,-2.0155,-2.1526,-2.2042,-2.2133,0.0,-2.3658,-2.2987,-2.1948,0.0,0.0,-2.1186,-2.1663,0.0,0.0,0.0,0.0,0.0,0.0,0.0,0.0,0.0,0.0,-2.6243,0.0,0.0,0.0,0.0,-2.7973,0.0,0.0,0.0,0.0,0.0,-2.9161,-2.7742,-2.6806,0.0,0.0,0.0,0.0,0.0,0.0,0.0,0.0,0.0,0.0,0.0,0.0,0.0,-1.5622,-1.7081,-1.7535,-1.6707,-1.6668,-1.6248,-1.542,-1.586,-1.586,-1.541,-1.541,-1.541,-1.541,-1.541,-1.541,-1.541,-1.541,-1.541,-1.541,-1.541,-1.5664,-1.6134,-1.6531,-1.6992,-1.7422,-1.7852,-1.8555,-1.9287,-2.826,-2.8487,-2.8675,-2.8863,-2.9252,-2.9315,-2.8737,-2.8896,-2.8929,0.0,-2.8703,0.0,0.0,-2.8578,-2.8453,0.0,0.0,-2.8967,-2.9853,-3.1647,0.0,0.0,0.0,-3.6555,0.0,0.0,-3.3042,-2.9657,-2.923,-2.7642,-2.4983,-2.3965,-2.321,-2.2653,-2.1526,-2.1035,-2.1075,-2.1401,-2.0732,0.0,0.0,-2.114,-2.1963,0.0,0.0,-2.3058,-2.2681,-2.246,0.0,-2.1882,-2.1815,-2.1953,-2.2443,-2.2777,-2.3185,-2.4369,-2.4534,0.0,0.0,0.0,-2.4709,-2.5158,0.0,0.0,0.0,0.0,0.0,0.0,0.0,0.0,0.0,0.0,-2.9969,-2.9848,-2.8564,-2.7299,0.0,0.0,0.0,0.0,0.0,0.0,0.0,0.0,0.0,0.0,0.0,0.0,0.0,-1.7229,-1.7754,-1.7178,-1.6853,-1.6445,-1.588,-1.6016,-1.587,-1.541,-1.541,-1.541,-1.541,-1.541,-1.541,-1.541,-1.541,-1.541,-1.543,-1.5723,-1.6103,-1.6553,-1.6992,-1.7422,-1.7812,-1.7959,-1.8555,-1.9365,-2.8787,-2.8888,-2.8963,-2.9202,-2.9541,-2.9666,-2.9289,-2.9239,0.0,0.0,-2.8501,0.0,-2.8536,0.0,-2.7952,0.0,-2.8534,-2.8887,-2.9788,-3.1628,0.0,-3.3926,-3.5948,0.0,0.0,0.0,0.0,-3.0455,-2.9901,-2.8385,-2.5936,-2.4455,-2.3492,-2.2909,-2.147,-2.0713,-2.0615,-2.0732,-2.0303,0.0,0.0,-2.0331,0.0,0.0,-2.2125,-2.3083,0.0,-2.2581,-2.2246,-2.1857,-2.1493,-2.1264,-2.1534,-2.1589,-2.1826,-2.2987,-2.3479,-2.3727,-2.4162,-2.4431,0.0,-2.4903,-2.5615,0.0,-2.7319,0.0,0.0,0.0,0.0,0.0,0.0,0.0,-3.0108,-3.0535,-2.9587,-2.8947,0.0,-2.7914,0.0,0.0,0.0,0.0,0.0,0.0,0.0,0.0,-1.6923,0.0,0.0,0.0,-1.8203,-1.7627,-1.7334,-1.6904,-1.6309,-1.6299,-1.6074,-1.5644,-1.5488,-1.541,-1.541,-1.541,-1.541,-1.541,-1.541,-1.541,-1.543,-1.5743,-1.6191,-1.6726,-1.7041,-1.75,-1.8008,-1.8008,-1.8555,-1.9404,-2.8825,-2.8888,-2.9038,-2.9651,-2.9727,0.0,0.0,0.0,-2.9263,0.0,-2.8462,-2.8453,-2.7681,-2.7,-2.7227,-2.8683,-2.8461,-2.8814,-3.0083,-3.1543,0.0,0.0,-3.4507,-3.5019,-3.3627,0.0,0.0,0.0,-3.0945,-2.9282,-2.638,-2.4958,-2.3497,-2.2122,-2.148,-2.0957,-2.0605,-2.1016,-2.0664,-1.9834,-1.8939,-1.9603,-2.1086,-2.0684,-2.1573,-2.2972,-2.2506,-2.2322,-2.2108,-2.1081,-2.0691,-2.0553,-1.9974,-1.9798,-1.9927,-2.0597,-2.121,-2.1953,-2.3297,-2.4059,-2.4664,-2.5322,0.0,0.0,0.0,0.0,-2.6694,0.0,0.0,0.0,0.0,0.0,0.0,-2.998,-3.0095,-3.0418,-3.1133,0.0,0.0,0.0,0.0,0.0,0.0,0.0,-1.7854,-1.7854,-1.8542,-1.8768,0.0,0.0,-1.8926,-1.8066,-1.8018,-1.7574,-1.6746,-1.6716,-1.6514,-1.6085,-1.5615,-1.541,-1.541,-1.541,-1.541,-1.541,-1.541,-1.541,-1.541,-1.5439,-1.5917,-1.6697,-1.6726,-1.7262,-1.8047,-1.8066,-1.8594,-1.9404,-2.9541,-2.8897,-2.8469,0.0,-2.8783,-2.8806,0.0,0.0,0.0,0.0,-2.714,-2.6383,-2.616,-2.5753,-2.5669,-2.6072,-2.6152,0.0,0.0,0.0,0.0,-3.1078,-3.3581,-3.4524,-3.3612,-3.4991,0.0,-3.1751,0.0,-2.9516,-2.8186,-2.5121,-2.3966,-2.4255,-2.1841,-2.0488,-2.0107,-2.0547,-2.042,-1.9834,-1.8939,-1.9277,0.0,0.0,-2.0719,-2.2267,-2.2722,-2.2397,-2.1656,-2.1408,-2.0715,-1.9999,-1.9849,-1.9798,-1.9927,-2.0597,-2.0919,-2.1323,-2.2605,-2.3053,-2.3338,-2.3963,-2.4866,-2.5571,0.0,0.0,0.0,0.0,0.0,0.0,0.0,0.0,0.0,-2.9984,-3.0616,-3.0804,0.0,0.0,0.0,-2.8967,0.0,0.0,0.0,-1.9856,-1.885,-1.8696,-1.8662,-1.8547,0.0,0.0,0.0,-1.8461,-1.8174,-1.7754,-1.7227,-1.6863,-1.6514,-1.6085,-1.5615,-1.541,-1.541,-1.541,-1.541,-1.541,-1.541,-1.541,-1.5439,-1.5791,-1.6221,-1.6726,-1.709,-1.7734,-1.8481,-1.8838,-1.9102,-1.9404,-3.0105,-2.9394,0.0,-2.8154,0.0,0.0,-2.8464,-2.7806,0.0,-2.77,-2.6919,0.0,-2.6029,-2.5186,-2.4705,-2.495,-2.5186,0.0,-2.7233,0.0,0.0,-2.9997,-3.1863,-3.2819,-3.2731,-3.4038,0.0,-3.2605,0.0,-3.0004,-2.931,-2.6287,-2.472,-2.4392,-2.2631,-2.134,-2.0508,-2.0752,-2.0605,-2.0127,-1.9268,0.0,0.0,-1.9517,-2.0139,-2.1361,-2.1604,-2.1602,-2.1455,-2.1232,-2.0539,-1.9798,-1.9798,-1.9798,-1.9875,-2.0245,-2.0572,-2.0968,-2.168,-2.2267,-2.2717,-2.2756,-2.3754,-2.4634,-2.4294,-2.4408,-2.4785,0.0,0.0,0.0,0.0,0.0,0.0,-2.9969,0.0,0.0,0.0,0.0,0.0,0.0,-2.79,0.0,0.0,-2.114,-1.9527,-2.0246,-1.9554,0.0,0.0,0.0,0.0,-1.8945,-1.8471,-1.8086,-1.7666,-1.7412,-1.6973,-1.6357,-1.5908,-1.5596,-1.541,-1.541,-1.541,-1.541,-1.541,-1.541,-1.543,-1.5684,-1.6152,-1.6765,-1.7412,-1.8057,-1.8656,-1.9131,-1.9404,-1.9687,-3.0155,-2.9611,0.0,0.0,0.0,0.0,0.0,-2.7092,0.0,-2.7142,0.0,-2.6408,-2.6152,-2.4691,-2.391,-2.4396,0.0,-2.5427,-2.6645,-2.6832,-2.7505,-2.8828,-2.9768,-3.0573,-3.1303,-3.2686,-3.3344,0.0,0.0,-3.0518,-2.9927,-2.7588,-2.552,-2.3802,-2.3459,-2.249,-2.1103,-2.1103,-2.0889,-2.0449,-1.9646,-1.9709,-2.0249,-1.9432,-1.965,-2.0363,-1.9894,-2.0351,-2.1113,-2.0705,-2.0143,-1.9669,-1.9773,-1.9798,-1.9798,-1.9798,-2.0194,-2.0696,-2.0771,-2.1609,-2.2337,-2.1828,-2.2606,-2.3467,-2.3455,-2.3902,-2.4335,-2.4252,-2.4758,-2.4901,0.0,0.0,0.0,0.0,0.0,0.0,0.0,0.0,0.0,0.0,0.0,0.0,0.0,0.0,-2.0437,-2.1996,-2.0949,0.0,0.0,0.0,0.0,-1.9307,-1.8822,0.0,-1.8096,0.0,-1.7549,-1.6775,-1.6339,-1.586,-1.541,-1.541,-1.541,-1.541,-1.541,-1.541,-1.5391,-1.5469,-1.6016,-1.6863,-1.7695,-1.8266,-1.8734,-1.915,-1.959,-2.0117,-2.8417,0.0,0.0,0.0,0.0,-2.3712,-2.4291,-2.3877,-2.409,-2.5836,-2.3858,-2.2735,-2.3903,-2.2955,-2.2318,-2.2402,-2.307,0.0,0.0,0.0,0.0,-2.6064,-2.7888,-2.9162,-2.9868,-3.177,-3.2499,0.0,0.0,-3.0487,-2.9781,-2.7164,-2.5753,-2.5296,-2.3212,-2.1673,-2.0723,-2.0723,0.0,-1.999,-1.9492,-1.917,-1.8893,-1.8424,-1.8754,-1.9466,-1.8934,-1.9078,-1.9534,-1.9729,-1.9384,-1.9006,-1.9618,-1.9798,-1.9798,-1.9798,-1.9875,-2.0105,-2.066,-2.0968,-2.1224,-2.1615,-2.2285,-2.2709,-2.218,-2.2562,-2.2875,-2.2325,-2.274,-2.331,-2.3624,0.0,0.0,0.0,0.0,0.0,0.0,0.0,0.0,0.0,0.0,0.0,0.0,0.0,0.0,0.0,0.0,0.0,0.0,0.0,0.0,0.0,0.0,0.0,0.0,0.0,-1.7422,-1.7256,-1.6486,-1.586,-1.541,-1.541,-1.541,-1.541,-1.541,-1.541,-1.5439,-1.5831,-1.6506,-1.7314,-1.7812,-1.8486,-1.918,-1.9258,-1.9822,-2.0566,-2.742,0.0,0.0,0.0,0.0,0.0,0.0,-2.2451,0.0,-2.4115,-2.2989,-2.2278,-2.2764,-2.1872,-2.1396,-2.1846,-2.2249,-2.2811,-2.3619,-2.3679,-2.4161,-2.521,-2.6537,0.0,-2.8713,-3.0046,-3.091,-3.1232,0.0,-2.9772,-3.0094,-2.8275,-2.6693,-2.5267,-2.2736,-2.149,0.0,0.0,0.0,-1.9883,-1.9453,-1.9023,-1.8559,-1.813,-1.8269,-1.8529,-1.7829,-1.7687,-1.7973,-1.8685,-1.8578,-1.8259,-1.9006,-1.9228,-1.9307,-1.9695,-1.9798,-1.9875,-2.0207,-2.0535,-2.0795,-2.0744,-2.1448,-2.2007,-2.1366,-2.1724,-2.21,-2.1781,-2.1946,-2.2484,-2.3515,-2.4422,0.0,0.0,0.0,0.0,0.0,0.0,0.0,0.0,0.0,0.0,0.0,0.0,0.0,0.0,0.0,0.0,0.0,0.0,0.0,0.0,0.0,0.0,0.0,0.0,0.0,-1.7373,-1.6985,-1.6523,-1.6063,-1.5859,-1.5752,-1.5732,-1.5508,-1.5537,-1.5831,-1.6506,-1.7034,-1.7451,-1.8086,-1.873,-1.9316,-1.9531,-2.0019,-2.0703,0.0,-2.6641,0.0,0.0,-2.4189,0.0,-2.2227,-2.1865,-2.1939,-2.2531,-2.2315,-2.2039,-2.1786,-2.0886,-2.059,-2.1302,-2.169,-2.2168,-2.2793,-2.3017,-2.3568,-2.4623,-2.5458,-2.6426,-2.7561,-2.8381,-2.9238,0.0,0.0,0.0,-2.9548,-2.8875,-2.7045,-2.4282,0.0,0.0,0.0,0.0,-2.0302,-1.9756,-1.9424,-1.8975,-1.8432,-1.8135,-1.8008,-1.792,-1.7213,-1.6853,-1.6827,-1.7673,-1.7711,-1.7523,-1.8421,-1.8688,-1.8847,-1.9579,-1.9798,-1.9798,-1.9798,-2.0207,-2.0446,-1.9927,-2.0657,-2.1366,-2.0733,-2.1064,-2.1472,-2.1328,-2.1424,-2.1904,-2.3241,-2.3326,0.0,0.0,0.0,0.0,0.0,0.0,0.0,0.0,0.0,0.0,0.0,0.0,0.0,0.0,0.0,0.0,0.0,0.0,0.0,0.0,0.0,-1.9258,-1.887,0.0,-1.813,0.0,-1.7422,-1.7148,-1.6687,-1.6269,-1.6095,-1.6065,-1.5596,-1.5713,-1.63,-1.7093,-1.7432,-1.7588,-1.8315,-1.8906,-1.9336,-1.9756,-2.0244,-2.086,0.0,0.0,0.0,0.0,0.0,0.0,-2.248,-2.1756,-2.1332,-2.1533,-2.0419,-1.9808,-2.0244,-1.976,-1.9464,-1.9529,-2.0974,-2.1939,-2.2002,-2.2702,-2.3163,-2.3291,-2.4507,-2.5536,-2.6259,-2.7485,-2.808,0.0,0.0,0.0,0.0,-2.7263,0.0,0.0,0.0,0.0,0.0,-2.043,-2.0136,-1.9346,-1.9307,-1.8799,-1.8066,-1.8027,-1.8008,-1.7998,-1.792,-1.736,-1.6728,-1.6837,-1.6728,-1.6849,-1.8259,-1.8688,-1.8847,-1.9579,-1.9798,-1.9798,-1.9798,-1.985,-1.9875,-1.9837,-2.0346,-2.0721,-2.0055,-2.0421,-2.0721,-2.0093,-2.0472,-2.1289,-2.2564,-2.2294,-2.2322,0.0,0.0,0.0,0.0,0.0,0.0,0.0,0.0,0.0,0.0,0.0,0.0,0.0,0.0,0.0,0.0,0.0,0.0,-2.0556,0.0,-1.9834,-1.9795,-1.8617,0.0,-1.7949,-1.7568,-1.7148,-1.6687,-1.6269,-1.6095,-1.6065,-1.5596,-1.5859,-1.6677,-1.7187,-1.7607,-1.7998,-1.8422,-1.8906,-1.9336,-1.9756,-2.0449,-2.124,0.0,0.0,0.0,0.0,0.0,0.0,0.0,-2.1846,-2.1371,-2.0614,-1.9799,-1.9167,-1.8871,-1.8664,-1.8721,-1.9233,-1.9944,-2.0558,-2.1101,-2.1416,-2.1745,-2.2051,-2.2591,-2.3288,-2.4165,-2.4661,-2.5198,0.0,0.0,0.0,0.0,0.0,0.0,0.0,0.0,-2.0947,-2.0644,-2.0322,-1.9834,-1.9287,-1.9287,-1.8779,-1.8008,-1.8008,-1.8008,-1.7939,-1.7399,-1.6989,-1.6619,-1.6093,-1.5881,-1.6036,-1.7052,-1.7688,-1.8167,-1.8927,-1.9449,-1.9798,-1.9798,-1.9798,-1.9798,-1.9798,-2.0003,-2.0131,-1.985,-2.0003,-2.0131,-1.985,-2.0003,-2.0486,-2.1385,-2.1307,-2.1387,0.0,0.0,0.0,0.0,0.0,0.0,0.0,0.0,0.0,0.0,0.0,0.0,0.0,0.0,0.0,0.0,0.0,0.0,-2.1388,0.0,-1.9358,-1.9902,-1.8652,-1.8008,-1.8008,-1.7842,-1.7666,-1.748,-1.7051,-1.675,-1.6475,-1.6562,-1.6797,-1.7158,-1.7588,-1.8008,-1.8393,-1.8857,-1.9287,-1.9746,-2.0449,-2.0888,-2.1298,-2.4258,0.0,-2.4092,0.0,-2.3398,-2.293,-2.2021,-2.167,-2.1113,-2.0049,-1.9551,-1.9004,-1.8271,-1.8086,-1.8236,-1.8844,-1.9144,-1.9562,-2.0171,-2.0462,-2.078,-2.116,-2.1419,0.0,-2.2632,-2.2936,-2.3315,-2.3817,-2.4467,0.0,0.0,0.0,0.0,0.0,-2.1352,-2.0791,-2.0781,-2.0312,-1.9785,-1.9287,-1.9287,-1.8779,-1.8008,-1.8008,-1.8008,-1.793,-1.7291,-1.6911,-1.6609,-1.5976,-1.5625,-1.5526,-1.6265,-1.7006,-1.7731,-1.8474,-1.9228,-1.9798,-1.9798,-1.9798,-1.9798,-1.9798,-1.9798,-1.9798,-1.9798,-1.9798,-1.9798,-1.9798,-1.9798,-1.9952,-2.0421,-2.0463,-2.0654,-2.1295,0.0,0.0,0.0,0.0,0.0,0.0,-2.2973,-2.3281,-2.2227,0.0,0.0,0.0,0.0,0.0,0.0,0.0,0.0,0.0,0.0,0.0,0.0,-1.8584,-1.8008,-1.8008,-1.8008,-1.8008,-1.7998,-1.7578,-1.7148,-1.6726,-1.7197,-1.7383,-1.7422,-1.7969,-1.8334,-1.8656,-1.9258,-1.9648,-2.0019,-2.0869,-2.1278,-2.1533,-2.3887,-2.3799,-2.3662,-2.3179,-2.2461,-2.1904,-2.1885,-2.1182,-2.042,-1.9971,-1.9551,-1.9121,-1.8637,-1.8227,-1.8008,-1.8008,-1.8821,-1.9299,-1.9299,-2.0107,-2.059,0.0,0.0,-2.2001,-2.2012,-2.2963,-2.3243,-2.2726,0.0,0.0,-2.1939,0.0,-2.1466,-2.0635,-2.1035,-2.0703,-1.9961,-2.0381,-2.0106,-1.9287,-1.9287,-1.8779,-1.8008,-1.8008,-1.8008,-1.8008,-1.7998,-1.7418,-1.6697,-1.6687,-1.6102,-1.5526,-1.6265,-1.7006,-1.7731,-1.8474,-1.9228,-1.9798,-1.9798,-1.9798,-1.9798,-1.9798,-1.9798,-1.9798,-1.9798,-1.9798,-1.9798,-1.9798,-1.9798,-1.9798,-1.9798,-1.9811,-2.0025,-2.0618,0.0,0.0,0.0,0.0,0.0,0.0,-2.4572,-2.4848,-2.1807,0.0,0.0,0.0,0.0,0.0,0.0,0.0,0.0,-2.0673,-2.0137,0.0,-1.9297,-1.8437,-1.8008,-1.8008,-1.8008,-1.8008,-1.7998,-1.7578,-1.7148,-1.6726,-1.7197,-1.7383,-1.7451,-1.8247,-1.8598,-1.8685,-1.9533,-1.9912,-2.0019,-2.0869,-2.1504,-2.1934,-2.3335,-2.3305,-2.3257,-2.312,-2.2643,-2.2217,-2.1934,-2.1396,-2.0859,-2.041,-1.998,-1.9658,-1.9485,-1.8613,-1.8008,0.0,-1.8269,-1.8395,0.0,-1.8654,-1.8821,-1.8821,-1.9373,-1.9833,-2.014,-2.0722,-2.1111,-2.1285,0.0,0.0,0.0,-2.1419,-2.1133,-2.0615,-2.0713,-2.0459,-1.9922,-2.0059,-1.9629,-1.8812,-1.8812,-1.8471,-1.8008,-1.8008,-1.8008,-1.7969,-1.7686,-1.7217,-1.6658,-1.6377,-1.5889,-1.5439,-1.569,-1.6255,-1.6894,-1.7146,-1.7715,-1.8313,-1.8313,-1.8661,-1.9044,-1.9044,-1.9423,-1.9798,-1.9798,-1.9798,-1.9798,-1.9798,-1.9798,-1.9798,-1.9798,-1.9397,-1.9289,-1.9959,-1.9679,0.0,0.0,0.0,0.0,0.0,-2.1428,-2.1929,0.0,-2.1637,0.0,0.0,0.0,0.0,0.0,0.0,0.0,0.0,-1.9463,0.0,-1.9287,-1.8437,-1.7681,-1.7035,-1.7035,-1.6715,-1.6123,-1.6622,-1.6767,-1.6689,-1.7466,-1.7978,-1.8227,-1.849,-1.916,-1.998,-2.0254,-2.0723,-2.1328,-2.1894,-2.2197,-2.2373,-2.3091,-2.3091,-2.3042,-2.2886,-2.2559,-2.2139,-2.1709,-2.1269,-2.0879,-2.0644,-2.0185,-1.9912,-1.9912,-1.9062,0.0,-1.8496,-1.834,-1.8242,-1.8242,-1.8096,-1.8008,-1.8008,-1.8383,-1.8734,-1.9043,0.0,0.0,-2.0322,-2.0771,-2.0986,-2.0986,-2.0986,-2.0742,-2.0322,-2.0322,-2.0078,-1.9678,-1.9678,-1.9277,-1.8598,-1.8598,-1.8354,-1.8008,-1.8008,-1.8008,-1.7978,-1.7715,-1.7236,-1.6687,-1.6602,-1.6183,-1.5654,-1.5654,-1.5969,-1.6376,-1.6477,-1.7034,-1.7605,-1.7605,-1.7934,-1.8286,-1.8286,-1.8635,-1.9044,-1.9307,-1.9605,-1.9798,-1.9798,-1.9798,-1.9798,-1.9798,-1.9202,-1.8847,-1.9307,-1.8768,-1.8286,-1.8286,0.0,0.0,0.0,0.0,0.0,0.0,-2.0345,0.0,0.0,0.0,0.0,0.0,0.0,0.0,-2.0488,-1.9033,0.0,-1.8809,-1.8281,-1.7459,-1.641,-1.6058,-1.5652,-1.5234,-1.6175,-1.6602,-1.6636,-1.7569,-1.8217,-1.8617,-1.8783,-1.9541,-2.0625,-2.0752,-2.126,-2.1934,-2.2353,-2.251,-2.2578,-2.3091,-2.3091,0.0,0.0,-2.2168,0.0,-2.1259,-2.0859,-2.0605,-2.0605,-2.0215,-1.9961,-1.9961,-1.9609,-1.9375,-1.9375,0.0,0.0,0.0,-1.8208,-1.8008,-1.8008,-1.8383,-1.8598,-1.8598,-1.9436,-1.9932,-1.9961,-2.0332,-2.0556,-2.0556,-2.0556,-2.0283,-1.9873,-1.9873,-1.9639,-1.9238,-1.9238,-1.8994,-1.8559,-1.8559,-1.8325,-1.8008,-1.8008,-1.8008,-1.8008,-1.8008,-1.7447,-1.6804,-1.7246,-1.6848,-1.6134,-1.6105,-1.6095,-1.6157,-1.637,-1.6922,-1.7468,-1.7468,-1.7495,-1.7523,-1.7523,-1.755,-1.7797,-1.8528,-1.9228,-1.9747,-1.9798,-1.9798,-1.9798,-1.9798,-1.915,-1.8635,-1.8688,-1.8031,-1.7523,-1.7523,0.0,0.0,0.0,0.0,0.0,0.0,-1.9603,-1.9104,0.0,0.0,0.0,0.0,0.0,-2.16,-1.9363,-1.8838,-1.8373,-1.8018,-1.8008,-1.7378,-1.6108,-1.5197,-1.4902,-1.5234,-1.6175,-1.6602,-1.6636,-1.7608,-1.8256,-1.8676,-1.915,-1.9853,-2.0732,-2.1113,-2.1562,-2.2021,-2.2412,-2.2559,-2.2607,0.0,0.0,-2.2964,-2.2588,-2.2168,-2.1738,-2.1259,-2.0859,-2.0605,-2.0605,-2.0517,-2.0449,-2.0449,-2.0361,-2.0302,-2.0302,-1.9268,-1.8598,-1.8598,-1.8208,-1.8008,-1.8008,-1.8383,-1.8598,-1.8598,-1.9436,-2.0078,-2.0449,-2.0185,-2.0068,-2.0068,-2.0068,-1.9844,-1.9434,-1.9434,-1.9199,-1.8754,-1.8754,-1.851,-1.812,-1.812,-1.8061,-1.8008,-1.8008,-1.8008,-1.8008,-1.8008,-1.7676,-1.7246,-1.7344,-1.7021,-1.6514,-1.6202,-1.6095,-1.6037,-1.5742,-1.5767,-1.5911,-1.5911,-1.633,-1.6765,-1.6765,-1.7191,-1.7797,-1.8528,-1.8847,-1.9123,-1.9683,-1.9798,-1.9798,-1.9798,-1.8741,-1.8031,-1.8608,-1.7605,-1.6765,-1.6765,-1.7705,0.0,0.0,-1.8759,-1.9337,-1.8845,-1.8425,-1.8276,0.0,0.0,0.0,0.0,-1.9829,-1.9885,-1.9333,-1.8555,-1.8115,-1.8008,-1.8008,-1.7487,-1.6457,-1.5521,-1.5116,-1.5234,-1.6175,-1.6602,-1.6689,-1.7903,-1.874,-1.917,-1.959,-2.0478,-2.1582,-2.1689,-2.2187,-2.2808,-2.2916,-2.2945,-2.2955,-2.3091,-2.3091,-2.2964,-2.2588,-2.2324,-2.2031,-2.1602,-2.1162,-2.0869,-2.0869,-2.0693,-2.0605,-2.0605,-2.0605,-2.0605,-2.0605,-1.9736,-1.9,-1.8469,-1.8533,-1.8286,-1.7551,-1.8225,-1.851,-1.8315,-1.8958,-1.9551,-2.0018,-1.9746,-1.9629,-1.9629,-1.9629,-1.9394,-1.8994,-1.8994,-1.875,-1.8315,-1.8315,-1.8188,-1.8008,-1.8008,-1.8008,-1.8008,-1.8008,-1.8008,-1.8008,-1.8008,-1.7744,-1.7445,-1.7607,-1.7383,-1.6992,-1.677,-1.6564,-1.6279,-1.584,-1.5566,-1.541,-1.541,-1.569,-1.6007,-1.6007,-1.6557,-1.7191,-1.7605,-1.7961,-1.8301,-1.8715,-1.9071,-1.9293,-1.9293,-1.8526,-1.7985,-1.8159,-1.7277,-1.6526,-1.6342,-1.7341,0.0,-1.7053,-1.8109,-1.8662,-1.8124,-1.7918,-1.7989,-1.8447,0.0,0.0,-1.8965,-1.8994,-1.8994,-1.8994,-1.835,-1.8008,-1.8008,-1.7422,-1.6952,-1.6593,-1.5479,-1.5033,-1.5234,-1.6175,-1.6701,-1.6935,-1.8094,-1.8958,-1.959,-1.9814,-2.0693,-2.1885,-2.1885,-2.2402,-2.3091,-2.3091,-2.3091,-2.3091,-2.3091,-2.3091,-2.2964,-2.2588,-2.251,-2.2373,-2.1953,-2.1572,-2.1268,-2.12,-2.0908,-2.0674,-2.0615,-2.0605,-2.0605,-2.0605,-2.011,-1.9354,-1.8362,-1.8853,-1.8535,-1.7054,-1.8022,-1.8432,-1.8115,-1.8481,-1.8909,-1.9385,-1.9316,-1.9248,-1.9189,-1.9189,-1.8955,-1.851,-1.851,-1.8315,-1.8008,-1.8008,-1.8008,-1.8008,-1.8008,-1.8008,-1.8008,-1.8008,-1.8008,-1.8008,-1.8008,-1.7783,-1.7529,-1.7891,-1.7773,-1.7471,-1.7402,-1.7129,-1.6697,-1.6242,-1.5831,-1.5498,-1.543,-1.541,-1.541,-1.541,-1.5864,-1.635,-1.6464,-1.6978,-1.7468,-1.7578,-1.8154,-1.8646,-1.8646,-1.8402,-1.8114,-1.78,-1.7162,-1.6621,-1.6339,0.0,-1.7491,-1.677,-1.7916,-1.848,-1.7719,-1.774,-1.7956,-1.8308,-1.8122,-1.8164,0.0,-1.851,-1.851,-1.851,-1.8159,-1.8008,-1.8008,-1.6929,-1.6539,-1.681,-1.5712,-1.5351,-1.5658,-1.6525,-1.7102,-1.7477,-1.8404,-1.9202,-1.9922,-2.0059,-2.081,-2.1894,-2.1953,-2.2461,-2.3091,-2.3091,-2.3091,-2.3091,-2.3091,-2.3091,-2.2964,-2.2588,-2.251,-2.2373,-2.1953,-2.1826,-2.165,-2.1239,-2.1132,-2.0986,-2.0644,-2.0605,-2.0605,-2.0605,-1.97,-1.8879,-1.835,-1.8578,-1.8195,-1.7036,-1.8022,-1.8568,-1.851,-1.8965,-1.9394,-1.9814,-1.9463,-1.9102,-1.8705,-1.8705,-1.8481,-1.8105,-1.8105,-1.8076,-1.8008,-1.8008,-1.8008,-1.8008,-1.8008,-1.8008,-1.8008,-1.8008,-1.8008,-1.8008,-1.8008,-1.7969,-1.793,-1.7988,-1.7969,-1.7852,-1.75,-1.7334,-1.7119,-1.633,-1.6046,-1.5909,-1.5508,-1.541,-1.541,-1.541,-1.5497,-1.5719,-1.635,-1.6606,-1.6849,-1.7468,-1.8025,-1.8346,-1.8346,-1.8107,-1.7975,-1.8301,-1.7425,-1.6804,-1.7139,0.0,-1.7268,-1.6777,-1.755,-1.7807,-1.6945,-1.7537,-1.7852,-1.7589,-1.7841,-1.8037,-1.8105,-1.8105,-1.8105,-1.8105,-1.8047,-1.8008,-1.8008,-1.7794,-1.7726,-1.7794,-1.758,-1.7522,-1.7588,-1.8081,-1.8318,-1.8424,-1.9331,-1.9757,-1.9971,-2.0683,-2.1367,-2.1924,-2.2275,-2.2672,-2.3091,-2.3091,-2.3091,-2.3091,-2.3091,-2.3091,-2.3033,-2.2838,-2.2808,-2.274,-2.2588,-2.2373,-2.207,-2.1641,-2.1346,-2.1064,-2.0654,-2.0605,-2.0605,-2.0605,-2.0167,-1.9515,-1.8735,-1.8765,-1.8461,-1.7708,-1.872,-1.9182,-1.8994,-1.9189,-1.9268,-1.9192,-1.8997,-1.8721,-1.8266,-1.8266,-1.8159,-1.8008,-1.8008,-1.8008,-1.8008,-1.8008,-1.8008,-1.8008,-1.8008,-1.8008,-1.8008,-1.8008,-1.8008,-1.8008,-1.8008,-1.8008,-1.8008,-1.8008,-1.8008,-1.7978,-1.7783,-1.7568,-1.7337,-1.6926,-1.63,-1.5664,-1.5469,-1.541,-1.541,-1.541,-1.541,-1.5497,-1.5835,-1.5921,-1.6007,-1.633,-1.7098,-1.7701,-1.7701,-1.7961,-1.8155,-1.8124,-1.7712,0.0,0.0,-1.7578,-1.7559,-1.7139,-1.7432,-1.7519,-1.7119,-1.7441,-1.7686,-1.7715,-1.79,-1.8008,-1.8008,-1.8008,-1.8008,-1.8008,-1.8008,-1.8008,-1.8008,-1.8008,-1.8008,-1.8008,-1.8008,-1.8008,-1.8027,-1.8412,-1.8734,-1.9023,-1.9639,-2.0185,-2.0615,-2.1025,-2.158,-2.2246,-2.2441,-2.2773,-2.3091,-2.3091,-2.3091,-2.3091,-2.3091,-2.3091,-2.3091,-2.3091,-2.3091,-2.3091,-2.3091,-2.2783,-2.2363,-2.1943,-2.1504,-2.1064,-2.0654,-2.0605,-2.0605,-2.0605,-2.0362,-1.9962,-1.9402,-1.9155,-1.8777,-1.8341,-1.9336,-1.9814,-1.9627,-1.9482,-1.9219,-1.8754,-1.8646,-1.8383,-1.8008,-1.8008,-1.8008,-1.8008,-1.8008,-1.8008,-1.8008,-1.8008,-1.8008,-1.8008,-1.8008,-1.8008,-1.8008,-1.8008,-1.8008,-1.8008,-1.8008,-1.8008,-1.8008,-1.8008,-1.8008,-1.8008,-1.8008,-1.7793,-1.751,-1.7445,-1.6523,-1.5537,-1.5439,-1.541,-1.541,-1.541,-1.541,-1.541,-1.541,-1.541,-1.5439,-1.5537,-1.6377,-1.7111,-1.7225,-1.7862,-1.8282,-1.8036,0.0,0.0,0.0,-1.7783,-1.7705,-1.7285,-1.7324,-1.7376,-1.7246,-1.7412,-1.7666,-1.7988,-1.8008,-1.8008,-1.8008,-1.8008,-1.8008,-1.8008,-1.8008,-1.8008,-1.8008,-1.8105,-1.8105,-1.8008,-1.8105,-1.812,-1.813,-1.8559,-1.9023,-1.9453,-1.9883,-2.0508,-2.12,-2.1307,-2.1826,-2.2519,-2.2617,-2.2808,-2.3091,-2.3091,-2.3091,-2.3091,-2.3091,-2.3091,-2.3091,-2.3091,-2.3091,-2.3091,-2.3091,-2.2783,-2.2363,-2.1943,-2.1504,-2.1064,-2.0654,-2.0605,-2.0605,-2.0605,-1.9678,-1.952,-2.0401,-1.9559,-1.8777,-1.8341,-1.9336,-2.0088,-2.0498,-2.0078,-1.9668,-1.9238,-1.8792,-1.8383,-1.8008,-1.8008,-1.8008,-1.8008,-1.8008,-1.8008,-1.8008,-1.8008,-1.8008,-1.8008,-1.8008,-1.8008,-1.8008,-1.8008,-1.8008,-1.8008,-1.8008,-1.8008,-1.8008,-1.8008,-1.8008,-1.8008,-1.8008,-1.7988,-1.7881,-1.75,-1.677,-1.5958,-1.5527,-1.541,-1.541,-1.541,-1.541,-1.541,-1.541,-1.541,-1.5527,-1.5958,-1.6439,-1.687,-1.7304,-1.7756,-1.8144,-1.8507,0.0,0.0,-1.8461,-1.79,-1.7266,-1.6804,-1.7139,-1.7227,-1.6785,-1.7467,-1.7978,-1.8008,-1.8008,-1.8008,-1.8008,-1.8008,-1.8008,-1.8008,-1.8008,-1.8008,-1.8008,-1.8364,-1.8364,-1.8018,-1.8373,-1.8559,-1.8568,-1.9043,-1.9473,-1.9893,-2.037,-2.0791,-2.122,-2.167,-2.2109,-2.2549,-2.2896,-2.3062,-2.3091,-2.3091,-2.3091,-2.3091,-2.3091,-2.3091,-2.3091,-2.3091,-2.3091,-2.3091,-2.3091,-2.2955,-2.2711,-2.2324,-2.2129,-2.1865,-2.1435,-2.1143,-2.0977,-2.0977,-2.036,-2.0167,-2.0566,-2.0206,-1.9925,-1.9725,-2.012,-2.0429,-2.0595,-2.0449,-1.998,-1.9287,-1.9121,-1.8691,-1.8008,-1.8008,-1.8008,-1.8008,-1.8008,-1.8008,-1.8008,-1.8008,-1.8008,-1.8008,-1.8008,-1.8008,-1.8008,-1.8008,-1.8008,-1.8008,-1.8008,-1.8008,-1.8008,-1.8008,-1.8008,-1.8008,-1.8008,-1.8008,-1.793,-1.751,-1.7181,-1.6787,-1.6317,-1.6025,-1.584,-1.584,-1.6025,-1.6132,-1.5879,-1.6035,-1.6248,-1.6445,-1.6826,-1.7187,-1.7353,-1.7725,-1.8057,-1.8188,0.0,-1.7978,-1.7871,-1.7578,-1.7227,-1.6755,-1.6853,-1.7021,-1.7119,-1.7432,-1.7734,-1.7988,-1.8008,-1.8008,-1.8008,-1.8252,-1.8525,-1.8799,-1.85,-1.8364,-1.8364,-1.852,-1.8328,-1.7813,-1.8632,-1.8709,-1.8091,-1.9178,-1.9766,-1.9941,-2.0419,-2.0977,-2.165,-2.1816,-2.2285,-2.2877,-2.3033,-2.3091,-2.3091,-2.3091,-2.3091,-2.3091,-2.3091,-2.3091,-2.3091,-2.3091,-2.3091,-2.3091,-2.3091,-2.2984,-2.2789,-2.2549,-2.2402,-2.2207,-2.1924,-2.1621,-2.1346,-2.121,-2.066,-2.038,-2.0576,-2.0605,-2.0605,-2.0605,-2.0605,-2.0605,-2.0605,-2.0468,-2.0078,-1.9482,-1.9346,-1.8916,-1.8178,-1.8178,-1.8135,-1.8008,-1.8008,-1.8008,-1.8008,-1.8008,-1.8008,-1.8008,-1.8008,-1.8008,-1.8008,-1.8008,-1.8008,-1.8008,-1.8008,-1.8008,-1.8008,-1.8008,-1.8008,-1.8008,-1.8008,-1.8008,-1.7959,-1.7666,-1.749,-1.7344,-1.7145,-1.6816,-1.6476,-1.6339,-1.6504,-1.6619,-1.6338,-1.6514,-1.6746,-1.6882,-1.7178,-1.7422,-1.7559,-1.7812,-1.8008,-1.8008,-1.8008,-1.7861,-1.7474,-1.7266,-1.707,-1.6736,-1.6697,-1.6872,-1.7344,-1.7249,-1.7264,-1.755,-1.7295,-1.7317,-1.7735,-1.8427,-1.8984,-1.9277,-1.9121,-1.8997,-1.8997,-1.844,-1.8013,-1.771,-1.8147,-1.8016,-1.7427,-1.8417,-1.8963,-1.9112,-1.9932,-2.0479,-2.0848,-2.172,-2.2277,-2.258,-2.296,-2.3091,-2.3091,-2.3091,-2.3091,-2.3091,-2.3091,-2.3091,-2.3091,-2.3091,-2.3091,-2.3091,-2.3091,-2.274,-2.2519,-2.2519,-2.2158,-2.1894,-2.1894,-2.1894,-2.1719,-2.1239,-2.0223,-1.9866,-2.0557,-2.0605,-2.0605,-2.0615,-2.0605,-2.0605,-2.0605,-2.0137,-1.9922,-1.9912,-1.9502,-1.9072,-1.8607,-1.8607,-1.8383,-1.8018,-1.8018,-1.8018,-1.8008,-1.8008,-1.8008,-1.8008,-1.8008,-1.8008,-1.8008,-1.8008,-1.8008,-1.8008,-1.8008,-1.8008,-1.8008,-1.8008,-1.8008,-1.8008,-1.8008,-1.8008,-1.8018,-1.8018,-1.7715,-1.748,-1.79,-1.7705,-1.7285,-1.6814,-1.6707,-1.6716,-1.6707,-1.6707,-1.6833,-1.7305,-1.7425,-1.7519,-1.7939,-1.8008,-1.8018,-1.8008,-1.8008,-1.7861,-1.7474,-1.7012,-1.6707,-1.6697,-1.6707,-1.6882,-1.7344,-1.6906,-1.6602,-1.6602,-1.5728,-1.5793,-1.7126,-1.8537,-1.9297,-1.9297,-1.9697,-1.9912,-1.9922,-1.8109,-1.7351,-1.7682,-1.6699,-1.6388,-1.6694,-1.6694,-1.6947,-1.7399,-1.8956,-1.9178,-1.8621,-2.1362,-2.2034,-2.1426,-2.2633,-2.3091,-2.3101,-2.3101,-2.3101,-2.3101,-2.3091,-2.3091,-2.3091,-2.3091,-2.3091,-2.3091,-2.3091,-2.2984,-2.2906,-2.2906,-2.2799,-2.2721,-2.2721,-2.25,-2.2275,-2.2139,-2.0759,-1.9978,-2.0159,-2.0443,-2.0879,-2.1505,-2.0938,-2.0605,-2.0605,-2.0478,-2.0225,-1.9912,-1.9785,-1.9502,-1.9092,-1.9092,-1.8867,-1.8412,-1.8412,-1.8247,-1.8008,-1.8008,-1.8008,-1.8008,-1.8008,-1.8008,-1.8008,-1.8008,-1.8008,-1.8008,-1.8008,-1.8008,-1.8008,-1.8008,-1.8008,-1.8008,-1.8008,-1.8178,-1.8412,-1.8412,-1.8154,-1.791,-1.8295,-1.8144,-1.7715,-1.7295,-1.7412,-1.7549,-1.7256,-1.7412,-1.7633,-1.7793,-1.8057,-1.8178,-1.8037,-1.8217,-1.8315,-1.8057,-1.8008,-1.7861,-1.7474,-1.7275,-1.708,-1.6736,-1.7002,-1.7246,-1.7406,-1.6906,-1.6602,-1.6602,-1.6581,-1.6919,-1.766,-1.8965,-1.9863,-2.0214,-2.001,-2.0059,-2.041,-1.8767,-1.7779,-1.7417,-1.7131,-1.6621,-1.6029,-1.6766,-1.7772,-1.8956,-1.9398,-2.0223,-2.1352,-2.2144,-2.2529,-2.2589,-2.296,-2.2589,-2.1961,-2.278,-2.3113,-2.3113,-2.3091,-2.3091,-2.3091,-2.3091,-2.3091,-2.3091,-2.3091,-2.3091,-2.3091,-2.3091,-2.3091,-2.3091,-2.3091,-2.2867,-2.2652,-2.2529,-2.1409,-2.0349,-1.9434,-2.0435,-2.1368,-2.1865,-2.1211,-2.083,-2.083,-2.0693,-2.0478,-2.0176,-2.0176,-1.9951,-1.9541,-1.9541,-1.9307,-1.8887,-1.8676,-1.8461,-1.8217,-1.8076,-1.8008,-1.8008,-1.8008,-1.8008,-1.8008,-1.8008,-1.8008,-1.8008,-1.8008,-1.8008,-1.8008,-1.8008,-1.8115,-1.8256,-1.8467,-1.8691,-1.8896,-1.8896,-1.8711,-1.8574,-1.8818,-1.8549,-1.8159,-1.7939,-1.7949,-1.7939,-1.7686,-1.7609,-1.7723,-1.8148,-1.8232,-1.8299,-1.8484,-1.8721,-1.8809,-1.8555,-1.8369,-1.8115,-1.7686,-1.749,-1.7285,-1.7021,-1.7227,-1.7309,-1.7121,-1.6432,-1.578,-1.5137,-1.6048,-1.6893,-1.7474,-1.9033,-2.0117,-2.0595,-2.0312,-2.0303,-2.0605,-1.9231,-1.8162,-1.7293,-1.675,-1.5986,-1.5103,-1.6329,-1.7408,-1.8371,-1.9567,-2.0495,-2.1238,-2.2289,-2.2587,-2.2448,-2.2906,-2.2646,-2.2091,-2.284,-2.3108,-2.3104,-2.3091,-2.3091,-2.3091,-2.3091,-2.3091,-2.3091,-2.3091,-2.3091,-2.3091,-2.3091,-2.3091,-2.3091,-2.3091,-2.3091,-2.2945,-2.2607,-2.2187,-2.1039,-1.8809,-2.0708,-2.1924,-2.1992,-2.1543,-2.1249,-2.1249,-2.082,-2.0605,-2.0605,-2.0605,-2.0361,-1.9971,-1.9971,-1.9746,-1.9326,-1.889,-1.8695,-1.8637,-1.8242,-1.8066,-1.8057,-1.8027,-1.8008,-1.8018,-1.8047,-1.8047,-1.8018,-1.8047,-1.8047,-1.8018,-1.8057,-1.8315,-1.8734,-1.916,-1.9316,-1.9336,-1.9297,-1.9258,-1.9228,-1.9228,-1.8906,-1.8559,-1.8588,-1.8315,-1.8032,-1.793,-1.7459,-1.7343,-1.8328,-1.8191,-1.8165,-1.9141,-1.9316,-1.9336,-1.9297,-1.8955,-1.851,-1.8125,-1.7734,-1.7471,-1.7393,-1.7422,-1.7259,-1.6727,-1.5877,-1.4748,-1.3248,-1.492,-1.6342,-1.7005,-1.8888,-2.0156,-2.0595,-2.0605,-2.0605,-2.0605,-1.9638,-1.855,-1.7455,-1.6124,-1.5116,-1.4502,-1.5843,-1.6545,-1.685,-1.9695,-2.0342,-1.9655,-2.2077,-2.2448,-2.1569,-2.2652,-2.3026,-2.2898,-2.3044,-2.2834,-2.2446,-2.3091,-2.3091,-2.3091,-2.3091,-2.3091,-2.3091,-2.3091,-2.3091,-2.3091,-2.3091,-2.3091,-2.3091,-2.3091,-2.3091,-2.3062,-2.2974,-2.2617,-2.1883,-2.0757,-2.1448,-2.2178,-2.2789,-2.2148,-2.1748,-2.1748,-2.1006,-2.0605,-2.0605,-2.0605,-2.0556,-2.0458,-2.0458,-2.0195,-1.9775,-1.9678,-1.9453,-1.9121,-1.8646,-1.8461,-1.8432,-1.8144,-1.8008,-1.8047,-1.8344,-1.8256,-1.8057,-1.8344,-1.8256,-1.8057,-1.8354,-1.8789,-1.916,-1.9258,-1.9512,-1.9717,-1.9385,-1.9043,-1.8744,-1.8744,-1.8432,-1.8223,-1.852,-1.8529,-1.8251,-1.742,-1.7406,-1.7612,-1.7843,-1.8723,-1.9407,-1.9309,-1.9561,-1.9668,-1.9336,-1.9209,-1.8994,-1.8529,-1.8383,-1.8115,-1.7461,-1.7676,-1.7706,-1.7264,-1.6938,-1.6437,-1.5664,-1.7033,-1.7982,-1.8142,-1.9601,-2.0507,-2.0595,-2.0605,-2.0605,-2.0605,-2.0362,-1.9717,-1.8638,-1.7421,-1.6967,-1.7187,-1.7511,-1.8473,-1.9938,-2.0591,-2.1429,-2.228,-2.2877,-2.296,-2.274,-2.2986,-2.2311,-2.1345,-2.264,-2.0677,-1.7394,-2.3091,-2.3091,-2.3091,-2.3091,-2.3091,-2.3091,-2.3091,-2.3091,-2.3091,-2.3091,-2.3091,-2.3091,-2.3091,-2.3091,-2.2862,-2.2306,-2.2573,-2.236,-2.1373,-2.2049,-2.2676,-2.3081,-2.2519,-2.209,-2.1894,-2.123,-2.0781,-2.0605,-2.0605,-2.0605,-2.0605,-2.0605,-2.0478,-2.0215,-2.001,-1.9795,-1.9561,-1.9131,-1.8792,-1.8588,-1.8364,-1.8184,-1.8037,-1.8217,-1.8169,-1.8037,-1.8227,-1.7963,-1.7661,-1.8621,-1.8891,-1.8929,-1.9674,-1.9902,-1.9873,-1.9648,-1.9424,-1.9212,-1.9212,-1.9092,-1.8975,-1.9153,-1.8837,-1.8404,-1.8144,-1.8036,-1.8131,-1.8629,-1.9146,-1.9563,-1.9856,-2.0078,-2.0156,-1.9969,-1.9717,-1.9502,-1.9241,-1.8861,-1.851,-1.832,-1.8301,-1.8128,-1.7681,-1.7135,-1.6856,-1.691,-1.7911,-1.864,-1.9022,-2.0031,-2.0605,-2.0605,-2.0771,-2.0889,-2.0889,-2.0495,-2.0046,-1.9466,-1.8565,-1.8063,-1.8012,-1.8725,-1.9715,-2.095,-2.1631,-2.2389,-2.3091,-2.3091,-2.3115,-2.31,-2.3082,-2.2616,-2.195,-2.2815,-1.9992,-1.5785,-2.3091,-2.3091,-2.3091,-2.3091,-2.3091,-2.3091,-2.3091,-2.2906,-2.2775,-2.2775,-2.2775,-2.2731,-2.2501,-2.2677,-2.2492,-2.1658,-2.2536,-2.2677,-2.1658,-2.2536,-2.3091,-2.3091,-2.276,-2.2422,-2.2002,-2.1641,-2.1162,-2.0605,-2.0605,-2.0605,-2.0605,-2.0605,-2.0605,-2.0586,-2.0185,-2.0029,-2.0,-1.957,-1.9141,-1.8705,-1.845,-1.8205,-1.7983,-1.7915,-1.793,-1.8027,-1.8174,-1.7868,-1.7606,-1.8947,-1.9014,-1.8819,-2.0188,-2.0312,-2.001,-1.9932,-1.9912,-1.9893,-1.9824,-1.9805,-1.9824,-1.9893,-1.9212,-1.8757,-1.9375,-1.8967,-1.8654,-1.9554,-1.9483,-1.9559,-2.044,-2.0605,-2.0605,-2.0605,-2.0264,-2.0,-1.9922,-1.927,-1.8929,-1.9248,-1.8965,-1.8613,-1.8387,-1.7616,-1.7424,-1.8198,-1.8779,-1.9325,-1.9842,-2.0491,-2.0801,-2.0723,-2.1113,-2.1307,-2.1307,-2.0435,-1.9985,-1.9985,-1.9217,-1.8702,-1.8499,-1.9729,-2.0659,-2.1321,-2.2577,-2.3091,-2.3101,-2.3096,-2.309,-2.3095,-2.3092,-2.3115,-2.301,-2.2164,-1.9256,-1.581,-2.3091,-2.3091,-2.3091,-2.3091,-2.3091,-2.3091,-2.3091,-2.2208,-2.1525,-2.1525,-2.1525,-2.1168,-2.0079,-2.0935,-2.1889,-2.2775,-2.3003,-2.3047,-2.2862,-2.3003,-2.3091,-2.3091,-2.3042,-2.2818,-2.2441,-2.2373,-2.1758,-2.0605,-2.0605,-2.0605,-2.0605,-2.0605,-2.0605,-2.0605,-2.0546,-2.0517,-2.0488,-2.001,-1.959,-1.9088,-1.7876,-1.7626,-1.7944,-1.7478,-1.7614,-1.8105,-1.8848,-1.9078,-1.9076,-1.9613,-1.9751,-1.9791,-2.043,-2.0566,-2.0449,-2.0029,-1.9912,-1.9834,-1.9473,-1.9375,-1.9453,-1.9824,-1.9799,-1.9801,-2.0322,-1.9634,-1.8955,-1.9082,-1.9797,-2.045,-2.0566,-2.0605,-2.0605,-2.0605,-2.0556,-2.0342,-1.9971,-1.9814,-1.9629,-1.9316,-1.9238,-1.9475,-2.0159,-2.0111,-2.0388,-2.1262,-2.1395,-2.13,-2.0999,-2.1452,-2.1533,-2.1112,-2.1572,-2.1797,-2.1797,-2.0615,-1.9985,-1.9985,-1.8871,-1.9016,-2.0338,-2.0521,-2.1435,-2.2829,-2.3018,-2.3091,-2.311,-2.3094,-2.3102,-2.3079,-2.3118,-2.3103,-2.261,-1.8346,-1.6353,-1.581,-2.3091,-2.3091,-2.3091,-2.3091,-2.3091,-2.2862,-2.2217,-2.1658,-2.1069,-2.0395,-2.0305,-2.035,-2.0477,-2.1578,-2.2536,-2.3047,-2.3091,-2.3091,-2.3091,-2.3091,-2.3091,-2.3091,-2.3091,-2.2896,-2.2519,-2.2285,-2.1758,-2.0937,-2.0937,-2.081,-2.0605,-2.0001,-1.9726,-1.9678,-1.9027,-1.8749,-1.8731,-1.8522,-1.8124,-1.7507,-1.6885,-1.6541,-1.6482,-1.6991,-1.7367,-1.7718,-1.8872,-1.9056,-1.8864,-1.9656,-1.9688,-1.956,-2.0343,-2.0439,-2.0166,-1.9971,-1.9912,-1.9873,-1.9687,-2.0,-2.0361,-2.0293,-2.0469,-2.0664,-2.0898,-2.0571,-2.0242,-2.0242,-2.0611,-2.0937,-2.0937,-2.0732,-2.0605,-2.0605,-2.0605,-2.0537,-2.0303,-2.0273,-2.0243,-2.0067,-2.0225,-2.0518,-2.0908,-2.1162,-2.1562,-2.2187,-2.2021,-2.1904,-2.1943,-2.1243,-2.1087,-2.1561,-2.0664,-2.0515,-2.1207,-1.958,-1.8706,-1.8706,-1.7455,-1.7838,-1.9711,-2.0088,-2.0793,-2.1823,-2.27,-2.3111,-2.3119,-2.3092,-2.1472,-1.9039,-1.9019,-1.9026,-1.8761,-1.6616,-1.5784,-1.579]},{"header":{"parameterUnit":"m.s-1","parameterCategory":1,"la1":30.6,"la2":28.766,"lo1":-90.7593,"lo2":-88.6598,"dy":0.0162,"dx":0.0183,"nx":116,"ny":114,"refTime":"2023-10-05T06:00:00:Z","depth":0,"parameterNumber":3,"parameterNumberName":"V-component_of_WINDS"},"data":[0.0,0.0,0.0,0.0,0.0,0.0,0.0,0.0,0.0,0.0,0.0,0.0,0.0,0.0,0.0,0.0,0.0,0.0,0.0,0.0,0.0,0.0,0.0,0.0,0.0,0.0,0.0,0.0,0.0,0.0,0.0,0.0,0.0,0.0,0.0,0.0,0.0,0.0,0.0,0.0,0.0,0.0,0.0,0.0,0.0,0.0,0.0,0.0,0.0,0.0,0.0,0.0,0.0,0.0,0.0,0.0,0.0,0.0,0.0,0.0,0.0,0.0,0.0,0.0,0.0,0.0,0.0,0.0,0.0,0.0,0.0,0.0,0.0,0.0,0.0,0.0,0.0,0.0,0.0,0.0,0.0,0.0,0.0,0.0,0.0,0.0,0.0,0.0,0.0,0.0,0.0,0.0,0.0,0.0,0.0,0.0,0.0,0.0,0.0,0.0,0.0,0.0,0.0,0.0,0.0,0.0,0.0,0.0,0.0,0.0,0.0,0.0,0.0,0.0,0.0,0.0,0.0,0.0,0.0,0.0,0.0,0.0,0.0,0.0,0.0,0.0,0.0,0.0,0.0,0.0,0.0,0.0,0.0,0.0,0.0,0.0,0.0,0.0,0.0,0.0,0.0,0.0,0.0,0.0,0.0,0.0,0.0,0.0,0.0,0.0,0.0,0.0,0.0,0.0,0.0,0.0,0.0,0.0,0.0,0.0,0.0,0.0,0.0,0.0,0.0,0.0,0.0,0.0,0.0,0.0,0.0,0.0,0.0,0.0,0.0,0.0,0.0,0.0,0.0,0.0,0.0,0.0,0.0,0.0,0.0,0.0,0.0,0.0,0.0,0.0,0.0,0.0,0.0,0.0,0.0,0.0,0.0,0.0,0.0,0.0,0.0,0.0,0.0,0.0,0.0,0.0,0.0,0.0,0.0,0.0,0.0,0.0,0.0,0.0,0.0,0.0,0.0,0.0,0.0,0.0,0.0,0.0,0.0,0.0,0.0,0.0,0.0,0.0,0.0,0.0,0.0,0.0,0.0,0.0,0.0,0.0,0.0,0.0,0.0,0.0,0.0,0.0,0.0,0.0,0.0,0.0,0.0,0.0,0.0,0.0,0.0,0.0,0.0,0.0,0.0,0.0,0.0,0.0,0.0,0.0,0.0,0.0,0.0,0.0,0.0,0.0,0.0,0.0,0.0,0.0,0.0,0.0,0.0,0.0,0.0,0.0,0.0,0.0,0.0,0.0,0.0,0.0,0.0,0.0,0.0,0.0,0.0,0.0,0.0,0.0,0.0,0.0,0.0,0.0,0.0,0.0,0.0,0.0,0.0,0.0,0.0,0.0,0.0,0.0,0.0,0.0,0.0,0.0,0.0,0.0,0.0,0.0,0.0,0.0,0.0,0.0,0.0,0.0,0.0,0.0,0.0,0.0,0.0,0.0,0.0,0.0,0.0,0.0,0.0,0.0,0.0,0.0,0.0,0.0,0.0,0.0,0.0,0.0,0.0,0.0,0.0,0.0,0.0,0.0,0.0,0.0,0.0,0.0,0.0,0.0,0.0,0.0,0.0,0.0,0.0,0.0,0.0,0.0,0.0,0.0,0.0,0.0,0.0,0.0,0.0,0.0,0.0,0.0,0.0,0.0,0.0,0.0,0.0,0.0,0.0,0.0,0.0,0.0,0.0,0.0,0.0,0.0,0.0,0.0,0.0,0.0,0.0,0.0,0.0,0.0,0.0,0.0,0.0,0.0,0.0,0.0,0.0,0.0,0.0,0.0,0.0,0.0,0.0,0.0,0.0,0.0,0.0,0.0,0.0,0.0,0.0,0.0,0.0,0.0,0.0,0.0,0.0,0.0,0.0,0.0,0.0,0.0,0.0,0.0,0.0,0.0,0.0,0.0,0.0,0.0,0.0,0.0,0.0,0.0,0.0,0.0,0.0,0.0,0.0,0.0,0.0,0.0,0.0,0.0,0.0,0.0,0.0,0.0,0.0,0.0,0.0,0.0,0.0,0.0,0.0,0.0,0.0,0.0,0.0,0.0,0.0,0.0,0.0,0.0,0.0,0.0,0.0,0.0,0.0,0.0,0.0,0.0,0.0,0.0,0.0,0.0,0.0,0.0,0.0,0.0,0.0,0.0,0.0,0.0,0.0,0.0,0.0,0.0,0.0,0.0,0.0,0.0,0.0,0.0,0.0,0.0,0.0,0.0,0.0,0.0,0.0,0.0,0.0,0.0,0.0,0.0,0.0,0.0,0.0,0.0,0.0,0.0,0.0,0.0,0.0,0.0,0.0,0.0,0.0,0.0,0.0,0.0,0.0,0.0,0.0,0.0,0.0,0.0,0.0,0.0,0.0,0.0,0.0,0.0,0.0,0.0,0.0,0.0,0.0,0.0,0.0,0.0,0.0,0.0,0.0,0.0,0.0,0.0,0.0,0.0,0.0,0.0,0.0,0.0,0.0,0.0,0.0,0.0,0.0,0.0,0.0,0.0,0.0,0.0,0.0,0.0,0.0,0.0,0.0,0.0,0.0,0.0,0.0,0.0,0.0,0.0,0.0,0.0,0.0,0.0,0.0,0.0,0.0,0.0,0.0,0.0,0.0,0.0,0.0,0.0,0.0,0.0,0.0,0.0,0.0,0.0,0.0,0.0,0.0,0.0,0.0,0.0,0.0,0.0,0.0,0.0,0.0,0.0,0.0,0.0,0.0,0.0,0.0,0.0,0.0,0.0,0.0,0.0,0.0,0.0,0.0,0.0,0.0,0.0,0.0,0.0,0.0,0.0,0.0,0.0,0.0,0.0,0.0,0.0,0.0,0.0,0.0,0.0,0.0,0.0,0.0,0.0,0.0,0.0,0.0,0.0,0.0,0.0,0.0,0.0,0.0,0.0,0.0,0.0,0.0,0.0,0.0,0.0,0.0,0.0,0.0,0.0,0.0,0.0,0.0,0.0,0.0,0.0,0.0,0.0,0.0,0.0,0.0,0.0,0.0,0.0,0.0,0.0,0.0,0.0,0.0,0.0,0.0,0.0,0.0,0.0,0.0,0.0,0.0,0.0,0.0,0.0,0.0,0.0,0.0,0.0,0.0,0.0,0.0,0.0,0.0,0.0,0.0,0.0,0.0,0.0,0.0,0.0,0.0,0.0,0.0,0.0,0.0,0.0,0.0,0.0,0.0,0.0,0.0,0.0,0.0,0.0,0.0,0.0,0.0,0.0,0.0,0.0,0.0,0.0,0.0,0.0,0.0,0.0,0.0,0.0,0.0,0.0,0.0,0.0,0.0,0.0,0.0,0.0,0.0,0.0,0.0,0.0,0.0,0.0,0.0,0.0,0.0,0.0,0.0,0.0,0.0,0.0,0.0,0.0,0.0,0.0,0.0,0.0,0.0,0.0,0.0,0.0,0.0,0.0,0.0,0.0,0.0,0.0,0.0,0.0,0.0,0.0,0.0,0.0,0.0,0.0,0.0,0.0,0.0,0.0,0.0,0.0,0.0,0.0,0.0,0.0,0.0,0.0,0.0,0.0,0.0,0.0,0.0,0.0,0.0,0.0,0.0,0.0,0.0,0.0,0.0,0.0,0.0,0.0,0.0,0.0,0.0,0.0,0.0,0.0,0.0,0.0,0.0,0.0,0.0,0.0,0.0,0.0,0.0,0.0,0.0,0.0,0.0,0.0,0.0,0.0,0.0,0.0,0.0,0.0,0.0,0.0,0.0,0.0,0.0,0.0,0.0,0.0,0.0,0.0,0.0,0.0,0.0,0.0,0.0,0.0,0.0,0.0,0.0,0.0,0.0,0.0,0.0,0.0,0.0,0.0,0.0,0.0,0.0,0.0,0.0,0.0,0.0,0.0,0.0,0.0,0.0,0.0,0.0,0.0,0.0,0.0,0.0,0.0,0.0,0.0,0.0,0.0,0.0,0.0,0.0,0.0,0.0,0.0,0.0,0.0,0.0,0.0,0.0,0.0,0.0,0.0,0.0,0.0,0.0,0.0,0.0,0.0,0.0,0.0,0.0,0.0,0.0,0.0,0.0,0.0,0.0,0.0,0.0,0.0,0.0,0.0,0.0,0.0,0.0,0.0,0.0,0.0,0.0,0.0,0.0,0.0,0.0,0.0,0.0,0.0,0.0,0.0,0.0,0.0,0.0,0.0,0.0,0.0,0.0,0.0,0.0,0.0,0.0,0.0,0.0,0.0,0.0,0.0,0.0,0.0,0.0,0.0,0.0,0.0,0.0,0.0,0.0,0.0,0.0,0.0,0.0,0.0,0.0,0.0,0.0,0.0,0.0,0.0,0.0,0.0,0.0,0.0,0.0,0.0,0.0,0.0,0.0,0.0,0.0,0.0,0.0,0.0,0.0,0.0,0.0,0.0,0.0,0.0,0.0,0.0,0.0,0.0,0.0,0.0,0.0,0.0,0.0,0.0,0.0,0.0,0.0,0.0,0.0,0.0,0.0,0.0,0.0,0.0,0.0,0.0,0.0,0.0,0.0,0.0,0.0,0.0,0.0,0.0,0.0,0.0,0.0,0.0,0.0,0.0,0.0,0.0,0.0,0.0,0.0,0.0,0.0,0.0,0.0,0.0,0.0,0.0,0.0,0.0,0.0,0.0,0.0,0.0,0.0,0.0,0.0,0.0,0.0,0.0,0.0,0.0,0.0,0.0,0.0,0.0,0.0,0.0,0.0,0.0,0.0,0.0,0.0,0.0,0.0,0.0,0.0,0.0,0.0,0.0,0.0,0.0,0.0,0.0,0.0,0.0,0.0,0.0,0.0,0.0,0.0,0.0,0.0,0.0,0.0,0.0,0.0,0.0,0.0,0.0,0.0,0.0,0.0,0.0,0.0,0.0,0.0,0.0,0.0,0.0,0.0,0.0,0.0,0.0,0.0,0.0,0.0,0.0,0.0,0.0,0.0,0.0,0.0,0.0,0.0,0.0,0.0,0.0,0.0,0.0,0.0,0.0,0.0,0.0,0.0,0.0,0.0,0.0,0.0,0.0,0.0,0.0,0.0,0.0,0.0,0.0,0.0,0.0,0.0,0.0,0.0,0.0,0.0,0.0,0.0,0.0,0.0,0.0,0.0,0.0,0.0,0.0,0.0,0.0,0.0,0.0,0.0,0.0,0.0,0.0,0.0,0.0,0.0,0.0,0.0,0.0,0.0,0.0,0.0,0.0,0.0,0.0,0.0,0.0,0.0,0.0,0.0,0.0,0.0,0.0,0.0,0.0,0.0,0.0,0.0,0.0,0.0,0.0,0.0,0.0,0.0,0.0,0.0,0.0,0.0,0.0,0.0,0.0,0.0,0.0,0.0,0.0,0.0,0.0,0.0,0.0,0.0,0.0,0.0,0.0,0.0,0.0,0.0,0.0,0.0,0.0,0.0,0.0,0.0,0.0,0.0,0.0,0.0,0.0,0.0,0.0,0.0,0.0,0.0,0.0,0.0,0.0,0.0,0.0,0.0,0.0,0.0,0.0,0.0,0.0,0.0,0.0,0.0,0.0,0.0,0.0,0.0,0.0,0.0,0.0,0.0,0.0,0.0,0.0,0.0,0.0,0.0,0.0,0.0,0.0,0.0,0.0,0.0,0.0,0.0,0.0,0.0,0.0,0.0,0.0,0.0,0.0,0.0,0.0,0.0,0.0,0.0,0.0,0.0,0.0,0.0,0.0,0.0,0.0,0.0,0.0,0.0,0.0,0.0,0.0,0.0,0.0,0.0,0.0,0.0,0.0,0.0,0.0,0.0,0.0,0.0,0.0,0.0,0.0,0.0,0.0,0.0,0.0,0.0,0.0,0.0,0.0,0.0,0.0,0.0,0.0,0.0,0.0,0.0,0.0,0.0,0.0,0.0,0.0,0.0,0.0,0.0,0.0,0.0,0.0,0.0,0.0,0.0,0.0,0.0,0.0,0.0,0.0,0.0,0.0,0.0,0.0,0.0,0.0,0.0,0.0,0.0,0.0,0.0,0.0,0.0,0.0,0.0,0.0,0.0,0.0,0.0,0.0,0.0,0.0,0.0,0.0,0.0,0.0,0.0,0.0,0.0,0.0,0.0,0.0,0.0,0.0,0.0,0.0,0.0,0.0,0.0,0.0,0.0,0.0,2.4978,0.0,0.0,0.0,0.0,0.0,0.0,0.0,0.0,0.0,0.0,0.0,0.0,0.0,0.0,0.0,0.0,0.0,0.0,0.0,0.0,0.0,0.0,0.0,0.0,0.0,0.0,0.0,0.0,0.0,0.0,0.0,0.0,0.0,0.0,0.0,0.0,0.0,0.0,1.7261,1.8233,1.8785,1.8919,1.7868,1.6072,1.3673,0.0,0.0,0.0,0.0,0.0,0.0,0.0,0.0,0.0,0.0,0.0,0.0,0.0,0.0,0.0,0.0,0.0,0.0,0.0,0.0,0.0,0.0,0.0,0.0,0.0,0.0,0.0,0.0,0.0,0.0,0.0,0.0,0.0,0.0,0.0,0.0,0.0,0.0,0.0,0.0,0.0,0.0,0.0,0.0,0.0,0.0,0.0,0.0,0.0,0.0,0.0,0.0,0.0,0.0,0.0,0.0,0.0,0.0,0.0,0.0,0.0,0.0,0.0,0.0,0.0,0.0,0.0,0.0,0.0,0.0,0.0,2.637,0.0,0.0,0.0,0.0,0.0,0.0,0.0,0.0,0.0,0.0,0.0,0.0,0.0,0.0,0.0,0.0,0.0,0.0,0.0,0.0,0.0,0.0,0.0,1.6281,1.6038,1.6853,1.6862,1.6613,0.0,0.0,0.0,0.0,0.0,0.0,1.6991,1.8087,1.8725,1.8936,2.0592,2.1677,2.2176,2.1254,1.9312,1.6481,1.4038,0.0,0.0,0.0,0.0,0.0,0.0,0.0,0.0,0.0,0.0,0.0,0.0,0.0,0.0,0.0,0.0,0.0,0.0,0.0,0.0,0.0,0.0,0.0,0.0,0.0,0.0,0.0,0.0,0.0,0.0,0.0,0.0,0.0,0.0,0.0,0.0,0.0,0.0,0.0,0.0,0.0,0.0,0.0,0.0,0.0,0.0,0.0,0.0,0.0,0.0,0.0,0.0,0.0,0.0,0.0,0.0,0.0,0.0,0.0,0.0,0.0,0.0,0.0,3.9489,3.9814,4.0033,3.9554,3.9183,3.8723,3.4399,3.1513,2.9711,0.0,0.0,0.0,0.0,0.0,0.0,0.0,0.0,0.0,0.0,0.0,0.0,0.0,0.0,0.0,0.0,0.0,0.0,0.0,0.0,1.7789,1.8673,1.7932,1.7616,1.8201,1.7915,1.7548,1.7071,0.0,0.0,0.0,0.0,1.9334,1.8944,1.9088,1.9677,2.0677,2.2236,2.34,2.4123,2.3301,2.2068,2.0409,1.7265,1.5152,1.3881,0.0,0.0,0.0,0.0,0.0,0.0,0.0,0.0,0.0,0.0,0.0,0.0,0.0,0.0,0.0,0.0,0.0,0.0,0.0,0.0,0.0,0.0,0.0,0.0,0.0,0.0,0.0,0.0,0.0,0.0,0.0,0.0,0.0,0.0,0.0,0.0,0.0,0.0,0.0,0.0,0.0,2.8408,2.7682,0.0,0.0,0.0,0.0,0.0,0.0,0.0,0.0,0.0,0.0,0.0,0.0,0.0,3.9453,4.0318,4.2286,4.3032,4.2586,4.4336,4.4254,4.2632,4.3191,4.2728,4.1516,4.1505,0.0,3.3444,3.2699,0.0,0.0,0.0,0.0,0.0,0.0,0.0,0.0,0.0,0.0,0.0,0.0,0.0,0.0,0.0,0.0,0.0,0.0,0.0,0.0,0.0,2.0239,2.0254,2.0281,2.0138,1.9771,1.9137,1.968,0.0,0.0,2.0086,2.0528,2.0535,2.1581,2.3094,2.5089,2.5773,2.6078,2.6007,2.5662,2.4303,2.214,2.1078,1.8839,1.5739,1.4677,0.0,0.0,0.0,0.0,0.0,0.0,0.0,0.0,0.0,0.0,0.0,0.0,0.0,0.0,0.0,0.0,0.0,0.0,0.0,0.0,0.0,0.0,0.0,0.0,0.0,0.0,0.0,0.0,0.0,0.0,0.0,0.0,0.0,0.0,0.0,0.0,0.0,0.0,0.0,3.031,3.106,2.9982,3.0747,3.1246,0.0,0.0,0.0,0.0,0.0,0.0,0.0,0.0,0.0,4.2903,4.3372,4.414,4.5349,4.5513,4.5665,4.5795,4.5872,4.5671,4.5187,4.5074,4.4693,4.4098,4.4012,4.2214,3.9228,3.7937,3.6825,3.582,0.0,0.0,0.0,0.0,3.4989,3.5497,0.0,0.0,0.0,0.0,0.0,0.0,0.0,0.0,0.0,0.0,0.0,0.0,2.1943,2.2406,2.2613,2.2434,2.2325,2.1928,2.1146,2.1346,2.1187,2.0472,2.1511,2.2225,2.243,2.4239,2.6109,2.8025,2.8214,2.8006,2.7478,2.7378,2.6009,2.3678,2.4198,2.2178,1.8361,1.7481,1.6736,1.6048,0.0,0.0,0.0,0.0,0.0,0.0,0.0,0.0,0.0,0.0,0.0,0.0,0.0,0.0,0.0,0.0,0.0,0.0,0.0,0.0,0.0,0.0,0.0,0.0,0.0,0.0,0.0,0.0,0.0,0.0,0.0,0.0,0.0,0.0,0.0,0.0,0.0,3.3105,3.4008,3.3104,3.421,3.4777,0.0,0.0,0.0,0.0,0.0,0.0,4.3131,4.3529,4.4749,4.7095,4.6955,4.7508,4.8859,4.7776,4.7483,4.8014,4.6973,4.6662,4.6987,4.6627,4.6251,4.5874,4.573,4.516,4.4222,4.2008,4.0361,3.9182,3.8455,3.8269,3.8468,3.8675,3.9098,3.9613,0.0,0.0,0.0,0.0,0.0,0.0,0.0,0.0,0.0,0.0,0.0,2.2843,2.385,2.3984,2.4105,2.4339,2.4014,2.3399,2.2484,2.3359,2.3328,2.1956,2.3998,2.5135,2.5039,2.668,2.7429,2.727,2.7959,2.8287,2.8235,2.7862,2.6949,2.5674,2.5827,2.4521,2.2128,2.0682,2.0137,1.9946,1.7027,0.0,0.0,0.0,0.0,0.0,0.0,0.0,0.0,0.0,0.0,0.0,0.0,0.0,0.0,0.0,0.0,0.0,0.0,0.0,0.0,0.0,0.0,0.0,0.0,0.0,0.0,0.0,0.0,0.0,0.0,0.0,0.0,0.0,0.0,0.0,0.0,0.0,0.0,3.8418,3.8435,0.0,0.0,0.0,0.0,4.2701,4.2888,4.4226,4.7333,4.6041,4.6265,4.8618,4.7957,4.7915,4.8692,4.8632,4.8607,4.8642,4.8582,4.8211,4.7576,4.8264,4.7752,4.6453,4.7876,4.8063,4.7121,4.3637,4.2071,4.1757,4.1087,4.1214,4.1678,4.1055,4.1342,4.1933,0.0,0.0,0.0,0.0,0.0,0.0,0.0,0.0,2.2267,2.3329,2.4487,2.5453,2.6099,2.6302,2.6275,2.5885,2.5198,2.4469,2.3646,2.3635,2.3636,2.3551,2.469,2.5998,2.7356,2.8216,2.8789,2.9076,2.9331,2.9206,2.8753,2.859,2.786,2.6674,2.7133,2.684,2.582,2.3568,2.2847,2.293,1.9954,1.906,0.0,0.0,0.0,0.0,0.0,0.0,0.0,0.0,0.0,0.0,0.0,0.0,0.0,0.0,0.0,0.0,0.0,0.0,0.0,0.0,0.0,0.0,0.0,0.0,0.0,0.0,0.0,0.0,0.0,0.0,0.0,0.0,0.0,0.0,0.0,0.0,0.0,4.0053,4.1215,0.0,4.1946,4.1682,4.2565,4.5031,4.5203,4.6262,4.882,4.8387,4.8693,5.005,4.9815,4.9793,5.0043,4.9127,4.8652,4.8611,4.7678,4.6808,4.6065,4.633,4.6153,4.5658,4.6206,4.6295,4.5965,4.4697,4.4479,4.4772,4.3074,4.2602,4.2862,4.2555,4.261,4.2841,0.0,0.0,0.0,0.0,0.0,0.0,0.0,2.1417,2.3009,2.4418,2.5782,2.6852,2.745,2.7657,2.7528,2.6954,2.6382,2.5711,2.4931,2.4745,2.4775,2.5006,2.5986,2.7269,2.88,2.9306,2.953,2.952,2.952,2.9274,2.8793,2.8678,2.8322,2.7794,2.8032,2.8375,2.8639,2.6588,2.5952,2.605,2.3327,2.2864,2.3564,0.0,0.0,0.0,0.0,0.0,0.0,0.0,0.0,0.0,0.0,0.0,0.0,0.0,0.0,0.0,0.0,0.0,0.0,0.0,0.0,0.0,0.0,0.0,0.0,0.0,0.0,0.0,0.0,0.0,0.0,0.0,0.0,0.0,0.0,0.0,4.2666,4.1974,4.3919,4.5117,4.4454,4.4732,4.5693,4.7449,4.7324,4.7896,4.9499,4.9335,4.9279,4.9554,4.9811,4.9701,4.915,4.8443,4.7949,4.7677,4.6967,4.6358,4.5839,4.6129,4.6255,4.6255,4.6255,4.6093,4.5803,4.5552,4.5681,4.5863,4.3937,4.3354,4.358,4.3308,4.3298,4.3545,0.0,0.0,0.0,0.0,0.0,0.0,2.0226,2.1695,2.3317,2.5497,2.6235,2.6912,2.7801,2.7922,2.7802,2.7521,2.7502,2.7125,2.623,2.6785,2.691,2.6296,2.804,2.9104,2.9332,2.9898,2.9624,2.8449,2.8431,2.8412,2.8403,2.8063,2.8341,2.9048,2.8499,2.9096,3.048,2.9706,2.9468,2.9377,2.7054,2.6708,2.7314,0.0,0.0,0.0,0.0,0.0,0.0,0.0,0.0,0.0,0.0,0.0,0.0,0.0,0.0,0.0,0.0,0.0,0.0,0.0,0.0,0.0,0.0,0.0,0.0,0.0,0.0,0.0,0.0,0.0,0.0,0.0,0.0,0.0,4.2154,4.4024,4.521,4.4418,4.6629,4.7881,4.7022,4.7931,4.8971,4.9905,4.9252,4.9006,4.9465,4.8673,4.7884,4.7094,4.781,4.748,4.592,4.6654,4.6654,4.5902,4.6709,4.7094,4.7094,4.7902,4.8269,4.8269,4.8269,4.781,4.7003,4.6214,4.5512,4.4847,4.3641,4.3499,4.3895,4.3374,4.3506,4.4085,0.0,0.0,0.0,0.0,0.0,0.0,1.913,2.1717,2.3943,2.5145,2.697,2.8072,2.784,2.8264,2.8205,2.736,2.725,2.6738,2.561,2.6176,2.6958,2.7894,2.8838,2.9576,3.0099,3.0027,2.9822,2.9481,2.8842,2.8543,2.8543,2.8451,2.8505,2.869,2.9147,3.0055,3.1229,3.1397,3.2297,3.3322,3.0213,2.9858,3.1001,0.0,0.0,0.0,0.0,0.0,0.0,0.0,0.0,0.0,0.0,0.0,0.0,0.0,0.0,0.0,0.0,0.0,0.0,0.0,0.0,0.0,0.0,0.0,0.0,0.0,0.0,0.0,0.0,0.0,0.0,0.0,0.0,4.4949,4.4701,4.6283,4.7425,4.7201,4.8348,4.88,4.7934,4.7909,4.7798,4.7448,4.6975,4.6782,4.6911,4.6691,4.6452,4.625,4.6434,4.6342,4.5902,4.6122,4.6122,4.5902,4.6709,4.6782,4.6269,4.7058,4.7424,4.7424,4.7424,4.6966,4.6214,4.5993,4.5114,4.3835,4.3126,4.2996,4.3169,4.2935,4.3169,4.365,0.0,0.0,0.0,0.0,0.0,0.0,1.824,2.0988,2.3328,2.4546,2.6595,2.7761,2.7332,2.7658,2.7561,2.676,2.7272,2.7148,2.596,2.6966,2.8021,2.8987,2.969,3.0178,3.049,3.0295,2.9843,2.9143,2.865,2.8394,2.8394,2.8394,2.8743,2.9404,3.0192,3.1071,3.2024,3.2945,3.4272,3.5571,3.3917,3.3939,3.4841,3.3457,3.3268,3.3554,3.2262,3.1468,3.0719,2.8511,0.0,0.0,0.0,0.0,0.0,0.0,0.0,0.0,0.0,0.0,0.0,0.0,0.0,0.0,0.0,0.0,0.0,0.0,0.0,0.0,0.0,0.0,0.0,0.0,4.6062,4.7158,4.7498,4.8566,4.9046,4.8348,4.9121,4.9186,4.7825,4.7674,4.7327,4.651,4.6264,4.5931,4.5406,4.5718,4.559,4.4911,4.5553,4.5571,4.4892,4.5553,4.5553,4.4911,4.6379,4.6672,4.592,4.6727,4.7278,0.0,4.7241,4.6636,4.5902,4.5902,4.4947,0.0,0.0,0.0,0.0,0.0,4.3232,4.3515,0.0,0.0,0.0,0.0,0.0,0.0,1.7557,1.9921,2.2089,2.3785,2.5558,2.6573,2.6359,2.6457,2.637,2.5918,2.7433,2.806,2.721,2.8579,2.9488,2.9662,3.0381,3.0738,3.0614,3.0514,2.9781,2.8381,2.8193,2.8156,2.8236,2.8236,2.9085,3.0625,3.1322,3.2072,3.2904,3.4351,3.5581,3.6614,3.7474,3.8063,3.8285,3.7136,3.757,3.8533,3.6644,3.5984,3.5576,3.2827,0.0,0.0,0.0,0.0,0.0,0.0,0.0,0.0,0.0,0.0,0.0,0.0,0.0,0.0,0.0,0.0,0.0,0.0,0.0,0.0,0.0,0.0,0.0,0.0,4.8122,4.9193,5.0045,5.039,5.0,4.8521,4.9163,4.8986,4.7108,4.7169,4.703,4.6274,4.618,4.5688,4.4616,0.0,0.0,0.0,0.0,4.4929,4.3497,4.5002,4.5039,4.3644,4.5902,4.6581,4.592,4.6636,4.7351,4.7994,4.7369,4.6581,4.5773,4.5865,4.4947,4.3444,4.2976,4.3069,4.3515,4.3515,4.3515,4.3515,0.0,0.0,0.0,0.0,0.0,0.0,1.7134,1.9655,2.1699,2.2693,2.4895,2.598,2.4938,2.5599,2.5851,2.5172,2.7194,2.8894,2.9871,2.9706,2.9749,3.0143,3.0516,3.0717,3.0682,3.0038,2.988,3.021,2.8782,2.8432,2.9072,2.9072,2.9615,3.064,3.1477,3.2686,3.4222,3.5541,3.6631,3.7559,3.8745,3.9138,3.9042,3.9173,3.9788,4.0519,3.9853,3.959,3.9217,3.6828,3.5628,3.4774,3.2633,3.1403,0.0,0.0,0.0,0.0,0.0,0.0,0.0,0.0,0.0,0.0,0.0,0.0,0.0,0.0,0.0,0.0,0.0,0.0,0.0,4.809,4.8731,4.9293,5.0429,5.0063,4.9522,4.9196,4.8501,4.764,4.6553,4.6013,4.5402,4.4553,4.4237,4.3985,4.3753,4.3864,0.0,4.3515,4.3808,4.3809,4.3515,4.4452,4.4782,4.4488,0.0,0.0,4.5902,4.6067,4.6214,4.6397,4.6892,4.6269,4.4984,4.5626,4.4947,4.3479,4.3392,4.341,4.3515,4.3515,4.3515,4.3515,0.0,0.0,0.0,0.0,0.0,0.0,1.5734,1.7574,1.9196,2.0312,2.2057,2.3071,2.2781,2.3236,2.3587,2.3737,2.6055,2.863,3.1328,3.0534,3.0318,3.1112,3.0927,3.0778,3.0703,3.0302,3.0061,2.9992,2.914,2.9135,2.9949,2.9949,3.0653,3.1954,3.322,3.4293,3.522,3.7183,3.8251,3.8731,3.9774,4.0098,4.0034,4.0728,4.1508,4.2175,4.1971,4.1906,4.1647,4.0038,3.8874,3.7906,3.6733,3.5396,3.4115,0.0,0.0,0.0,0.0,0.0,0.0,0.0,0.0,0.0,0.0,0.0,0.0,0.0,0.0,4.6063,0.0,0.0,4.8022,4.9286,4.9671,5.0003,5.0615,4.9567,4.8759,4.8759,4.7866,4.6781,4.5561,4.5143,4.4614,4.3809,4.3597,4.3515,4.3515,4.3515,4.3515,4.3515,4.3515,4.3515,4.3515,4.4305,4.4507,4.4103,4.5314,4.5681,4.5296,4.5296,4.5516,4.5902,4.5883,4.5443,4.4691,4.469,4.4231,4.3515,4.3515,4.3515,4.3515,4.3515,4.3515,4.3515,0.0,0.0,0.0,0.0,0.0,0.0,0.0,1.5366,1.6463,1.7938,1.904,1.9911,2.0527,2.0696,2.1437,2.315,2.5306,2.8212,3.2073,3.1109,3.0933,3.2226,3.1541,3.1169,3.1202,3.0863,3.0479,3.0021,2.9632,2.9959,3.0963,3.0918,3.1773,3.3394,3.4924,3.5735,3.6108,3.8533,3.9581,3.9675,4.0643,4.0906,4.0803,4.1846,4.2564,4.3068,4.3267,4.3215,4.2899,4.202,4.0893,3.984,3.9645,3.8313,3.6713,3.6115,3.5317,0.0,0.0,0.0,0.0,0.0,0.0,0.0,0.0,4.5876,4.6927,4.8919,4.9722,4.9992,4.9934,5.0215,5.0402,5.0245,5.0483,5.0712,5.0712,4.9279,4.8241,4.8241,4.7242,4.6047,4.4732,4.4527,4.4209,4.3548,4.3515,4.3515,4.3515,4.3515,4.3515,4.3515,4.3515,4.3515,4.3515,4.4305,4.4378,4.3736,4.5039,4.5333,4.4691,4.4544,4.4819,4.5388,4.4745,4.4562,4.4654,4.3828,4.3515,4.3515,4.3515,4.3515,4.3515,4.3515,4.3515,4.3478,0.0,0.0,0.0,0.0,0.0,0.0,0.0,0.0,1.5288,1.6942,1.7723,1.8321,1.8742,1.9214,2.1197,2.5438,2.6438,2.8434,3.2154,3.1303,3.1424,3.3163,3.248,3.2359,3.2991,3.1493,3.132,3.259,3.0797,3.0732,3.2275,3.203,3.2599,3.3865,3.4828,3.5852,3.6979,3.8699,3.9484,3.9724,4.1259,4.1408,4.0854,4.221,4.2485,4.2309,4.3479,4.3259,4.2293,4.1668,4.0881,3.9994,3.9035,3.8555,3.8251,3.7709,3.7055,3.6469,3.6418,3.7341,3.9559,4.4743,4.5348,4.6228,0.0,5.2437,5.1977,5.3473,5.4105,5.3712,5.1523,5.143,5.146,5.0759,5.0673,5.0712,5.0712,4.9565,4.8716,4.8716,4.6705,4.5114,4.465,4.4294,4.3912,4.3531,4.3515,4.3515,4.3515,4.3515,4.3515,4.3515,4.3515,4.3515,4.3515,4.4305,4.4636,4.458,4.4764,4.4783,4.4673,4.3956,4.368,4.3772,4.3663,4.403,4.4654,4.3828,4.3515,4.3515,4.3515,4.3515,4.3515,4.3515,4.3515,4.3387,0.0,0.0,0.0,0.0,0.0,0.0,0.0,0.0,1.3813,1.4473,1.5131,1.5954,1.7142,1.8592,2.0875,2.4384,2.563,2.7987,3.2172,3.1794,3.2212,3.4082,3.3359,3.3019,3.3239,3.2533,3.2329,3.2711,3.1878,3.2235,3.3724,3.3619,3.4348,3.5798,3.6844,3.7613,3.8243,3.9587,4.0496,4.1118,4.1867,4.2172,4.2218,4.2677,4.2326,4.1645,4.2047,4.1891,0.0,4.0908,4.0116,3.9288,3.9168,3.87,3.8233,3.8432,3.852,3.8879,4.0342,4.2441,4.4707,4.6801,4.8191,4.9747,5.2515,5.2839,5.302,5.4529,5.4791,5.4265,5.2705,5.1932,5.1132,0.0,4.9854,4.9676,4.8741,4.8517,4.8098,4.7163,4.655,4.5859,4.5025,4.4797,4.4385,4.3567,4.3515,4.3515,4.3515,4.3515,4.3515,4.3515,4.3515,4.3515,4.3515,4.3828,4.3993,4.3993,4.3993,4.3993,4.3993,4.3662,4.3515,4.3515,4.3515,4.3681,4.3975,4.3626,4.3515,4.3515,4.3515,4.3303,4.3032,4.2862,4.259,4.2214,0.0,0.0,0.0,0.0,0.0,0.0,0.0,0.0,0.0,0.0,1.3116,1.4215,1.5944,1.8074,2.0339,2.272,2.4501,2.7282,3.1536,3.1738,3.2677,3.4937,3.4218,3.3796,3.3897,3.3894,3.379,3.3555,3.3544,3.4138,3.5294,3.5304,3.5987,3.728,3.8346,3.892,3.9169,4.0461,4.1418,4.2116,4.2715,4.3005,4.3025,4.2695,4.1855,4.084,4.088,4.0606,4.0175,3.986,3.9112,3.8363,3.8819,3.8417,3.7972,3.8932,3.9824,4.0994,4.3221,4.5516,4.745,4.8102,5.0123,5.2158,5.2952,5.3556,5.4261,5.5435,5.5231,5.4451,5.3262,5.2073,5.0805,4.9308,4.9119,4.8763,4.7583,4.7479,4.7147,4.6192,4.6336,4.6259,4.5539,4.5514,4.5148,4.423,4.3956,4.3828,4.3828,4.3608,4.3515,4.3515,4.3515,4.3515,4.3515,4.3515,4.3515,4.3515,4.3515,4.3515,4.3515,4.3515,4.3515,4.3515,4.3515,4.3515,4.3515,4.3515,4.341,4.3249,4.303,4.2631,4.207,4.1452,4.1379,4.1439,0.0,0.0,0.0,0.0,0.0,0.0,0.0,0.0,0.0,0.0,0.0,1.3589,1.5327,1.7499,1.95,2.1136,2.3501,2.6381,2.9851,3.0725,3.2541,3.5724,3.5093,3.4967,3.5613,3.5629,3.5818,3.6175,3.6183,3.6473,3.7025,3.7095,3.7288,3.7621,3.8497,3.9042,3.94,4.1054,4.1861,4.2148,4.3918,4.386,4.2644,4.1978,4.087,3.9766,4.0604,3.9856,3.8454,3.8472,3.7919,3.7289,3.7485,3.7538,3.7811,3.9339,4.0933,4.2536,4.3978,4.4811,4.6082,4.9382,5.1026,5.2542,5.5345,5.6534,5.708,5.7138,5.6339,5.5031,5.2989,5.1891,5.0901,4.967,4.8853,4.8305,4.8282,4.6831,4.6011,4.6691,4.5936,4.557,0.0,4.6286,4.6207,4.5846,4.5112,4.4672,4.4672,4.392,4.3515,4.3515,4.3515,4.3515,4.3515,4.3515,4.3515,4.3515,4.3515,4.3515,4.3515,4.3515,4.3515,4.3515,4.3515,4.3515,4.3515,4.3515,4.3196,4.264,4.1866,4.1238,4.058,3.9075,3.9906,4.1566,0.0,0.0,0.0,0.0,0.0,0.0,0.0,0.0,0.0,0.0,0.0,0.0,0.0,0.0,0.0,0.0,2.2155,2.4247,2.7841,2.9278,3.0913,3.3016,3.3961,3.4507,3.464,3.568,3.6208,3.6168,3.6871,3.7835,3.901,3.9057,3.9397,4.0049,4.1126,4.1293,4.0849,4.217,4.3029,4.3526,4.3455,4.3776,4.4014,4.1411,4.0239,3.9746,0.0,3.7565,3.7085,3.7085,3.6665,3.6216,3.6627,3.6776,3.7265,3.9784,4.2097,4.4246,4.6133,4.7669,4.9183,5.1145,5.2324,5.3252,5.4219,5.4638,5.4802,5.47,5.3317,5.1882,5.1085,4.9833,4.86,4.7657,4.7949,4.7622,4.5661,4.6226,4.5997,4.3758,4.4996,0.0,0.0,0.0,0.0,4.5316,4.4554,4.4099,4.4099,4.3724,4.3515,4.3515,4.3515,4.3515,4.3515,4.3515,4.3515,4.3497,4.3142,4.2752,4.2366,4.2366,4.2366,4.2366,4.2366,4.2366,4.2366,4.2366,4.2284,4.2065,4.18,4.1343,4.0717,3.9704,3.9891,4.0444,0.0,0.0,0.0,0.0,0.0,0.0,0.0,0.0,0.0,0.0,0.0,0.0,0.0,0.0,0.0,0.0,0.0,2.2739,2.5423,2.7123,2.882,3.0559,3.171,3.2382,3.2488,3.3757,3.4403,3.4353,3.5664,3.7031,3.8432,3.877,3.934,4.0123,4.0896,4.0895,4.035,4.1394,4.2112,4.2518,4.2213,4.2572,4.3015,4.0293,3.9239,0.0,3.6859,3.6307,3.6496,3.6221,3.5876,3.5694,3.6224,3.7138,3.84,4.0354,4.2787,4.5209,4.6941,4.8373,4.9722,5.1135,5.215,5.2893,5.3208,5.3442,5.353,5.3308,5.1643,5.012,4.977,4.8619,4.7392,4.6444,4.6765,4.6493,4.4558,4.4993,4.4813,4.2931,4.4257,4.5134,0.0,0.0,0.0,4.5465,4.4739,4.4184,4.3916,4.3254,4.2885,4.2885,4.3105,4.3214,4.3214,4.3214,4.3105,4.2903,4.2541,4.2183,4.181,4.181,4.181,4.181,4.181,4.181,4.181,4.181,4.1664,4.1455,4.1192,4.0727,4.0102,3.9061,3.8937,3.9152,0.0,0.0,0.0,0.0,0.0,0.0,0.0,0.0,0.0,0.0,0.0,0.0,0.0,0.0,0.0,0.0,0.0,0.0,2.2683,2.4371,2.6235,2.8276,2.8507,2.8837,2.9381,3.014,3.0717,3.1088,3.2795,3.4271,3.5509,3.6406,3.719,3.782,3.7932,3.7936,3.7912,3.8839,3.9227,3.9307,4.0185,4.0299,3.9826,3.8603,3.7909,3.7447,3.6156,3.6209,3.6774,3.5972,3.5757,3.5907,3.6457,3.8635,4.0987,4.1129,4.3156,4.5574,4.648,4.7088,4.7875,4.9575,5.0657,5.1542,5.2363,5.2999,5.3272,5.2838,5.1231,4.9664,4.8939,4.8187,4.7296,4.614,4.5636,4.5337,4.5147,4.3557,4.2861,0.0,0.0,0.0,0.0,0.0,0.0,4.6092,0.0,4.4781,4.4079,4.2621,4.181,4.181,4.2362,4.2655,4.2655,4.2655,4.2342,4.175,4.175,4.1729,4.1707,4.1707,4.1707,4.1707,4.1707,4.1707,4.1707,4.1707,4.138,4.0787,4.0078,3.9506,3.8863,3.7376,3.7258,3.7972,0.0,0.0,0.0,0.0,0.0,0.0,0.0,0.0,0.0,0.0,0.0,0.0,0.0,0.0,0.0,0.0,0.0,0.0,2.0438,2.1318,2.2386,2.3727,2.5013,2.5905,2.6386,2.7704,2.8779,2.9569,3.0863,3.2336,3.3979,3.422,3.4261,3.42,3.5605,3.5624,3.4708,3.6327,3.7047,3.7069,3.697,3.7288,3.7735,3.6586,3.6792,3.7615,3.7231,3.7577,3.8094,3.7335,3.776,3.8712,3.9499,4.0738,4.2062,4.2976,4.4789,4.6576,4.6979,4.7714,4.8617,4.9594,5.0036,5.029,5.061,5.0722,5.0486,4.9484,4.8085,4.6882,4.6338,4.6803,4.7151,4.6838,4.8246,0.0,4.7096,4.6519,0.0,4.3766,0.0,4.3976,4.3197,4.4512,0.0,0.0,4.3573,4.3635,4.3443,4.2396,4.181,4.181,4.1958,4.2021,4.2021,4.2021,4.1746,4.1133,4.1133,4.092,4.0538,4.0538,4.0538,4.0538,4.0538,4.0538,4.0538,4.0538,4.0441,4.0294,4.0107,3.9957,3.9691,3.8712,3.8453,3.8564,0.0,0.0,0.0,0.0,0.0,0.0,0.0,0.0,0.0,0.0,0.0,0.0,0.0,0.0,0.0,0.0,0.0,0.0,0.0,1.9291,1.9915,2.0797,2.1858,2.2531,2.2657,2.3487,2.4055,2.4349,2.5807,2.7321,2.8802,2.963,3.0082,3.02,3.1275,3.1279,3.0561,3.1634,3.2308,0.0,0.0,3.3459,3.4666,3.492,3.5756,3.6932,3.777,3.8998,4.0279,4.0763,4.0686,4.0495,4.1045,4.2032,4.3151,4.3943,4.5267,4.6509,4.6679,4.7092,4.7655,4.8455,4.8656,4.8772,4.9249,4.912,4.8682,4.7828,4.6612,4.5563,4.5119,4.6173,4.6984,4.6636,4.8442,4.9313,4.769,4.6771,4.5797,0.0,4.386,0.0,4.2844,4.3656,4.3673,0.0,4.2901,4.3006,4.2355,4.1518,4.1053,4.1053,4.1268,4.1402,4.1402,4.1402,4.1127,4.0552,4.0227,4.0085,4.0096,3.9774,3.9791,4.0096,0.0,4.0096,4.0096,4.0096,4.0096,4.0096,4.0096,3.9876,3.9489,3.8707,3.8201,3.7815,0.0,0.0,0.0,0.0,0.0,0.0,0.0,0.0,0.0,0.0,1.155,0.0,0.0,0.0,0.0,0.0,0.0,0.0,0.0,0.0,1.8258,1.8856,1.9212,1.9224,1.8864,1.8805,1.856,1.803,1.9672,2.1069,2.2293,2.392,2.5048,2.5719,2.5901,2.5983,2.5922,2.6104,2.6706,2.7594,2.8211,2.9438,3.1173,0.0,3.4623,3.5704,3.811,4.0442,4.2714,4.4519,4.3736,4.2036,4.2223,4.3254,4.4423,4.4582,4.5244,4.5954,4.6054,4.5978,4.6085,4.6951,4.7174,4.7326,4.7944,4.7799,4.7326,4.6653,4.5716,4.4904,4.4525,4.581,4.6764,4.6305,4.7769,4.8695,4.7946,4.6235,4.5227,4.5596,4.3742,4.2658,4.3217,4.2675,4.2202,4.2016,4.2692,4.253,4.1271,4.0519,4.0096,4.0096,4.0552,4.0803,4.0803,4.0803,4.0552,4.0096,3.9445,3.9486,4.0079,3.9453,3.9503,4.0096,0.0,0.0,3.9952,4.0045,4.0045,3.9927,3.9927,3.9516,3.8799,3.7933,3.7203,3.6584,0.0,0.0,0.0,0.0,0.0,0.0,0.0,0.0,0.0,0.0,0.972,1.1993,0.0,0.0,0.0,0.0,0.0,0.0,0.0,0.0,0.0,1.7112,1.7562,1.7445,1.667,1.6623,1.6468,1.6107,1.6398,1.7369,1.8922,1.9257,1.9614,2.0084,2.1292,2.1646,2.1351,2.2503,2.3607,2.4637,2.5734,2.6875,2.8239,3.0871,0.0,0.0,3.8777,4.1994,4.4242,4.4649,4.4973,4.526,4.5682,4.608,4.6323,4.5916,4.5936,4.6052,4.5958,4.5881,4.6003,4.6765,4.6984,4.6826,4.6033,4.5967,4.5471,4.3409,4.329,4.3461,4.3121,4.471,4.6507,4.77,4.931,5.0387,5.022,4.9,4.7667,4.6405,4.4458,4.3031,4.254,4.2371,0.0,0.0,0.0,4.1474,4.1221,4.0519,4.0096,4.0096,4.0179,4.0254,4.0254,4.0254,4.0179,4.0096,3.9977,3.9977,4.0096,3.9977,3.9977,4.0096,4.0096,0.0,3.9166,3.985,3.9705,3.9113,3.9113,3.9032,3.8745,3.7336,3.6722,3.6523,0.0,0.0,0.0,0.0,0.0,0.0,0.0,0.929,0.8119,0.8076,0.8907,1.066,1.3663,1.6097,1.8131,0.0,0.0,0.0,0.0,0.0,0.0,1.6418,1.6807,1.643,1.5104,1.5071,1.4529,1.3423,0.0,1.4735,1.5423,1.6478,1.6966,1.7037,1.8163,1.8529,1.8365,1.9064,2.003,2.1235,2.2844,2.4511,2.6307,2.9379,0.0,0.0,3.926,4.1923,4.4053,4.5249,4.5899,4.629,4.6355,4.6431,4.6446,4.6269,4.6103,4.5985,4.5916,4.5807,4.5785,4.6131,4.6119,4.5793,4.4915,4.4566,4.3983,4.2509,4.2359,4.2415,4.2246,4.3996,4.5746,4.6511,4.8626,5.0178,5.0178,4.8704,4.7512,4.7127,4.4233,4.2269,4.2286,4.1619,4.0874,0.0,0.0,4.0629,4.0629,4.0299,4.0096,4.0096,4.0096,3.9926,3.9537,3.9537,3.9537,3.9512,3.914,3.9368,4.0096,3.9706,3.974,4.0096,4.0096,0.0,3.9516,3.9489,3.9489,3.9437,3.8635,3.8553,3.8701,3.7188,3.6615,3.6492,0.0,0.0,0.0,0.0,0.0,0.0,0.0,0.912,0.7964,0.8305,0.8416,0.9619,1.2717,1.5654,1.8112,0.0,0.0,0.0,0.0,0.0,0.0,0.0,0.0,0.0,1.4031,0.0,0.0,1.1295,1.2165,0.0,0.0,0.0,0.0,0.0,1.609,1.6471,1.6592,1.6658,1.7431,0.0,0.0,2.279,2.4892,0.0,0.0,0.0,0.0,4.0517,4.2635,4.4694,4.5432,4.5495,4.5419,4.5849,4.6353,4.6283,4.611,4.5936,4.5936,4.5805,4.5658,4.5658,4.5335,4.4707,4.3657,4.3004,4.2381,4.1474,4.1326,4.1411,4.1578,4.3123,4.4502,4.4865,4.6894,4.8614,4.9122,4.7662,4.6764,4.7393,4.4191,0.0,4.2269,4.1128,0.0,0.0,0.0,0.0,4.0096,4.0096,4.0028,3.9876,3.9859,3.952,3.8768,3.8751,3.8836,3.8988,3.8413,3.8819,4.0079,3.9503,3.9554,4.0096,4.0096,0.0,0.0,3.9342,3.9437,3.9731,3.8513,3.8274,3.8497,3.7098,3.6492,3.6275,0.0,0.0,0.0,0.0,0.0,0.0,0.0,0.9552,0.8493,0.8239,0.7877,0.9202,1.3439,1.6376,1.8473,0.0,0.0,0.0,0.0,0.0,0.0,0.0,0.0,0.0,0.0,0.0,0.0,1.1035,1.048,0.0,0.0,0.0,0.0,0.0,0.0,1.5713,1.6183,1.6531,0.0,0.0,0.0,0.0,0.0,0.0,0.0,0.0,0.0,3.7347,3.9706,4.1252,4.202,4.2414,4.2943,4.5027,4.7127,4.6349,4.6094,4.6082,4.6082,4.5978,4.5867,4.5867,4.5251,4.3975,4.142,4.0787,4.0226,3.8408,3.9071,4.0205,4.0862,4.1613,4.259,4.4054,4.4529,4.5441,4.7571,4.7194,4.6691,4.6708,0.0,0.0,4.2422,4.1576,0.0,0.0,0.0,0.0,4.0096,4.0096,3.9791,3.9106,3.9089,3.8751,3.8024,3.8007,3.8345,3.8988,3.892,3.9334,4.0096,4.0028,4.0045,4.0096,4.0096,0.0,0.0,3.9731,3.961,3.8989,3.8854,3.8442,3.7806,3.6904,3.6165,3.5587,0.0,0.0,0.0,0.0,0.0,0.0,1.0965,0.9951,0.905,0.8412,0.866,1.004,1.3068,1.6212,1.8881,2.0846,0.0,0.0,0.0,0.0,0.0,0.0,0.0,0.0,0.0,0.0,1.3526,1.2361,1.0905,0.0,0.0,0.0,0.0,0.0,0.0,1.4435,1.4997,1.5417,0.0,0.0,0.0,0.0,0.0,0.0,0.0,0.0,0.0,0.0,3.7066,3.8196,3.9018,3.9697,4.0606,4.2307,4.4102,4.4863,4.5513,4.6006,4.608,4.5998,4.6017,4.6453,4.4999,4.3109,4.1726,4.0347,3.8923,3.7425,3.8249,3.9347,3.9648,4.058,4.1518,4.2118,4.2926,4.3966,4.5384,4.5415,4.5476,4.5944,4.4348,0.0,0.0,0.0,0.0,0.0,0.0,0.0,4.0096,4.0096,3.9774,3.9005,3.9436,3.9089,3.7922,3.8345,3.87,3.8988,3.8988,3.9402,4.0096,4.0096,4.0096,4.0096,4.0096,0.0,0.0,3.9262,3.9193,3.8827,3.7873,3.7901,3.8274,3.6554,3.6023,3.6117,0.0,0.0,0.0,0.0,0.0,1.2437,1.1023,1.0249,0.9619,0.8992,0.9613,1.1079,1.3622,1.6522,1.9309,2.1914,2.2727,0.0,0.0,0.0,0.0,0.0,0.0,0.0,0.0,0.0,1.4194,1.3294,1.1397,1.0507,0.0,0.0,0.0,0.0,0.0,0.0,0.0,0.0,0.0,0.0,0.0,0.0,0.0,0.0,0.0,0.0,0.0,0.0,0.0,0.0,0.0,3.6797,3.7723,3.9229,4.1111,4.3393,4.4877,4.5796,4.5996,4.5968,4.5997,4.6425,4.4479,4.2184,4.1119,3.9386,3.7653,3.6434,3.7275,3.8286,3.8525,3.9578,4.0373,4.0314,4.1336,4.2491,4.3506,4.3915,4.4406,4.5207,0.0,4.3031,0.0,0.0,0.0,0.0,0.0,0.0,0.0,3.9893,3.9453,3.87,3.9174,3.8836,3.7584,3.8075,3.8589,3.8988,3.8988,3.9402,4.0096,4.0096,3.9978,3.9756,0.0,0.0,0.0,3.9059,3.9005,3.8497,3.7613,3.7671,3.8015,3.6415,3.6038,3.6196,0.0,0.0,0.0,0.0,0.0,0.0,1.1023,1.0459,1.0175,1.0087,1.0561,1.2183,1.5596,1.76,1.9774,2.2447,2.2936,0.0,0.0,0.0,0.0,0.0,0.0,0.0,0.0,0.0,1.501,1.3294,1.1563,1.0736,1.0746,0.8756,0.9187,1.1571,0.0,0.0,0.0,0.0,0.0,0.0,0.0,0.0,2.6499,0.0,0.0,0.0,0.0,0.0,0.0,0.0,0.0,0.0,0.0,3.6081,3.8907,4.2315,4.4311,4.5473,4.5813,4.5907,4.5818,4.5498,4.3639,4.1255,3.8814,3.7403,3.6258,3.4969,3.576,3.6873,3.7661,3.8414,3.8935,3.8935,3.961,4.0646,4.211,4.2946,4.3707,0.0,0.0,4.479,0.0,0.0,0.0,0.0,0.0,0.0,0.0,3.9419,3.8667,3.7939,3.7922,3.7567,3.6829,3.6829,3.7574,3.8988,3.8988,3.9402,4.0096,4.0096,3.9662,0.0,0.0,0.0,0.0,3.9454,3.9199,3.7892,3.8608,3.7958,3.66,3.6615,3.6134,3.5504,0.0,0.0,0.0,0.0,0.0,0.0,0.0,1.0884,1.0977,1.1041,1.1889,1.338,1.5809,1.813,2.0147,2.1668,2.2965,0.0,0.0,0.0,0.0,0.0,0.0,0.0,0.0,1.6526,1.5783,1.4611,1.2687,1.1098,0.9895,0.9276,0.9311,0.9903,1.0498,0.0,0.0,0.0,0.0,0.0,0.0,2.4168,2.6449,0.0,0.0,0.0,0.0,0.0,0.0,0.0,0.0,0.0,0.0,0.0,0.0,3.839,4.1219,4.3778,4.4486,4.4682,4.4629,4.4476,4.1915,3.9105,3.7864,3.5981,3.4364,3.3955,3.4971,3.6148,3.6856,3.7616,3.8294,3.8766,3.9544,4.0247,4.0597,4.2248,0.0,4.2371,4.2489,4.2134,0.0,0.0,0.0,0.0,0.0,0.0,0.0,3.9123,3.8667,3.7922,3.7905,3.7787,3.755,3.8041,3.8792,3.9757,3.9757,3.9876,4.0096,4.0096,0.0,0.0,0.0,0.0,0.0,3.9454,3.9199,3.7806,3.8064,3.7847,3.7279,3.6243,3.5701,3.5504,0.0,0.0,0.0,0.0,0.0,0.0,0.0,1.1485,1.1619,1.1349,1.2656,1.4153,1.5598,1.8407,2.0587,2.1621,2.3296,0.0,0.0,0.0,0.0,0.0,0.0,0.0,1.7617,1.7451,1.6825,1.5728,1.3899,1.1978,1.0018,0.9291,0.9115,0.9412,0.9942,1.1832,0.0,0.0,0.0,0.0,2.257,2.4236,2.6436,0.0,0.0,0.0,0.0,0.0,0.0,0.0,0.0,0.0,0.0,0.0,0.0,0.0,3.8204,4.0761,4.2307,4.2743,4.2694,4.2527,4.0315,3.799,3.719,3.5383,3.3799,3.3544,3.4213,3.5003,3.5676,3.6439,3.7282,3.8262,3.9125,3.9809,4.0309,0.0,0.0,4.2117,0.0,0.0,0.0,0.0,0.0,0.0,0.0,0.0,0.0,3.8311,3.7956,3.7499,3.7483,3.7483,3.7483,3.821,3.8954,3.9706,3.9977,4.0096,4.0096,4.0096,0.0,0.0,0.0,0.0,0.0,3.9454,3.9005,3.7397,3.769,3.7442,3.6814,3.5846,3.5504,3.5504,0.0,0.0,0.0,0.0,0.0,0.0,0.0,1.2069,1.1978,1.1168,1.2897,1.4497,1.5221,1.8352,2.0884,2.2105,0.0,0.0,0.0,0.0,0.0,0.0,0.0,0.0,1.8149,1.8408,1.7935,1.6647,1.5102,1.3194,1.0952,0.9007,0.8777,1.0009,0.9686,1.1807,0.0,0.0,0.0,0.0,2.3114,2.4691,0.0,0.0,0.0,0.0,0.0,0.0,0.0,0.0,0.0,0.0,0.0,0.0,0.0,0.0,0.0,0.0,0.0,4.0285,4.0274,3.9921,3.884,3.7573,3.6577,3.5332,0.0,3.3604,3.3455,3.3649,3.4384,3.5064,3.602,3.7526,3.8395,3.9427,4.0903,4.1719,0.0,0.0,4.1999,0.0,0.0,0.0,0.0,0.0,0.0,0.0,0.0,3.7161,3.6745,3.6643,3.6694,3.6745,3.6795,3.7483,3.8193,3.892,3.9673,4.0028,4.0028,4.0079,0.0,0.0,0.0,0.0,0.0,3.9411,3.8745,3.6843,3.7544,3.692,3.5651,3.5587,3.5569,3.5504,0.0,0.0,0.0,0.0,0.0,0.0,0.0,0.0,0.0,0.0,1.2628,1.3992,1.6061,1.7644,1.9515,0.0,0.0,0.0,0.0,0.0,0.0,0.0,0.0,0.0,1.9449,1.8596,1.7802,1.7072,1.5656,1.3983,1.1986,1.0057,0.985,1.1072,1.0209,1.2126,0.0,0.0,0.0,0.0,2.2946,2.4422,0.0,0.0,0.0,0.0,2.386,2.416,0.0,0.0,0.0,0.0,0.0,0.0,0.0,0.0,3.4484,3.4684,3.6896,0.0,3.8891,3.8245,3.7134,3.5951,0.0,3.3919,3.308,3.3425,3.3095,3.3095,3.4294,3.4645,3.5399,3.7313,3.8336,3.9206,4.0089,0.0,0.0,4.1644,0.0,0.0,0.0,0.0,0.0,0.0,0.0,0.0,0.0,3.6897,3.6271,3.5064,3.5588,3.618,3.6795,3.6981,3.7415,3.8176,3.8903,3.9242,3.9276,3.9842,0.0,0.0,0.0,0.0,3.8663,3.9032,3.8854,3.8314,3.795,3.7589,3.7175,3.6569,3.5975,3.5587,0.0,0.0,0.0,0.0,0.0,0.0,0.0,0.0,0.0,0.0,0.0,1.3661,1.5747,1.7108,0.0,0.0,0.0,0.0,0.0,0.0,0.0,0.0,0.0,2.0654,2.0224,1.9331,1.8626,1.8153,1.635,1.4668,1.3048,1.0673,1.033,1.1735,1.262,1.4277,0.0,0.0,0.0,2.2262,2.2726,0.0,0.0,0.0,0.0,0.0,2.3421,2.3795,0.0,2.5121,2.6244,2.7704,0.0,0.0,0.0,0.0,3.4094,3.4422,3.6183,3.6918,3.7069,3.6677,3.6071,3.5369,3.4668,3.3698,3.2976,3.3036,3.2763,3.2965,3.4333,3.4848,3.5622,3.7399,3.8379,0.0,0.0,0.0,4.0875,4.1527,0.0,0.0,0.0,0.0,0.0,0.0,0.0,0.0,0.0,3.5419,3.4861,3.4015,3.4387,3.4962,3.5746,3.6457,3.7015,3.7398,3.8481,3.8988,3.9022,3.9774,4.0096,0.0,0.0,0.0,3.8944,3.891,3.8494,3.7887,3.7821,3.7354,3.6692,3.6274,3.6054,3.6054,0.0,0.0,0.0,0.0,0.0,0.0,0.0,0.0,0.0,0.0,0.0,0.0,0.0,0.0,0.0,0.0,0.0,0.0,0.0,0.0,0.0,0.0,2.2806,2.2116,2.0939,2.0301,1.982,1.9404,1.7174,1.5454,1.4112,1.1473,1.0933,1.2366,1.544,1.6895,1.7153,1.8817,2.0259,2.1571,2.2587,0.0,0.0,0.0,0.0,0.0,0.0,0.0,0.0,2.5175,2.5946,2.6977,2.8866,0.0,0.0,0.0,0.0,0.0,3.6442,3.6282,3.5661,3.5671,3.5512,3.519,3.4638,3.3888,3.3216,3.2765,3.271,3.3212,3.46,3.5419,3.6341,3.7741,0.0,0.0,4.1159,4.117,4.1223,0.0,0.0,0.0,0.0,0.0,0.0,0.0,0.0,0.0,0.0,3.3795,3.3355,3.3237,3.3339,3.3694,3.432,3.5746,3.6508,3.6643,3.8108,3.8819,3.8853,3.9723,4.0096,0.0,0.0,0.0,3.8989,3.8937,3.8036,3.6809,3.753,3.6858,3.5533,3.5752,3.618,3.6615,0.0,0.0,0.0,0.0,0.0,0.0,0.0,0.0,0.0,0.0,0.0,0.0,0.0,0.0,0.0,0.0,0.0,0.0,0.0,0.0,0.0,2.4539,2.3333,2.255,2.223,2.1065,2.0281,1.9808,1.8316,1.681,1.5315,1.3424,1.3032,1.395,1.6205,1.7734,1.8739,1.9917,2.0994,2.1997,2.3,0.0,0.0,0.0,0.0,0.0,0.0,0.0,0.0,2.537,2.6295,2.7607,2.8476,0.0,0.0,0.0,0.0,0.0,3.6902,3.7081,3.6508,3.6445,3.5534,3.4638,3.4533,3.3529,3.2795,3.3253,3.3429,3.3935,3.5304,3.6146,3.7081,3.8488,0.0,4.0425,0.0,0.0,0.0,0.0,0.0,0.0,0.0,0.0,0.0,0.0,0.0,0.0,0.0,3.3795,3.3119,3.2496,3.3068,3.3457,3.3575,3.4421,3.5165,3.5785,3.7347,3.8075,3.8125,3.9486,4.0096,0.0,0.0,3.8942,3.8989,3.8937,3.8064,3.6849,3.7548,3.6886,3.575,3.6985,3.71,3.6707,0.0,0.0,0.0,0.0,0.0,0.0,0.0,0.0,0.0,0.0,0.0,0.0,0.0,0.0,0.0,0.0,0.0,0.0,0.0,0.0,2.5428,2.4838,2.457,2.3929,2.2842,2.1828,2.1046,2.0501,1.8518,1.7239,1.6714,1.5875,1.5394,1.5407,1.778,1.9168,1.9693,2.0568,2.1184,2.1614,0.0,0.0,0.0,0.0,0.0,0.0,0.0,0.0,0.0,0.0,2.6375,2.772,2.8382,0.0,0.0,0.0,0.0,0.0,3.6597,3.6981,3.6772,3.7151,3.6742,3.6073,3.5263,3.4607,3.4162,3.4156,3.4488,3.522,3.6675,3.7508,3.8337,3.9373,0.0,3.9845,0.0,0.0,0.0,0.0,0.0,0.0,0.0,0.0,0.0,0.0,0.0,0.0,0.0,0.0,3.2053,3.1718,3.2036,3.2594,3.3406,3.3744,3.4489,3.5616,3.6755,3.7297,3.733,3.8011,3.8329,3.8262,0.0,3.7187,3.7269,3.7992,3.7222,3.5772,3.7215,3.6662,3.5233,3.7114,3.7819,3.7958,0.0,0.0,0.0,0.0,0.0,0.0,0.0,0.0,0.0,0.0,0.0,0.0,0.0,0.0,0.0,0.0,0.0,0.0,0.0,2.4506,2.4885,2.4968,2.5409,2.4851,2.317,2.257,2.1867,2.1044,1.8771,1.7649,1.7653,1.754,1.7327,1.7181,1.926,2.0331,2.0624,2.1137,2.1288,2.1241,0.0,0.0,0.0,0.0,0.0,0.0,0.0,0.0,0.0,0.0,0.0,0.0,0.0,0.0,0.0,3.1605,3.2951,3.4064,3.6011,3.6614,3.6928,3.7777,3.7508,3.6851,3.6066,3.5638,3.5368,3.5206,3.5756,3.6642,3.7987,3.8899,0.0,4.0273,3.9798,0.0,0.0,0.0,0.0,0.0,0.0,0.0,0.0,0.0,0.0,0.0,0.0,0.0,0.0,0.0,3.119,3.119,3.119,3.1833,3.3136,3.3322,3.4129,3.56,3.6417,3.6795,3.6806,3.6804,3.681,3.6759,3.6028,3.572,3.5778,3.6882,3.6145,3.4579,3.6536,3.6466,3.5493,3.7178,3.8402,3.9262,0.0,0.0,0.0,0.0,0.0,0.0,0.0,0.0,0.0,0.0,0.0,0.0,0.0,0.0,0.0,0.0,0.0,0.0,0.0,2.3862,2.4699,2.5515,2.5104,2.4384,2.3315,2.3293,2.2603,2.1179,1.9685,1.845,1.7527,1.7367,1.8192,1.972,2.006,2.0778,2.1792,2.1814,2.1611,2.1261,2.2241,0.0,0.0,0.0,0.0,0.0,0.0,0.0,0.0,0.0,0.0,0.0,0.0,0.0,2.9533,3.1062,3.2455,3.3839,3.5307,3.6219,3.7062,3.8258,3.667,3.5155,3.6446,3.5699,3.5117,3.6397,3.7284,3.8046,3.8781,3.9925,4.0851,4.1087,4.0918,0.0,0.0,0.0,0.0,0.0,0.0,0.0,0.0,0.0,0.0,0.0,0.0,0.0,0.0,0.0,0.0,3.119,3.119,3.1562,3.2378,3.3051,3.4129,3.56,3.6417,3.6795,3.6806,3.6804,3.681,3.6759,3.6108,3.5756,3.572,3.5882,3.5059,3.3818,3.5211,3.6503,3.7568,3.7732,3.875,4.002,0.0,0.0,0.0,0.0,0.0,0.0,0.0,0.0,0.0,0.0,0.0,0.0,0.0,0.0,0.0,0.0,0.0,0.0,0.0,2.259,2.371,2.4259,2.5038,2.5091,2.4328,2.3264,2.2127,2.0874,2.0772,2.027,1.9439,2.0547,2.1233,2.1561,2.1603,2.1867,2.2236,2.1709,2.1346,2.1211,2.1341,2.1073,0.0,0.0,0.0,0.0,0.0,0.0,0.0,0.0,2.6593,2.8123,2.841,2.8896,2.964,3.1002,3.2094,3.3187,3.4538,3.5825,3.7011,3.7933,3.741,3.6862,3.7741,3.761,3.7464,3.8008,3.8342,3.8652,3.8932,4.0031,4.0758,4.0384,0.0,0.0,0.0,0.0,0.0,0.0,0.0,0.0,0.0,0.0,0.0,0.0,0.0,0.0,0.0,0.0,0.0,3.119,3.119,3.1565,3.2293,3.3034,3.3914,3.4928,3.569,3.5845,3.5414,3.4995,3.4575,3.4171,3.3918,3.3803,3.3852,3.475,3.4266,3.3079,3.3932,3.548,3.7226,3.7646,3.8778,4.0096,0.0,0.0,0.0,0.0,0.0,0.0,0.0,0.0,0.0,0.0,0.0,0.0,0.0,0.0,0.0,0.0,0.0,0.0,2.0015,2.1545,2.28,2.3706,2.4917,2.5358,2.4877,2.3335,2.2223,2.1522,2.168,2.1552,2.1129,2.2471,2.2898,2.2547,2.2414,2.2236,2.2029,2.1444,2.1112,2.1016,2.084,2.0625,0.0,0.0,0.0,0.0,0.0,0.0,0.0,0.0,2.6604,2.8155,2.8631,2.9173,2.9874,3.1293,3.2364,3.3367,3.4514,3.596,3.7293,3.7955,3.8308,3.8628,3.911,3.9206,3.9302,3.9733,3.9623,3.946,3.951,4.0155,0.0,0.0,0.0,0.0,0.0,0.0,0.0,0.0,0.0,0.0,0.0,0.0,0.0,0.0,0.0,0.0,0.0,0.0,0.0,0.0,3.119,3.1427,3.1955,3.2679,3.3305,3.3833,3.4793,3.5127,3.4894,3.3987,3.3339,3.2895,3.2465,3.2382,3.266,3.3396,3.3251,3.2601,3.302,3.4687,3.6866,3.7322,3.846,3.9791,0.0,0.0,0.0,0.0,0.0,0.0,0.0,0.0,0.0,0.0,0.0,0.0,0.0,0.0,0.0,0.0,0.0,0.0,1.9973,2.0918,2.225,2.4169,2.4587,2.4788,2.48,2.3697,2.3187,2.3311,2.2364,2.2028,2.224,2.2569,2.273,2.2673,2.2149,2.1631,2.1181,2.1181,2.0957,2.0625,2.1035,2.0654,1.9928,0.0,0.0,0.0,0.0,0.0,0.0,0.0,2.6218,2.7472,2.8948,2.9748,3.041,3.187,3.3359,3.4675,3.538,3.6721,3.8014,3.8491,3.92,3.9951,4.0493,4.0176,4.0182,4.1488,4.1131,4.0598,4.058,4.0365,0.0,0.0,0.0,0.0,0.0,0.0,0.0,0.0,0.0,0.0,0.0,0.0,0.0,0.0,0.0,0.0,0.0,0.0,0.0,0.0,3.119,3.119,3.119,3.1938,3.2293,3.2327,3.38,3.4878,3.5521,3.4211,3.3608,3.3505,3.2117,3.1938,3.2532,3.1796,3.1884,3.2497,3.2512,3.427,3.6758,3.6786,3.7732,3.9089,0.0,0.0,0.0,0.0,0.0,0.0,0.0,0.0,0.0,0.0,0.0,0.0,0.0,0.0,0.0,0.0,0.0,0.0,1.8188,2.0225,2.1528,2.1843,2.3384,2.4594,2.5347,2.5034,2.4312,2.317,2.3299,2.3587,2.4038,2.3847,2.3388,2.2652,2.149,2.1054,2.1117,2.0244,2.0148,2.0569,2.0056,1.9707,1.9534,0.0,0.0,0.0,0.0,0.0,0.0,0.0,0.0,0.0,2.9659,3.1193,3.248,3.2339,3.3711,3.5216,3.4912,3.6183,3.7787,3.849,3.9512,4.0496,4.1028,4.0765,4.0303,4.0153,3.9926,3.9587,3.9078,3.9186,0.0,0.0,0.0,0.0,0.0,0.0,0.0,0.0,0.0,0.0,0.0,0.0,0.0,0.0,0.0,0.0,0.0,0.0,0.0,0.0,3.119,3.119,3.119,3.1938,3.2293,3.2327,3.38,3.4101,3.3365,3.4012,3.3471,3.2065,3.2206,3.2092,3.1796,3.1582,3.1615,3.1883,3.284,3.3782,3.4778,3.6211,3.7054,3.7644,0.0,0.0,0.0,0.0,0.0,0.0,0.0,0.0,0.0,0.0,1.4541,1.5438,0.0,0.0,0.0,0.0,0.0,0.0,1.7445,1.9375,2.0643,2.0784,2.2516,2.4062,2.5272,2.5485,2.5222,2.4456,2.4569,2.4905,2.5429,2.4418,2.3427,2.2402,2.0599,1.9845,1.99,1.9126,1.9187,1.9763,1.9426,1.9287,1.933,0.0,0.0,0.0,0.0,0.0,0.0,0.0,0.0,0.0,2.989,3.1938,3.3879,3.3942,3.549,3.7176,3.6986,3.8069,3.9311,3.9826,4.0683,4.1447,4.1466,4.1144,4.0665,4.018,3.9569,3.8995,3.8528,3.8162,0.0,0.0,0.0,0.0,0.0,0.0,0.0,0.0,0.0,0.0,0.0,0.0,0.0,0.0,0.0,0.0,0.0,0.0,0.0,0.0,3.092,3.0903,3.119,3.165,3.187,3.1887,3.3072,3.3165,3.2413,3.3935,3.3901,3.2663,3.2627,3.2173,3.1473,3.1491,3.1511,3.1627,3.2714,3.3524,3.4273,3.5775,3.6514,3.6985,0.0,0.0,0.0,0.0,0.0,0.0,0.0,0.0,0.0,0.0,1.5868,1.6957,0.0,0.0,0.0,0.0,0.0,0.0,0.0,1.8543,1.9738,2.0673,2.2101,2.3514,2.485,2.541,2.603,2.67,2.5967,2.5921,2.6452,2.4447,2.3007,2.2071,1.9651,1.8439,1.8142,1.7983,1.8228,1.8674,1.905,1.9189,1.9219,1.9189,0.0,0.0,0.0,0.0,0.0,0.0,0.0,0.0,2.9675,3.2112,3.4675,3.6098,3.798,3.976,4.042,4.1135,4.1727,4.1798,4.2245,4.2468,4.1798,4.1233,4.0843,4.0811,3.9567,3.8487,3.8487,3.7165,0.0,0.0,0.0,0.0,0.0,0.0,0.0,0.0,0.0,0.0,0.0,0.0,0.0,0.0,0.0,0.0,0.0,0.0,0.0,3.097,3.0362,3.0328,3.0987,3.1055,3.1106,0.0,3.1921,3.2293,3.2341,3.39,3.4565,3.4429,3.3156,3.2117,3.1338,3.1455,3.1489,3.1607,3.2357,3.3477,3.4689,3.5431,3.6069,3.6702,0.0,0.0,0.0,0.0,0.0,0.0,0.0,0.0,0.0,0.0,0.0,0.0,0.0,0.0,0.0,0.0,0.0,0.0,0.0,1.8138,1.9522,2.0062,2.2823,2.4688,2.5423,2.6021,2.6926,2.8219,2.6467,2.5921,2.644,2.432,2.2866,2.187,1.9566,1.8805,1.9274,1.8049,1.8145,1.9099,1.8507,1.8486,1.8705,1.8408,1.8832,0.0,0.0,0.0,0.0,0.0,0.0,0.0,2.9009,3.1959,3.4733,3.6108,3.805,3.9778,3.9823,4.0454,4.1243,4.1882,4.2134,4.2192,4.2032,4.0397,3.8852,3.8622,3.764,3.6817,3.6817,0.0,0.0,0.0,0.0,0.0,0.0,0.0,0.0,0.0,0.0,0.0,0.0,0.0,0.0,0.0,0.0,0.0,0.0,0.0,0.0,2.9467,2.9331,2.9314,2.9467,3.004,3.0345,0.0,3.1684,3.2293,3.2361,3.3835,3.423,3.3682,3.2882,3.1844,3.0732,3.123,3.1467,3.1689,3.2841,3.3524,3.3976,3.5191,3.5395,3.5267,0.0,0.0,0.0,0.0,0.0,0.0,0.0,0.0,0.0,0.0,0.0,0.0,0.0,0.0,0.0,0.0,0.0,0.0,0.0,0.0,1.9068,2.0546,2.2897,2.4838,2.6187,2.6765,2.7792,2.9221,2.788,2.7347,2.7503,2.4707,2.304,2.2273,1.9702,1.8786,1.9091,1.7908,1.7873,1.863,1.8168,1.8144,1.8295,1.8286,1.8584,1.901,1.947,0.0,0.0,0.0,0.0,0.0,0.0,0.0,3.4557,3.6355,3.892,4.1268,4.1615,4.2044,4.2539,4.313,4.2677,4.2126,4.2249,3.9928,3.772,3.775,3.6555,3.5485,3.5485,0.0,0.0,0.0,0.0,0.0,0.0,0.0,0.0,0.0,0.0,0.0,0.0,0.0,0.0,0.0,0.0,0.0,0.0,2.9008,2.88,2.8976,2.8619,2.8602,2.8993,2.9382,2.9753,3.0106,3.0886,3.1633,3.2344,3.3457,3.359,3.2912,3.2586,3.1854,3.0903,3.1262,3.1433,3.159,3.2592,3.3221,3.3681,3.4711,3.5082,3.5238,0.0,0.0,0.0,0.0,0.0,0.0,0.0,0.0,0.0,0.0,0.0,0.0,0.0,0.0,0.0,0.0,0.0,0.0,0.0,0.0,0.0,2.1174,2.2709,2.4608,2.6978,2.7453,2.8516,3.0229,2.9505,2.9233,2.924,2.5524,2.3498,2.2884,2.0129,1.887,1.8723,1.793,1.775,1.8008,1.8008,1.8008,1.8047,1.8364,1.8588,1.8763,1.916,2.0142,2.126,2.126,0.0,0.0,0.0,0.0,3.3677,3.6214,3.943,4.2405,4.3393,4.3931,4.4271,4.4682,4.362,4.2504,4.259,3.9954,3.7527,3.7647,3.5923,3.4398,0.0,0.0,0.0,0.0,0.0,0.0,0.0,0.0,0.0,0.0,0.0,0.0,0.0,0.0,0.0,0.0,0.0,0.0,2.9273,2.8585,2.8337,2.8605,2.796,2.7943,2.8604,2.8739,2.9161,2.9922,3.0176,3.092,3.2141,3.2747,3.2747,3.2307,3.2369,3.1918,3.1145,3.1306,3.1364,3.1453,3.2134,3.291,3.3746,3.4297,3.4979,3.5718,0.0,0.0,0.0,0.0,0.0,0.0,0.0,0.0,0.0,0.0,1.7405,1.7852,0.0,0.0,0.0,0.0,0.0,0.0,1.4866,0.0,0.0,2.0783,2.2546,2.4781,2.7525,2.7664,2.9109,3.1975,3.0551,3.0535,3.1721,2.7113,2.44,2.3241,2.1107,1.993,1.9487,1.8754,1.8281,1.8008,1.8008,1.8008,1.8018,1.8076,1.8555,1.9209,1.9268,1.9907,2.07,2.07,2.1466,0.0,0.0,0.0,3.0955,3.4524,3.7718,4.0426,4.1952,4.3638,4.5033,4.5371,4.4727,4.3834,4.3169,4.0943,3.8804,0.0,3.5614,0.0,0.0,0.0,0.0,0.0,0.0,0.0,0.0,0.0,0.0,0.0,0.0,0.0,0.0,0.0,0.0,0.0,0.0,0.0,2.8176,2.7679,2.7321,2.7013,2.6894,2.6894,2.7013,2.7638,2.8366,2.9162,3.0429,3.1157,3.1343,3.1444,3.1802,3.231,3.2313,3.16,3.0462,3.1011,3.1287,3.1451,3.2081,3.3149,3.438,3.4467,3.4979,3.5718,0.0,0.0,0.0,0.0,0.0,0.0,0.0,0.0,0.0,0.0,0.0,1.7588,0.0,0.0,0.0,1.5829,1.5879,1.5631,1.4772,1.6529,1.8144,1.9342,2.1575,2.3934,2.647,2.7786,2.9299,3.1109,3.0909,3.0937,3.1176,2.8314,2.6652,2.6009,2.3828,2.2757,2.2459,2.0855,1.9787,1.9134,1.8856,1.8428,1.8037,1.8237,1.8559,1.8984,1.9463,1.9883,2.0244,2.0517,2.0857,2.1586,2.3804,0.0,0.0,0.0,3.5542,3.8498,4.156,4.3384,4.4619,4.5398,4.4932,4.4085,4.3278,4.1123,3.9053,3.818,0.0,0.0,0.0,0.0,0.0,0.0,0.0,0.0,0.0,0.0,0.0,0.0,0.0,0.0,0.0,0.0,0.0,0.0,0.0,2.8851,2.7957,2.7349,2.6914,2.6708,2.6302,2.6285,2.6691,2.7012,2.7571,2.8349,2.9871,3.0581,3.0598,3.1004,3.1376,3.1684,3.1684,3.1358,3.0821,3.1075,3.122,3.1307,3.1584,3.2344,3.3326,3.3728,3.4353,3.5216,0.0,0.0,0.0,0.0,0.0,0.0,0.0,0.0,0.0,0.0,0.0,0.0,0.0,0.0,0.0,0.0,1.5664,1.5133,1.4564,1.5859,1.7026,1.7866,2.0428,2.3026,2.5534,2.7672,2.9227,3.0244,3.1048,3.1168,3.0655,2.9806,2.9199,2.8666,2.6297,2.4877,2.4268,2.2849,2.1541,2.0391,1.9971,1.9444,1.888,1.9059,1.9038,1.9073,2.0075,2.0215,2.0018,2.0708,2.0789,2.0944,2.2888,2.4826,0.0,0.0,0.0,3.7081,4.0854,4.2603,4.3658,4.4863,4.4724,4.4085,4.3278,4.1296,3.9304,0.0,0.0,0.0,0.0,0.0,0.0,0.0,0.0,0.0,0.0,0.0,0.0,0.0,0.0,0.0,0.0,0.0,0.0,0.0,0.0,2.8676,2.794,2.7199,2.6688,2.6437,2.5896,2.5862,2.642,2.6793,2.7266,2.7824,2.9178,2.9922,3.0125,3.0666,3.0946,3.0975,3.0975,3.1055,3.119,3.1035,3.1055,3.119,3.119,3.1667,3.2395,3.3136,3.3863,3.4827,0.0,0.0,0.0,0.0,0.0,0.0,0.0,0.0,0.0,0.0,0.0,0.0,1.7383,1.6992,1.6553,1.6134,1.5664,1.4855,1.3544,1.4214,1.5326,1.6809,1.9451,0.0,2.5534,2.7207,2.8788,3.0283,3.1095,3.1462,3.1446,3.1974,3.1542,3.0258,2.7539,2.513,2.318,2.4186,2.3333,2.1319,2.1296,2.1252,2.1174,2.0662,2.0226,1.9999,2.141,2.1039,2.0121,2.1477,2.1336,2.0944,2.2888,2.4136,2.5455,0.0,0.0,0.0,3.9193,4.0919,4.2245,4.3647,4.4154,4.4085,4.3278,0.0,3.9977,0.0,0.0,0.0,0.0,0.0,0.0,0.0,0.0,0.0,0.0,0.0,0.0,0.0,0.0,0.0,0.0,0.0,0.0,0.0,0.0,2.8676,2.794,2.7199,2.6443,2.5675,2.5625,2.5625,2.5659,2.7046,2.7773,2.7824,2.8653,2.9414,3.0108,3.0142,3.0241,3.0351,3.0351,3.0679,3.1151,3.058,3.0679,3.119,3.119,3.1667,3.2395,3.3136,3.3863,3.4827,0.0,0.0,0.0,0.0,0.0,0.0,0.0,0.0,0.0,0.0,0.0,0.0,0.0,1.7092,1.6553,1.6134,1.5664,1.4989,1.3978,1.5169,1.5927,1.5962,1.9075,2.1631,2.3401,2.5325,2.712,2.8767,2.9248,2.9722,3.0142,2.9973,2.9658,2.9212,2.8936,2.8183,2.7037,2.7009,2.5882,2.4025,2.3332,2.2386,2.1329,2.0705,2.0226,1.9957,2.0435,2.0288,1.9969,2.0494,2.0629,2.0944,2.2888,2.3711,2.459,2.7843,3.0972,3.3934,3.6517,3.8456,4.0193,4.2082,4.2883,4.3053,4.2417,4.095,3.94,0.0,0.0,0.0,0.0,0.0,0.0,0.0,0.0,0.0,0.0,0.0,0.0,0.0,0.0,0.0,0.0,0.0,0.0,0.0,0.0,0.0,2.794,2.6712,2.5897,2.5608,2.5135,2.5338,2.6302,2.6826,2.7097,2.7114,2.7875,2.8636,2.9381,2.9381,2.9675,3.0132,2.9335,2.9618,3.0617,3.0393,3.0658,3.119,3.119,3.1667,3.2395,3.3136,3.3863,3.4827,0.0,0.0,0.0,0.0,0.0,0.0,0.0,0.0,1.9847,1.9285,0.0,0.0,0.0,0.0,1.6463,1.5928,1.5713,1.529,1.4502,1.5675,1.6229,1.5714,1.8671,2.0878,2.2161,2.4096,2.5892,2.761,2.7903,2.8436,2.9088,2.8896,2.8685,2.8525,2.9529,2.9498,2.8656,2.8288,2.7229,2.5666,2.4684,2.3585,2.246,2.1838,2.1526,2.1392,2.1452,2.1223,2.0868,2.0667,2.0508,2.0653,2.2293,2.3355,2.4601,2.7565,2.9622,3.1405,3.3532,3.5326,3.7112,3.9339,4.0578,4.118,4.0888,4.0026,3.8977,0.0,0.0,0.0,0.0,0.0,0.0,0.0,0.0,0.0,0.0,0.0,0.0,0.0,0.0,0.0,0.0,0.0,0.0,0.0,0.0,0.0,2.794,2.6442,2.5382,2.4896,2.4626,2.5083,2.6319,2.6573,2.6691,2.6725,2.7199,2.7841,2.8602,2.8602,2.9035,2.975,2.8943,2.9221,3.0227,3.0067,3.0477,3.119,3.119,3.1667,3.2395,3.3136,3.4032,3.5165,0.0,0.0,0.0,0.0,0.0,0.0,0.0,0.0,2.1798,2.1086,0.0,0.0,0.0,0.0,0.0,1.5498,1.584,1.58,1.5013,1.558,1.5996,1.6139,1.8177,2.0215,2.2161,2.3604,2.5235,2.7003,2.7241,2.7744,2.8487,2.9065,2.9019,2.8494,2.9159,2.8731,2.756,2.7895,2.7319,2.6127,2.5218,2.4872,2.4789,2.4199,2.4087,2.428,2.4595,2.39,2.2756,2.2181,0.0,2.0135,2.1144,2.3075,2.5298,2.7072,2.8131,2.901,0.0,0.0,0.0,3.539,3.7253,3.8556,3.8803,0.0,3.8788,0.0,0.0,0.0,0.0,0.0,0.0,0.0,0.0,0.0,0.0,0.0,0.0,0.0,0.0,0.0,0.0,0.0,0.0,0.0,0.0,2.87,2.794,2.6415,2.4913,2.3473,2.4101,2.4829,2.5592,2.6302,2.6674,2.6691,2.6691,2.7097,2.7807,2.779,2.8276,2.9193,2.9173,2.9523,3.0046,2.9615,3.0123,3.119,3.119,3.1667,3.2429,3.3136,3.4315,3.5819,0.0,0.0,0.0,0.0,0.0,2.4202,2.2874,2.2751,2.2446,0.0,0.0,0.0,1.867,1.7173,1.6279,1.6326,1.6443,1.6449,1.6229,1.6695,1.6992,1.7025,1.8494,2.0191,2.2161,2.2822,2.4418,2.7003,2.6693,2.6965,2.786,2.8018,2.8018,2.786,2.8041,2.8175,2.8332,2.8899,2.8872,2.8327,2.7195,2.6348,2.5584,2.4116,2.315,2.2512,0.0,2.1879,2.1632,0.0,2.1651,2.2006,2.2353,2.3143,2.401,2.4523,2.5698,2.7029,2.7904,0.0,0.0,0.0,0.0,0.0,0.0,0.0,0.0,0.0,0.0,0.0,0.0,0.0,0.0,0.0,0.0,0.0,0.0,0.0,0.0,0.0,0.0,0.0,0.0,0.0,0.0,0.0,3.0055,2.8994,2.7943,2.5936,2.4628,2.4218,2.3881,2.4306,2.5592,2.5812,2.6167,2.6691,2.6691,2.7097,2.779,2.7249,2.7754,2.9022,2.8585,2.9037,3.0101,3.0075,3.0497,3.119,3.119,3.1968,3.3119,3.3322,3.4315,3.5819,0.0,0.0,0.0,2.6246,2.5839,2.5268,2.401,2.3622,2.3233,0.0,0.0,0.0,1.8761,1.7072,1.6271,1.6658,1.6697,1.6775,1.6992,1.7412,1.7646,1.7646,1.8525,1.9991,2.215,2.2697,2.4287,2.7003,2.6845,2.719,2.8034,2.8034,2.8034,2.8034,2.8319,2.8513,2.8637,2.9337,2.9184,2.8469,2.7669,2.6708,2.5576,2.4516,2.382,0.0,0.0,0.0,2.2864,2.1841,2.1902,0.0,2.2116,2.2832,2.3754,2.3573,2.4486,2.5634,2.6012,2.6767,2.7788,2.9217,0.0,0.0,3.4258,3.575,0.0,0.0,0.0,0.0,0.0,0.0,0.0,0.0,0.0,0.0,0.0,0.0,0.0,0.0,0.0,0.0,0.0,0.0,0.0,3.147,3.0288,2.8887,2.7288,2.547,2.4491,2.4491,2.4085,2.4408,2.5592,2.5913,2.6268,2.6691,2.6691,2.6928,2.7334,2.7198,2.7824,2.8991,2.8944,2.9551,3.0562,3.0634,3.0878,3.1157,3.0869,3.1833,3.3406,3.3406,3.4556,3.6231,0.0,0.0,2.8742,2.7498,2.7118,2.6706,2.5775,2.4809,2.4104,0.0,2.2701,2.1058,1.903,1.7358,1.6501,1.6804,1.6843,1.7009,1.7432,1.7803,1.8008,1.8008,1.8383,1.9694,2.2071,2.2938,2.4594,2.7003,2.74,2.7956,2.8607,2.8607,2.8607,2.8622,2.928,2.9265,2.8742,2.94,2.8912,2.7614,2.7441,2.6585,2.5455,0.0,2.5322,2.5327,2.4368,2.4582,2.5011,2.2836,2.2069,0.0,0.0,0.0,0.0,0.0,2.3851,2.4525,2.4587,2.4743,2.5113,2.6092,0.0,0.0,3.0402,3.2482,3.4122,0.0,0.0,0.0,0.0,0.0,0.0,0.0,0.0,0.0,0.0,0.0,0.0,0.0,0.0,0.0,0.0,3.3319,3.2491,3.1599,3.0303,2.8602,2.6445,2.5248,2.4626,2.4626,2.4457,2.4778,2.5592,2.6167,2.6539,2.6691,2.6691,2.6691,2.6725,2.7452,2.8179,2.8908,2.9651,3.0362,3.0937,3.0852,3.097,3.1123,3.048,3.1478,3.3288,3.3372,3.4726,3.6575,2.964,2.99,2.9952,2.9688,2.8475,2.7183,2.6167,2.5608,2.4808,2.3446,2.2128,2.1049,2.0284,1.8945,1.8022,1.7782,1.7764,1.7793,1.7881,1.7969,1.8008,1.8008,1.8383,1.9516,2.1498,2.3102,2.5016,2.7163,2.7825,2.8298,2.8607,2.8607,2.8607,2.8622,2.928,2.9532,2.9457,3.0058,2.9573,2.8381,2.8326,2.8113,2.7641,2.6621,2.5518,2.453,2.4321,2.397,2.3578,2.3592,2.2863,2.19,0.0,0.0,0.0,2.1647,0.0,0.0,0.0,0.0,0.0,0.0,0.0,0.0,3.0261,3.2581,3.4542,0.0,0.0,0.0,0.0,0.0,0.0,0.0,0.0,0.0,0.0,0.0,0.0,0.0,0.0,0.0,0.0,3.4784,3.394,3.2485,3.0409,2.8579,2.7161,2.6001,2.5389,2.5389,2.4222,2.4255,2.5592,2.5151,2.554,2.6691,2.6691,2.6691,2.6725,2.7452,2.7891,2.8077,2.8873,2.9297,2.9382,2.8738,2.955,3.119,3.1038,3.1596,3.2598,3.3186,3.4066,3.5137,3.0372,3.0716,3.0777,3.0359,2.9329,2.8202,2.7195,2.6458,2.5629,2.4627,2.2997,2.1772,2.1302,1.9669,1.8601,1.8646,1.8697,1.863,1.8311,1.9431,1.9545,1.8365,1.8958,1.9981,2.1352,2.2981,2.4929,2.7193,2.828,2.9055,2.9549,2.9549,2.9385,2.9131,3.0118,3.0193,2.9666,3.0612,3.0614,2.9986,2.9355,0.0,2.7332,2.6322,2.5481,2.4794,2.4423,2.4031,2.3722,2.3927,2.3511,0.0,0.0,2.1997,2.1977,0.0,2.1914,2.2406,0.0,0.0,0.0,2.3286,0.0,0.0,0.0,2.9058,3.0785,3.0853,0.0,0.0,0.0,0.0,0.0,0.0,0.0,0.0,0.0,0.0,0.0,0.0,0.0,0.0,0.0,3.5596,3.4431,3.2493,3.0331,2.8752,2.794,2.6444,2.5778,2.6133,2.5067,2.5033,2.6133,2.5778,2.598,2.6691,2.6691,2.6691,2.6725,2.7452,2.7807,2.7841,2.8653,2.8993,2.8976,2.8552,2.9076,3.011,3.011,3.0787,3.1853,3.2577,3.3541,3.4607,3.0582,3.1227,3.15,3.0833,3.0189,2.9458,2.8591,2.7561,2.6708,2.6149,2.4242,2.2731,2.2111,2.0383,1.9233,1.93,1.9562,1.9475,1.8909,2.0698,2.0913,1.8959,1.9567,2.0418,2.1396,2.2862,2.4848,2.7403,2.8679,2.9783,3.0714,3.0714,3.0585,3.0414,3.1177,3.125,3.0837,3.1144,3.1458,3.1591,0.0,2.866,2.719,2.6337,2.5937,2.5675,2.4672,2.4308,2.4302,2.4111,2.3989,2.3664,2.2578,2.2567,0.0,0.0,0.0,0.0,0.0,0.0,0.0,0.0,0.0,2.4722,0.0,0.0,0.0,2.647,0.0,0.0,0.0,0.0,0.0,0.0,0.0,0.0,0.0,0.0,0.0,0.0,0.0,0.0,0.0,3.6373,3.4924,3.2587,3.0918,2.9662,2.8865,2.7039,2.6302,2.6894,2.6065,2.5947,2.6691,2.6556,2.6556,2.6691,2.6691,2.6691,2.6725,2.7452,2.7722,2.7621,2.8416,2.8688,2.8553,2.8553,2.8553,2.8604,2.9044,2.9941,3.1089,3.1989,3.3139,3.4303,3.1256,3.1929,3.2378,3.2273,3.1554,3.0789,3.021,2.9324,2.8251,2.6953,2.507,2.3534,2.2707,2.1966,2.0905,1.9431,2.0009,2.0314,1.996,2.0068,2.0102,1.9957,1.9591,2.0025,2.1363,2.3136,2.537,2.8086,2.8892,3.0068,3.1473,3.1473,3.2102,3.3182,3.207,3.2884,3.4897,3.1903,3.1336,0.0,3.0384,2.9791,0.0,2.8693,2.782,2.7023,2.5092,2.4394,2.4381,0.0,2.3901,2.3368,0.0,2.2932,2.2409,2.2408,0.0,0.0,0.0,0.0,0.0,0.0,2.2969,0.0,0.0,0.0,2.6396,2.6465,0.0,0.0,0.0,0.0,0.0,0.0,0.0,0.0,0.0,0.0,0.0,0.0,0.0,0.0,0.0,0.0,3.6254,3.3803,3.3402,3.2299,3.0119,2.8457,2.7587,2.7672,2.6319,2.5947,2.6691,2.6048,2.6048,2.6691,2.6691,2.6691,2.6725,2.7452,2.7435,2.686,2.7604,2.7571,2.6962,2.6962,2.6962,2.7148,2.9194,3.0091,3.0395,3.1802,3.2814,3.3626,3.1451,3.2034,3.2512,3.2512,3.2524,3.2193,3.1191,3.0299,2.9091,2.7309,2.6325,2.5313,2.4053,2.2983,2.2063,2.1342,2.1878,2.1965,0.0,2.2167,2.2267,2.1239,2.0999,2.1287,2.2147,2.2982,2.4991,2.8196,2.882,3.0177,3.2195,3.2195,3.273,3.3678,3.3022,3.3439,3.4461,3.2945,3.2636,0.0,0.0,0.0,0.0,2.8343,2.7181,2.68,2.5922,2.5631,2.5551,0.0,2.4778,0.0,0.0,0.0,0.0,0.0,0.0,0.0,0.0,0.0,0.0,0.0,0.0,0.0,2.2754,0.0,2.3609,0.0,0.0,0.0,0.0,0.0,0.0,0.0,2.9985,0.0,0.0,0.0,0.0,0.0,0.0,0.0,0.0,0.0,0.0,0.0,0.0,3.2653,3.1645,2.9179,2.7807,2.7807,2.6793,2.6387,2.6691,2.6387,2.6387,2.6691,2.6691,2.6691,2.6708,2.7012,2.6996,2.6708,2.7029,2.6996,2.6691,2.6691,2.6945,2.7469,2.8907,2.9448,2.9634,3.1125,3.2391,3.344,3.1735,3.2303,3.2841,3.3021,3.344,3.338,3.2213,3.1364,3.0201,2.8519,2.8064,2.7275,2.5569,2.4354,2.3452,2.2973,2.3364,2.328,0.0,0.0,2.3546,2.2056,2.1876,0.0,2.2726,2.3091,2.4953,2.8401,2.8813,3.0333,3.2868,3.2868,3.3461,3.4529,3.4109,3.4264,3.4806,3.3972,3.3724,3.3705,3.2206,3.1233,3.0485,2.8017,2.696,2.6756,2.6381,2.6366,2.6376,2.5495,2.5164,0.0,2.4504,0.0,0.0,0.0,0.0,0.0,2.2103,0.0,0.0,0.0,0.0,0.0,0.0,0.0,0.0,0.0,0.0,0.0,0.0,0.0,0.0,2.4944,0.0,2.7565,0.0,0.0,0.0,0.0,0.0,0.0,0.0,0.0,0.0,0.0,0.0,0.0,3.2938,3.0248,2.8551,2.8128,2.7604,2.7131,2.6691,2.6894,2.6894,2.6691,2.6691,2.6691,2.6691,2.6691,2.6691,2.6691,2.6691,2.6691,2.6691,2.6691,2.7131,2.7874,2.8705,2.9128,2.9467,3.0717,3.2138,3.3406,3.2333,3.3021,3.3664,3.4339,3.4459,3.4249,3.3529,3.2698,3.187,3.1161,3.0461,2.9196,0.0,0.0,0.0,0.0,0.0,2.3838,2.3478,0.0,2.2561,0.0,0.0,2.1745,0.0,2.3727,2.5732,2.8975,2.8989,3.0587,3.3572,3.3572,3.4676,3.6635,3.5267,3.5821,3.76,3.4864,3.3997,3.4302,3.2292,3.0338,2.8585,0.0,2.8132,2.7395,2.6099,0.0,0.0,2.5082,2.4593,0.0,0.0,0.0,0.0,0.0,0.0,0.0,0.0,0.0,0.0,2.202,0.0,0.0,0.0,0.0,2.0841,0.0,0.0,0.0,0.0,0.0,1.8311,2.0953,2.2443,0.0,0.0,0.0,0.0,0.0,0.0,0.0,0.0,0.0,0.0,0.0,0.0,0.0,3.379,3.204,3.0448,2.901,2.8942,2.8214,2.6708,2.7401,2.7401,2.6691,2.6691,2.6691,2.6691,2.6691,2.6691,2.6691,2.6691,2.6691,2.6691,2.6691,2.7131,2.7874,2.8705,2.9431,3.0176,3.092,3.2138,3.3406,3.3679,3.4024,3.4249,3.4474,3.4861,3.4936,3.4247,3.3908,3.3132,0.0,3.1051,0.0,0.0,2.7001,2.5901,0.0,0.0,2.4091,2.4336,2.4174,0.0,0.0,0.0,2.3064,0.0,0.0,2.5469,2.8021,2.8662,3.0565,3.3533,3.3598,3.4737,3.6696,3.5736,3.571,3.632,3.5355,3.4504,0.0,0.0,3.0261,2.8494,0.0,0.0,2.754,2.7091,2.6767,0.0,2.6078,2.5598,2.5143,2.4654,2.4319,2.3904,2.2724,2.2285,0.0,0.0,0.0,2.0779,2.1157,0.0,0.0,0.0,0.0,0.0,0.0,0.0,0.0,0.0,0.0,1.7697,1.8833,1.9403,2.0665,0.0,0.0,0.0,0.0,0.0,0.0,0.0,0.0,0.0,0.0,0.0,0.0,0.0,3.2403,3.0751,2.9753,2.9264,2.8484,2.7435,2.7672,2.7418,2.6691,2.6691,2.6691,2.6691,2.6691,2.6691,2.6691,2.6691,2.6691,2.6725,2.7232,2.7892,2.867,2.9431,3.0176,3.0852,3.1106,3.2138,3.3541,3.4384,3.4503,3.4593,3.4801,3.5205,3.5355,3.4906,3.4846,0.0,0.0,3.2286,0.0,2.9679,0.0,2.723,0.0,2.5636,2.5,2.578,2.5215,0.0,2.448,2.3963,0.0,0.0,0.0,0.0,2.7063,2.8812,3.0707,3.2752,3.3582,3.4665,3.5959,3.5998,3.5876,3.5616,3.591,3.5165,0.0,0.0,3.0717,0.0,0.0,2.8319,2.757,0.0,2.6971,2.6512,2.6048,2.5615,2.5118,2.4394,2.4189,2.3975,2.2837,2.233,2.1981,2.1236,2.0866,0.0,2.0943,2.1493,0.0,2.1153,0.0,0.0,0.0,0.0,0.0,0.0,0.0,1.7383,1.7541,1.769,1.8575,0.0,2.3735,0.0,0.0,0.0,0.0,0.0,0.0,0.0,0.0,3.6395,0.0,0.0,0.0,3.1529,3.0531,3.0023,2.9279,2.8247,2.823,2.7841,2.7097,2.6826,2.6691,2.6691,2.6691,2.6691,2.6691,2.6691,2.6691,2.6725,2.7198,2.8044,2.9044,2.9516,3.0311,3.119,3.119,3.2138,3.3609,3.4429,3.458,3.4836,3.5494,3.5584,0.0,0.0,0.0,3.5106,0.0,3.407,3.3388,3.0609,2.9724,2.9197,2.8934,2.7068,2.6346,2.7505,2.6002,0.0,0.0,2.355,2.296,2.3382,0.0,0.0,0.0,2.9302,3.0991,3.1508,3.3576,3.4591,3.4724,3.6105,3.6299,3.56,3.64,3.5881,3.4353,3.2886,3.1601,3.0466,2.9746,2.8693,2.756,2.6881,2.6602,2.6348,2.5068,2.4605,2.444,2.3804,2.3595,2.3486,2.2875,2.2253,2.1715,2.1583,2.1146,2.0833,2.1295,0.0,0.0,0.0,0.0,2.0299,0.0,0.0,0.0,0.0,0.0,0.0,1.7135,1.7288,1.8052,1.9834,0.0,0.0,0.0,0.0,0.0,0.0,0.0,3.818,3.8288,3.7088,3.6052,0.0,0.0,3.278,3.1292,3.1207,3.0516,2.9077,2.9027,2.8602,2.779,2.7046,2.6691,2.6691,2.6691,2.6691,2.6691,2.6691,2.6691,2.6691,2.6742,2.7639,2.8993,2.9044,2.9974,3.1258,3.1292,3.2205,3.3609,3.5205,3.5685,3.6276,0.0,3.6675,3.6134,0.0,0.0,0.0,0.0,3.374,3.302,3.0697,2.898,2.7951,2.7897,2.6439,0.0,0.0,0.0,0.0,2.3793,2.3787,2.3177,2.1828,2.388,0.0,2.682,0.0,3.1308,3.3665,3.3795,3.4386,3.5374,3.5728,3.5487,3.4827,3.5588,3.5368,3.4353,3.2886,3.1846,0.0,0.0,2.9316,2.8183,2.7564,2.6692,2.5809,2.5457,2.4687,2.3834,2.3655,2.3595,2.3486,2.2875,2.2581,2.2226,2.1265,2.0894,2.0693,2.0331,2.0865,2.1362,0.0,0.0,0.0,0.0,0.0,0.0,0.0,0.0,0.0,1.869,1.8215,1.8281,0.0,0.0,0.0,2.4577,0.0,0.0,0.0,3.4047,3.5081,3.6792,3.6041,3.544,0.0,0.0,0.0,3.2056,3.1478,3.0751,2.9837,2.9281,2.8602,2.779,2.7046,2.6691,2.6691,2.6691,2.6691,2.6691,2.6691,2.6691,2.6742,2.7283,2.8095,2.9044,2.96,3.0717,3.209,3.2628,3.3085,3.3609,3.5878,3.6789,0.0,3.8135,0.0,0.0,3.7095,3.7153,0.0,3.4668,3.3691,0.0,3.1089,2.9165,2.8108,2.8387,2.7068,0.0,2.682,0.0,0.0,2.4838,2.4727,2.4009,2.2548,2.4391,0.0,2.6462,0.0,3.1003,3.2481,3.3495,3.4259,3.4755,3.5696,3.587,3.552,3.5943,3.569,3.4861,3.3372,0.0,0.0,3.0709,2.9717,2.8802,2.8155,2.6915,2.557,2.5247,2.4477,2.3595,2.3595,2.3595,2.353,2.3187,2.2897,2.2535,2.1823,2.1224,2.0771,2.067,2.0694,2.0808,2.1025,2.0893,2.0659,0.0,0.0,0.0,0.0,0.0,0.0,1.9369,0.0,0.0,0.0,0.0,0.0,0.0,2.4793,0.0,0.0,3.1563,3.2904,3.5423,3.5185,0.0,0.0,0.0,0.0,3.2814,3.2073,3.1326,3.0598,3.0159,2.9397,2.8332,2.7554,2.7012,2.6691,2.6691,2.6691,2.6691,2.6691,2.6691,2.6725,2.7165,2.7977,2.9111,3.0159,3.1275,3.2395,3.3136,3.3609,3.41,3.6826,3.7986,0.0,0.0,0.0,0.0,0.0,3.7894,0.0,3.5452,0.0,3.2322,3.1444,2.9687,2.8813,2.9399,0.0,2.7749,2.8698,2.7604,2.6794,2.6532,2.5593,2.4813,2.4238,2.5195,2.5876,0.0,0.0,3.0718,3.0587,3.3171,3.4253,3.4072,3.5696,3.6521,3.6643,3.6643,3.618,3.5329,3.3943,3.3045,3.2326,3.0948,3.0043,2.9422,2.8677,2.7315,2.5727,2.495,2.4273,2.3702,2.3616,2.3595,2.3595,2.3595,2.3231,2.2785,2.2717,2.1894,2.1151,2.1592,2.0805,2.022,2.1352,2.1147,2.0738,2.0805,2.1145,2.1127,0.0,0.0,0.0,0.0,0.0,0.0,0.0,0.0,0.0,0.0,0.0,0.0,0.0,0.0,3.1697,3.4526,3.4693,0.0,0.0,0.0,0.0,3.344,3.2682,0.0,3.1343,0.0,3.0395,2.9128,2.8229,2.7401,2.6691,2.6691,2.6691,2.6691,2.6691,2.6691,2.6725,2.6793,2.774,2.9281,3.0649,3.1718,3.253,3.3169,3.3931,3.4844,3.9202,0.0,0.0,0.0,0.0,4.0254,4.0728,3.9542,3.7452,3.4285,3.3603,3.2697,3.0871,2.9381,2.8565,2.8673,2.7986,0.0,0.0,0.0,0.0,2.5669,2.4511,2.4039,2.4349,2.4878,2.6376,0.0,0.0,3.2056,3.4487,3.3921,3.4566,3.6126,3.5321,3.5281,3.5802,3.5802,0.0,3.4624,3.3761,3.2955,3.2235,3.1355,3.0679,3.0046,2.9366,2.8218,2.6825,2.5654,2.481,2.4163,2.3745,2.3595,2.3595,2.3595,2.353,2.3334,2.2844,2.2535,2.2267,2.1805,2.1148,2.0809,2.1512,2.1225,2.0916,2.1418,2.1206,2.0989,2.1224,0.0,0.0,0.0,0.0,0.0,0.0,0.0,0.0,0.0,0.0,0.0,0.0,0.0,0.0,0.0,0.0,0.0,0.0,0.0,0.0,0.0,0.0,0.0,0.0,0.0,3.0176,2.9888,2.8483,2.7401,2.6691,2.6691,2.6691,2.6691,2.6691,2.6691,2.6742,2.735,2.8517,2.9989,3.0852,3.2019,3.322,3.3355,3.4247,3.5532,4.1037,0.0,0.0,0.0,0.0,0.0,0.0,3.8886,0.0,3.4924,3.3684,3.249,3.1117,2.9761,2.885,2.8535,2.8222,2.7795,2.7111,2.706,2.6893,2.6508,2.6191,0.0,2.6369,2.6817,2.8076,3.0161,0.0,3.2137,3.424,3.4073,3.4787,3.6169,3.5861,3.6122,0.0,0.0,0.0,3.4438,3.3694,3.2949,3.2226,3.1481,3.1015,3.061,2.9527,2.8721,2.7941,2.6377,2.5395,2.4732,2.4163,2.4012,2.3948,2.3681,2.3595,2.353,2.3246,2.2957,2.2694,2.2688,2.1969,2.1438,2.2077,2.1724,2.1342,2.1639,2.1472,2.1336,2.1548,2.1797,0.0,0.0,0.0,0.0,0.0,0.0,0.0,0.0,0.0,0.0,0.0,0.0,0.0,0.0,0.0,0.0,0.0,0.0,0.0,0.0,0.0,0.0,0.0,0.0,0.0,3.0091,2.9345,2.8619,2.7893,2.7469,2.7283,2.7249,2.686,2.6911,2.735,2.8517,2.943,3.0226,3.1326,3.2442,3.3457,3.3829,3.4675,3.5769,0.0,4.2841,0.0,0.0,4.1897,0.0,3.8497,3.7872,3.7059,3.5366,3.3714,3.2369,3.1477,3.0319,2.9406,2.8919,2.8654,2.831,2.7835,2.7675,2.7594,2.7528,2.7905,2.8154,2.823,2.8629,2.943,0.0,0.0,0.0,3.3472,3.4336,3.5008,3.5497,0.0,0.0,0.0,0.0,3.5076,3.4218,3.3643,3.2865,3.2005,3.141,3.119,3.1038,2.989,2.9264,2.8782,2.7344,2.6196,2.5259,2.4612,2.441,2.4287,2.3752,2.3595,2.3595,2.3595,2.3246,2.3009,2.3486,2.2741,2.2077,2.2725,2.2392,2.1946,2.2086,2.1993,2.1904,2.1815,2.2575,0.0,0.0,0.0,0.0,0.0,0.0,0.0,0.0,0.0,0.0,0.0,0.0,0.0,0.0,0.0,0.0,0.0,0.0,0.0,0.0,0.0,3.3355,3.2767,0.0,3.1481,0.0,3.0176,2.9702,2.8976,2.818,2.7807,2.7756,2.7012,2.7215,2.8162,2.9531,3.0192,3.0463,3.1802,3.2747,3.3491,3.4218,3.5064,3.6039,0.0,0.0,0.0,0.0,0.0,0.0,3.8937,3.7777,3.6125,3.3964,3.3484,3.2804,3.1473,3.0647,3.0187,3.0145,2.9134,2.8463,2.8415,2.791,2.7604,2.7573,2.7579,2.7807,2.8283,2.8276,2.8951,0.0,0.0,0.0,0.0,3.521,0.0,0.0,0.0,0.0,0.0,3.5385,3.4788,3.3508,3.344,3.256,3.1292,3.1224,3.119,3.1173,3.1038,3.0144,2.8975,2.8799,2.7499,2.576,2.4732,2.441,2.4287,2.3752,2.3595,2.3595,2.3595,2.3551,2.353,2.3588,2.3098,2.2762,2.3377,2.3031,2.2762,2.3319,2.2987,2.2582,2.2514,2.2148,2.2176,0.0,0.0,0.0,0.0,0.0,0.0,0.0,0.0,0.0,0.0,0.0,0.0,0.0,0.0,0.0,0.0,0.0,0.0,3.5515,0.0,3.4353,3.4286,3.2327,0.0,3.1089,3.0429,2.9702,2.8976,2.818,2.7807,2.7756,2.7012,2.7537,2.8959,2.977,3.0497,3.1173,3.1989,3.2747,3.3491,3.4218,3.5419,3.6789,0.0,0.0,0.0,0.0,0.0,0.0,0.0,3.7838,3.6645,3.4393,3.3696,3.2866,3.1407,3.0985,3.0699,3.0335,2.9848,2.9429,2.9042,2.881,2.8857,2.9262,2.9243,2.974,3.0791,3.0796,3.1467,0.0,0.0,0.0,0.0,0.0,0.0,0.0,0.0,3.6282,3.5847,3.5199,3.4353,3.3406,3.3406,3.2527,3.119,3.119,3.119,3.1072,3.0211,2.9501,2.8857,2.7943,2.7095,2.6297,2.558,2.5144,2.4776,2.4225,2.3858,2.3595,2.3595,2.3595,2.3595,2.3595,2.3421,2.3312,2.3551,2.3421,2.3312,2.3551,2.3421,2.3105,2.2733,2.31,2.3238,0.0,0.0,0.0,0.0,0.0,0.0,0.0,0.0,0.0,0.0,0.0,0.0,0.0,0.0,0.0,0.0,0.0,0.0,3.6952,0.0,3.3613,3.4472,3.2307,3.119,3.119,3.0903,3.0598,3.0277,2.9533,2.8939,2.8535,2.8687,2.9093,2.9719,3.0463,3.119,3.1938,3.2662,3.3406,3.4201,3.5419,3.6271,3.6981,4.2016,0.0,4.1728,0.0,4.0527,3.9715,3.8142,3.7533,3.6569,3.4726,3.3863,3.2916,3.1647,3.1326,3.1035,3.0601,3.0414,3.0123,2.9695,2.9496,2.9608,3.008,3.0519,0.0,3.2173,3.2604,3.3221,3.4014,3.4942,0.0,0.0,0.0,0.0,0.0,3.6068,3.6011,3.6084,3.5182,3.4269,3.3406,3.3406,3.2527,3.119,3.119,3.119,3.1055,3.0025,2.9365,2.884,2.774,2.7063,2.6624,2.6156,2.5633,2.5089,2.4572,2.4012,2.3595,2.3595,2.3595,2.3595,2.3595,2.3595,2.3595,2.3595,2.3595,2.3595,2.3595,2.3595,2.3465,2.3031,2.3696,2.3918,2.2737,0.0,0.0,0.0,0.0,0.0,0.0,2.2823,2.3536,2.4849,0.0,0.0,0.0,0.0,0.0,0.0,0.0,0.0,0.0,0.0,0.0,0.0,3.2188,3.119,3.119,3.119,3.119,3.1173,3.0446,2.9702,2.9044,2.9786,3.0108,3.0176,3.1123,3.1836,3.2395,3.3355,3.4032,3.4675,3.6237,3.6948,3.7297,4.1373,4.1221,4.0984,4.0248,3.8903,3.7939,3.7905,3.6597,3.5368,3.459,3.3863,3.3119,3.2361,3.165,3.119,3.119,3.0638,3.0293,3.0293,2.9739,2.9406,0.0,0.0,3.1494,3.151,3.2871,3.3271,3.2608,0.0,0.0,3.4771,0.0,3.7087,3.565,3.6434,3.5949,3.4573,3.5301,3.4737,3.3406,3.3406,3.2527,3.119,3.119,3.119,3.119,3.1173,3.0245,2.8993,2.8976,2.796,2.6624,2.6156,2.5633,2.5089,2.4572,2.4012,2.3595,2.3595,2.3595,2.3595,2.3595,2.3595,2.3595,2.3595,2.3595,2.3595,2.3595,2.3595,2.3595,2.3595,2.361,2.3812,2.4462,0.0,0.0,0.0,0.0,0.0,0.0,2.6757,2.7536,2.5759,0.0,0.0,0.0,0.0,0.0,0.0,0.0,0.0,3.5628,3.4878,0.0,3.3423,3.1935,3.119,3.119,3.119,3.119,3.1173,3.0446,2.9702,2.9044,2.9786,3.0108,3.0226,3.1684,3.2293,3.2446,3.3918,3.4489,3.4675,3.6237,3.7246,3.799,4.0519,4.0468,4.0383,4.0146,3.9317,3.8481,3.799,3.706,3.6129,3.5351,3.4607,3.4049,3.3833,3.2239,3.119,0.0,3.1015,3.0918,0.0,3.074,3.0638,3.0638,3.1536,3.2285,3.2785,3.3733,3.4366,3.4649,0.0,0.0,0.0,3.6821,3.6603,3.5616,3.5876,3.5436,3.4506,3.4742,3.3998,3.2666,3.2666,3.2073,3.119,3.119,3.119,3.1123,3.0632,2.982,2.8925,2.8366,2.752,2.6674,2.6505,2.6139,2.5707,2.554,2.5125,2.4692,2.4692,2.443,2.4158,2.4158,2.3879,2.3595,2.3595,2.3595,2.3595,2.3595,2.3595,2.3595,2.3595,2.39,2.4088,2.3944,2.3872,0.0,0.0,0.0,0.0,0.0,2.4487,2.4408,0.0,2.5672,0.0,0.0,0.0,0.0,0.0,0.0,0.0,0.0,3.3711,0.0,3.3406,3.1935,3.1332,3.1621,3.1621,3.177,3.2074,3.1509,3.1123,3.0898,3.087,3.114,3.165,3.2107,3.3186,3.4607,3.5081,3.5893,3.6941,3.7922,3.8447,3.8751,4.0096,4.0096,4.0011,3.974,3.9073,3.8345,3.7601,3.684,3.6163,3.5667,3.4962,3.4489,3.4489,3.3017,0.0,3.2036,3.1765,3.1596,3.1596,3.1343,3.119,3.119,3.1921,3.253,3.2983,0.0,0.0,3.5199,3.5977,3.6349,3.6349,3.6349,3.5926,3.5199,3.5199,3.4776,3.4083,3.4083,3.3389,3.2293,3.2293,3.187,3.119,3.119,3.119,3.114,3.0683,2.9854,2.8976,2.8755,2.7959,2.7114,2.7114,2.6907,2.6593,2.6115,2.5615,2.5202,2.5202,2.4969,2.4712,2.4712,2.445,2.4158,2.3948,2.373,2.3595,2.3595,2.3595,2.3595,2.3595,2.4032,2.4287,2.3948,2.4348,2.4712,2.4712,0.0,0.0,0.0,0.0,0.0,0.0,2.552,0.0,0.0,0.0,0.0,0.0,0.0,0.0,3.5487,3.2966,0.0,3.2577,3.1664,3.1255,3.1356,3.1516,3.1915,3.2484,3.2004,3.1807,3.1789,3.1372,3.1633,3.2327,3.2615,3.3846,3.5633,3.5943,3.6823,3.799,3.8717,3.8988,3.9106,4.0096,4.0096,0.0,0.0,3.8396,0.0,3.6914,3.6129,3.56,3.56,3.5013,3.4573,3.4573,3.3964,3.3558,3.3558,0.0,0.0,0.0,3.1616,3.119,3.119,3.1921,3.2293,3.2293,3.3749,3.4523,3.4573,3.5216,3.5515,3.5515,3.5515,3.5131,3.4421,3.4421,3.4015,3.3322,3.3322,3.2899,3.2226,3.2226,3.1819,3.119,3.119,3.119,3.119,3.119,3.0296,2.9179,2.9871,2.9108,2.7874,2.7824,2.7807,2.7567,2.639,2.5689,2.5297,2.5297,2.5278,2.5259,2.5259,2.524,2.5067,2.4532,2.4012,2.3638,2.3595,2.3595,2.3595,2.3595,2.4074,2.445,2.441,2.4875,2.5259,2.5259,0.0,0.0,0.0,0.0,0.0,0.0,2.6919,2.7347,0.0,0.0,0.0,0.0,0.0,3.4821,3.3453,3.2628,3.1904,3.1207,3.119,3.1031,3.0698,3.1159,3.1777,3.2484,3.2004,3.1807,3.1789,3.144,3.1701,3.2429,3.3169,3.4387,3.5819,3.6569,3.7347,3.8142,3.8819,3.9073,3.9157,0.0,0.0,3.9876,3.9123,3.8396,3.7652,3.6914,3.6129,3.56,3.56,3.5447,3.5329,3.5329,3.5177,3.5076,3.5076,3.3372,3.2293,3.2293,3.1616,3.119,3.119,3.1921,3.2293,3.2293,3.3749,3.4776,3.5329,3.4962,3.4759,3.4759,3.4759,3.437,3.366,3.366,3.3254,3.2564,3.2564,3.2141,3.1464,3.1464,3.1362,3.119,3.119,3.119,3.119,3.119,3.0615,2.9871,3.004,2.9482,2.8602,2.7993,2.7807,2.7637,2.6792,2.6436,2.635,2.635,2.607,2.5815,2.5815,2.5486,2.5067,2.4532,2.4287,2.4095,2.3666,2.3595,2.3595,2.3595,2.4369,2.4875,2.4471,2.5202,2.5815,2.5815,2.5822,0.0,0.0,2.704,2.6799,2.6359,2.7316,2.821,0.0,0.0,0.0,0.0,3.3746,3.3758,3.3402,3.2138,3.1376,3.119,3.119,3.1306,3.153,3.2001,3.2324,3.2484,3.2004,3.1807,3.1805,3.1969,3.2459,3.3203,3.3931,3.547,3.7381,3.7567,3.843,3.9605,3.9791,3.9842,3.9859,4.0096,4.0096,3.9876,3.9123,3.8667,3.8159,3.7415,3.6654,3.6146,3.6146,3.5842,3.56,3.56,3.56,3.56,3.56,3.4184,3.3413,3.3665,3.2757,3.2156,3.2074,3.2213,3.2141,3.1802,3.2919,3.3863,3.4585,3.4201,3.3998,3.3998,3.3998,3.3592,3.2899,3.2899,3.2476,3.1802,3.1802,3.1582,3.119,3.119,3.119,3.119,3.119,3.119,3.119,3.119,3.0734,3.014,3.0497,3.0108,2.9431,2.8973,2.8618,2.8197,2.7435,2.6962,2.6691,2.6691,2.6505,2.6314,2.6314,2.5926,2.5486,2.5202,2.495,2.4677,2.4389,2.4137,2.3985,2.3985,2.4923,2.5508,2.4879,2.6227,2.7234,2.6865,2.7024,0.0,2.7896,2.762,2.7344,2.7189,2.7791,2.851,2.9237,0.0,0.0,3.2848,3.2899,3.2899,3.2899,3.1782,3.119,3.119,3.103,3.1222,3.1789,3.1913,3.2147,3.2484,3.2004,3.1997,3.236,3.231,3.2919,3.3931,3.432,3.5842,3.7905,3.7905,3.8802,4.0096,4.0096,4.0096,4.0096,4.0096,4.0096,3.9876,3.9123,3.8988,3.8751,3.8024,3.7364,3.6931,3.6812,3.6214,3.5718,3.5616,3.56,3.56,3.56,3.5096,3.4916,3.5272,3.4011,3.3182,3.3112,3.2596,3.2005,3.1376,3.209,3.2835,3.3575,3.3457,3.3339,3.3237,3.3237,3.2831,3.2141,3.2141,3.1802,3.119,3.119,3.119,3.119,3.119,3.119,3.119,3.119,3.119,3.119,3.119,3.0801,3.0362,3.0987,3.0784,3.026,3.0142,2.9668,2.8993,2.806,2.735,2.6843,2.6725,2.6691,2.6691,2.6691,2.6401,2.6103,2.6031,2.5652,2.5297,2.5221,2.493,2.4687,2.4687,2.5739,2.6418,2.5899,2.7599,2.8789,2.8229,0.0,2.8612,2.8973,2.8395,2.8054,2.8288,2.8528,2.8876,2.937,3.0535,3.1461,0.0,3.2141,3.2141,3.2141,3.1532,3.119,3.119,3.0857,3.1023,3.1697,3.1428,3.1649,3.2282,3.2,3.225,3.2869,3.2695,3.3343,3.4506,3.4742,3.6045,3.7922,3.8024,3.8903,4.0096,4.0096,4.0096,4.0096,4.0096,4.0096,3.9876,3.9123,3.8988,3.8751,3.8024,3.7804,3.7499,3.688,3.6694,3.6349,3.5667,3.56,3.56,3.56,3.5908,3.5883,3.5344,3.3516,3.2656,3.3078,3.2596,3.2242,3.2141,3.2848,3.3592,3.432,3.3711,3.3085,3.2479,3.2479,3.209,3.136,3.136,3.1309,3.119,3.119,3.119,3.119,3.119,3.119,3.119,3.119,3.119,3.119,3.119,3.1123,3.1055,3.1157,3.1123,3.092,3.0311,3.0023,2.9651,2.8213,2.7722,2.7486,2.686,2.6691,2.6691,2.6691,2.6641,2.6487,2.6103,2.5941,2.576,2.5297,2.5623,2.6019,2.6019,2.7035,2.8079,2.8589,2.8858,2.9179,2.9685,0.0,2.961,2.9059,2.9943,3.0154,2.8984,2.9996,3.0535,3.001,3.0746,3.1241,3.136,3.136,3.136,3.136,3.1258,3.119,3.119,3.1133,3.1172,3.1291,3.1232,3.1287,3.1406,3.1958,3.2295,3.2482,3.3651,3.4307,3.459,3.5915,3.7009,3.7973,3.8582,3.9368,4.0096,4.0096,4.0096,4.0096,4.0096,4.0096,3.9994,3.9656,3.9605,3.9486,3.9123,3.8751,3.8227,3.7483,3.7066,3.6485,3.5684,3.56,3.56,3.56,3.5827,3.5942,3.5893,3.5015,3.4447,3.4291,3.3772,3.3309,3.2899,3.3237,3.3372,3.3326,3.2987,3.2425,3.1718,3.1718,3.1532,3.119,3.119,3.119,3.119,3.119,3.119,3.119,3.119,3.119,3.119,3.119,3.119,3.119,3.119,3.119,3.119,3.119,3.119,3.114,3.0801,3.0429,2.9954,2.9244,2.8162,2.7131,2.6793,2.6691,2.6691,2.6691,2.6691,2.6641,2.6419,2.6367,2.6314,2.607,2.6391,2.6743,2.6743,2.7856,2.8774,2.8725,2.9551,0.0,0.0,3.0446,3.0412,2.9685,3.0192,3.0345,2.9651,3.0209,3.0632,3.0683,3.1004,3.119,3.119,3.119,3.119,3.119,3.119,3.119,3.119,3.119,3.119,3.119,3.119,3.119,3.1224,3.1972,3.253,3.2949,3.4015,3.4962,3.5797,3.6508,3.7472,3.8531,3.887,3.9445,4.0096,4.0096,4.0096,4.0096,4.0096,4.0096,4.0096,4.0096,4.0096,4.0096,4.0096,3.9462,3.8734,3.8007,3.7246,3.6485,3.5684,3.56,3.56,3.56,3.5717,3.592,3.6203,3.6312,3.6069,3.5327,3.4793,3.432,3.3909,3.3744,3.3288,3.2564,3.2378,3.1921,3.119,3.119,3.119,3.119,3.119,3.119,3.119,3.119,3.119,3.119,3.119,3.119,3.119,3.119,3.119,3.119,3.119,3.119,3.119,3.119,3.119,3.119,3.119,3.0818,3.0328,3.014,2.8619,2.6911,2.6742,2.6691,2.6691,2.6691,2.6691,2.6691,2.6691,2.6691,2.6742,2.6911,2.7255,2.7585,2.7767,2.8865,2.9616,2.9217,0.0,0.0,0.0,3.0801,3.0666,2.9939,3.0006,3.0021,2.9871,3.0159,3.0598,3.1157,3.119,3.119,3.119,3.119,3.119,3.119,3.119,3.119,3.119,3.136,3.136,3.119,3.136,3.1464,3.1481,3.2226,3.2949,3.3694,3.4438,3.552,3.6812,3.6998,3.7804,3.9005,3.9174,3.9605,4.0096,4.0096,4.0096,4.0096,4.0096,4.0096,4.0096,4.0096,4.0096,4.0096,4.0096,3.9462,3.8734,3.8007,3.7246,3.6485,3.5684,3.56,3.56,3.56,3.6054,3.6139,3.5694,3.6118,3.6069,3.5327,3.4793,3.4793,3.5414,3.4776,3.4066,3.3322,3.2632,3.1921,3.119,3.119,3.119,3.119,3.119,3.119,3.119,3.119,3.119,3.119,3.119,3.119,3.119,3.119,3.119,3.119,3.119,3.119,3.119,3.119,3.119,3.119,3.119,3.1157,3.097,3.0311,2.8973,2.757,2.6894,2.6691,2.6691,2.6691,2.6691,2.6691,2.6691,2.6691,2.6894,2.757,2.833,2.9073,2.9747,3.0524,3.1269,3.1894,0.0,0.0,3.2056,3.1004,2.9905,2.9179,2.9685,2.9837,2.9145,3.033,3.114,3.119,3.119,3.119,3.119,3.119,3.119,3.119,3.119,3.119,3.119,3.1887,3.1887,3.1207,3.1904,3.2226,3.2242,3.2983,3.3728,3.4455,3.5194,3.6011,3.6846,3.7533,3.8294,3.9056,3.9757,4.0045,4.0096,4.0096,4.0096,4.0096,4.0096,4.0096,4.0096,4.0096,4.0096,4.0096,4.0096,3.9859,3.9436,3.8667,3.8328,3.7872,3.7127,3.662,3.6332,3.6332,3.6077,3.5827,3.5622,3.5805,3.5761,3.5493,3.5292,3.5295,3.5583,3.5329,3.4607,3.3406,3.3119,3.2374,3.119,3.119,3.119,3.119,3.119,3.119,3.119,3.119,3.119,3.119,3.119,3.119,3.119,3.119,3.119,3.119,3.119,3.119,3.119,3.119,3.119,3.119,3.119,3.119,3.1055,3.0328,2.9683,2.9076,2.8333,2.7757,2.7367,2.7367,2.7757,2.8011,2.7503,2.7774,2.8214,2.8484,2.9144,2.977,3.0057,3.07,3.1275,3.1582,0.0,3.114,3.0954,3.0446,2.9837,2.9094,2.9264,2.9482,2.9651,3.0192,3.0717,3.1157,3.119,3.119,3.119,3.1613,3.2087,3.256,3.2124,3.1887,3.1887,3.2158,3.2559,3.3066,3.3016,3.3152,3.3493,3.3896,3.4235,3.4539,3.5278,3.6332,3.7499,3.7787,3.8599,3.9723,3.9994,4.0096,4.0096,4.0096,4.0096,4.0096,4.0096,4.0096,4.0096,4.0096,4.0096,4.0096,4.0096,3.991,3.9571,3.9056,3.8802,3.8464,3.7973,3.7449,3.7066,3.6829,3.6424,3.6021,3.5639,3.56,3.56,3.56,3.56,3.56,3.56,3.5363,3.4776,3.3744,3.3508,3.2763,3.1565,3.1565,3.141,3.119,3.119,3.119,3.119,3.119,3.119,3.119,3.119,3.119,3.119,3.119,3.119,3.119,3.119,3.119,3.119,3.119,3.119,3.119,3.119,3.119,3.1106,3.0598,3.0294,3.004,2.9771,2.9127,2.8466,2.8229,2.8586,2.8857,2.8298,2.8602,2.9077,2.9314,2.9753,3.0176,3.0412,3.0852,3.119,3.119,3.119,3.0937,3.019,2.9905,2.9567,2.9061,2.8993,2.9297,3.004,3.041,3.0827,3.1338,3.1524,3.1646,3.175,3.2323,3.2882,3.3389,3.3119,3.2987,3.2987,3.2675,3.309,3.4202,3.395,3.4153,3.4763,3.4913,3.5108,3.5383,3.5958,3.704,3.8397,3.8292,3.9076,4.0319,4.0171,4.0096,4.0096,4.0096,4.0096,4.0096,4.0096,4.0096,4.0096,4.0096,4.0096,4.0096,4.0096,3.9486,3.9005,3.9005,3.8379,3.7922,3.7922,3.7922,3.7618,3.688,3.7247,3.6973,3.5695,3.56,3.56,3.5616,3.56,3.56,3.56,3.4878,3.4506,3.4489,3.3778,3.3034,3.231,3.231,3.1921,3.1207,3.1207,3.1207,3.119,3.119,3.119,3.119,3.119,3.119,3.119,3.119,3.119,3.119,3.119,3.119,3.119,3.119,3.119,3.119,3.119,3.119,3.1207,3.1207,3.0683,3.0277,3.1004,3.0666,2.9939,2.9196,2.901,2.9027,2.901,2.901,2.923,2.9973,3.0106,3.0345,3.1072,3.119,3.1207,3.119,3.119,3.0937,3.019,2.9465,2.901,2.8993,2.901,2.9314,3.004,3.1136,3.1807,3.1807,3.2248,3.2651,3.2987,3.327,3.3423,3.3423,3.4117,3.4489,3.4506,3.3527,3.342,3.4239,3.4621,3.5243,3.6006,3.6006,3.6448,3.7207,3.7404,3.8255,3.9481,3.914,3.9751,4.0833,4.0311,4.0096,4.0113,4.0113,4.0113,4.0113,4.0096,4.0096,4.0096,4.0096,4.0096,4.0096,4.0096,3.991,3.9774,3.9774,3.9588,3.9453,3.9453,3.8971,3.8582,3.8345,3.8334,3.8174,3.7814,3.6411,3.6073,3.7155,3.6174,3.56,3.56,3.538,3.503,3.4489,3.4269,3.3778,3.3068,3.3068,3.2679,3.1972,3.1972,3.1684,3.119,3.119,3.119,3.119,3.119,3.119,3.119,3.119,3.119,3.119,3.119,3.119,3.119,3.119,3.119,3.119,3.119,3.1565,3.1972,3.1972,3.1444,3.1021,3.1769,3.1427,3.0683,2.9956,3.0159,3.0395,2.9888,3.0159,3.0618,3.0818,3.1275,3.1565,3.1241,3.1633,3.1802,3.1275,3.119,3.0937,3.019,2.9922,2.9583,2.9061,2.9448,2.9871,3.0072,3.1136,3.1807,3.1807,3.2455,3.3116,3.3744,3.4038,3.4404,3.4923,3.4658,3.4742,3.5261,3.4837,3.5176,3.6312,3.6426,3.6791,3.7308,3.7004,3.7052,3.7404,3.7463,3.8134,3.9123,3.904,3.9517,4.0336,4.0171,4.0336,4.0659,4.0677,4.0646,4.0646,4.0096,4.0096,4.0096,4.0096,4.0096,4.0096,4.0096,4.0096,4.0096,4.0096,4.0096,4.0096,4.0096,3.9706,3.9334,3.9022,3.8623,3.8575,3.8978,3.7442,3.6918,3.7872,3.6738,3.6079,3.6079,3.5752,3.538,3.4945,3.4945,3.4556,3.3846,3.3846,3.344,3.2713,3.2429,3.2056,3.1633,3.1309,3.119,3.119,3.119,3.119,3.119,3.119,3.119,3.119,3.119,3.119,3.119,3.119,3.1376,3.1701,3.1985,3.2374,3.273,3.273,3.2408,3.2171,3.2594,3.2209,3.1532,3.1072,3.1089,3.1072,3.0632,3.1283,3.1891,3.1673,3.2389,3.2844,3.2178,3.2425,3.2577,3.2138,3.1816,3.1376,3.0632,3.0294,2.9939,2.9482,2.9837,3.0285,3.0728,3.1565,3.2353,3.3024,3.3178,3.3698,3.4761,3.4603,3.4844,3.5583,3.5182,3.5165,3.56,3.5696,3.623,3.7192,3.7075,3.7433,3.8218,3.8008,3.7978,3.8086,3.8299,3.8851,3.9629,3.9496,3.9821,4.0392,4.0179,4.0438,4.0899,4.0889,4.1052,4.1256,4.0096,4.0096,4.0096,4.0096,4.0096,4.0096,4.0096,4.0096,4.0096,4.0096,4.0096,4.0096,4.0096,4.0096,3.9842,3.9157,3.843,3.8448,3.9544,3.8539,3.7973,3.8091,3.7313,3.6897,3.6897,3.6062,3.56,3.56,3.56,3.5267,3.459,3.459,3.4201,3.3474,3.2801,3.2462,3.2361,3.1596,3.1292,3.1275,3.1224,3.119,3.1207,3.1258,3.1258,3.1207,3.1258,3.1258,3.1207,3.1275,3.1802,3.253,3.3186,3.3457,3.3491,3.3423,3.3355,3.3305,3.3305,3.2747,3.2226,3.2276,3.1802,3.1312,3.137,3.2324,3.305,3.2559,3.3416,3.4074,3.349,3.3457,3.3491,3.3423,3.2831,3.2141,3.1393,3.0717,3.026,3.0125,3.0176,3.0583,3.1542,3.2196,3.3221,3.4852,3.4212,3.4358,3.5752,3.506,3.4912,3.5583,3.56,3.56,3.56,3.6075,3.6603,3.7116,3.6862,3.7413,3.8658,3.8847,3.8978,3.9102,3.9503,4.003,4.0524,4.024,4.0392,4.078,4.0345,4.0493,4.0991,4.1043,4.1406,4.1884,4.0096,4.0096,4.0096,4.0096,4.0096,4.0096,4.0096,4.0096,4.0096,4.0096,4.0096,4.0096,4.0096,4.0096,4.0045,3.9893,3.9174,3.9276,4.052,3.8892,3.8413,3.9571,3.8362,3.7669,3.7669,3.6293,3.56,3.56,3.56,3.5515,3.5346,3.5346,3.4979,3.4252,3.4083,3.3694,3.3119,3.2378,3.2056,3.2005,3.1427,3.119,3.1258,3.1853,3.1701,3.1275,3.1853,3.1701,3.1275,3.187,3.2544,3.3186,3.3355,3.3795,3.415,3.3575,3.2983,3.2547,3.2547,3.2005,3.1562,3.2158,3.2175,3.2176,3.259,3.3348,3.3923,3.3824,3.4127,3.4215,3.3529,3.388,3.4066,3.3491,3.3271,3.2899,3.2175,3.1921,3.1376,3.0243,3.0615,3.0823,3.0513,3.1939,3.3423,3.4673,3.4827,3.5007,3.532,3.5361,3.543,3.5583,3.56,3.56,3.56,3.5717,3.6032,3.658,3.6938,3.7556,3.8378,3.8424,3.8838,3.9556,3.9661,3.9881,4.0195,4.0128,4.0171,4.0296,4.0628,4.1091,4.1667,4.2135,4.2394,4.2517,4.0096,4.0096,4.0096,4.0096,4.0096,4.0096,4.0096,4.0096,4.0096,4.0096,4.0096,4.0096,4.0096,4.0096,4.0204,4.0449,3.9897,3.9927,4.0839,3.9675,3.9276,4.0079,3.9005,3.8261,3.7922,3.6772,3.5994,3.56,3.56,3.56,3.56,3.56,3.538,3.5013,3.4658,3.4286,3.388,3.3136,3.2632,3.2276,3.1887,3.1495,3.1241,3.1633,3.1549,3.1241,3.165,3.1913,3.2192,3.2662,3.3475,3.4326,3.4423,3.4472,3.4421,3.4032,3.3643,3.3359,3.3359,3.3068,3.2865,3.3258,3.355,3.3634,3.3331,3.401,3.4644,3.4401,3.4898,3.5203,3.4566,3.4776,3.4912,3.4501,3.415,3.3778,3.341,3.275,3.2141,3.1732,3.1698,3.1797,3.198,3.3092,3.437,3.5753,3.5438,3.5523,3.625,3.5859,3.56,3.56,3.5977,3.618,3.618,3.6785,3.7209,3.7494,3.7033,3.7345,3.83,3.8392,3.8903,3.9715,3.9838,3.9978,4.0096,4.0096,4.0239,4.0518,4.0798,4.1437,4.2278,4.2573,4.2873,4.3223,4.0096,4.0096,4.0096,4.0096,4.0096,4.0096,4.0096,4.0179,4.0254,4.0254,4.0254,4.0279,4.0385,4.0286,4.0368,4.0733,4.0343,4.0286,4.0733,4.0343,4.0096,4.0096,3.952,3.8836,3.8108,3.7483,3.6654,3.56,3.56,3.56,3.56,3.56,3.56,3.5566,3.4962,3.4692,3.4641,3.3897,3.3152,3.2479,3.2445,3.1933,3.1227,3.1424,3.137,3.1224,3.1478,3.2234,3.3199,3.3488,3.4301,3.5208,3.5501,3.5182,3.4658,3.4523,3.4489,3.4455,3.4336,3.4303,3.4336,3.4455,3.4839,3.4909,3.3986,3.4662,3.5362,3.4917,3.5604,3.6118,3.5672,3.56,3.56,3.56,3.5098,3.4641,3.4506,3.3461,3.2869,3.3339,3.2848,3.2982,3.422,3.4667,3.5528,3.7106,3.6266,3.6155,3.7318,3.6496,3.5938,3.5802,3.6569,3.6998,3.6998,3.8131,3.8699,3.8699,3.7513,3.751,3.8566,3.872,3.9162,3.9784,4.0007,4.0096,4.0113,4.0206,4.0501,4.0925,4.1129,4.1809,4.2712,4.2805,4.3123,4.3734,4.0096,4.0096,4.0096,4.0096,4.0096,4.0096,4.0096,4.048,4.0803,4.0803,4.0803,4.099,4.1512,4.1087,4.0631,4.0254,4.0146,4.0121,4.0204,4.0146,4.0096,4.0096,4.0011,3.9622,3.887,3.8751,3.7686,3.56,3.56,3.56,3.56,3.56,3.56,3.56,3.5498,3.5447,3.5397,3.4658,3.3931,3.3228,3.3009,3.2211,3.1317,3.2359,3.2107,3.136,3.2645,3.3211,3.346,3.4143,3.4469,3.4716,3.5385,3.5532,3.5329,3.4692,3.4489,3.4353,3.3728,3.3558,3.3694,3.4336,3.4554,3.4733,3.5199,3.5788,3.6219,3.6174,3.5899,3.5689,3.5622,3.56,3.56,3.56,3.5515,3.5233,3.459,3.432,3.3998,3.3457,3.3322,3.3816,3.527,3.5455,3.6128,3.7676,3.7623,3.7363,3.6927,3.7343,3.7297,3.666,3.7364,3.7753,3.7753,3.8367,3.8699,3.8699,3.9015,3.9314,3.9594,3.9631,3.9789,4.0043,4.007,4.0096,4.013,4.0612,4.0832,4.1001,4.203,4.255,4.2748,4.322,4.345,4.3734,4.0096,4.0096,4.0096,4.0096,4.0096,4.0204,4.0497,4.0733,4.1018,4.1358,4.1402,4.138,4.1296,4.0797,4.0343,4.0121,4.0096,4.0096,4.0096,4.0096,4.0096,4.0096,4.0096,3.9757,3.9005,3.8599,3.7686,3.6265,3.6265,3.6045,3.56,3.5898,3.6049,3.6054,3.6357,3.6501,3.6467,3.6157,3.5285,3.4175,3.4051,3.3175,3.2001,3.2727,3.2662,3.2295,3.3104,3.3853,3.4473,3.4478,3.4976,3.5561,3.5593,3.5312,3.4928,3.459,3.4489,3.4421,3.41,3.4641,3.5267,3.5148,3.5453,3.5881,3.6197,3.6452,3.6613,3.6613,3.6429,3.6265,3.6265,3.591,3.56,3.56,3.56,3.5481,3.5165,3.5115,3.4974,3.467,3.503,3.5537,3.6214,3.6654,3.7347,3.843,3.8142,3.7939,3.8007,3.8224,3.8042,3.7438,3.8762,3.9304,3.8957,4.0256,4.0928,4.0928,4.1498,4.1271,4.0301,4.0289,4.0589,4.1043,4.1057,4.0849,4.0552,4.0815,4.0919,4.0946,4.1493,4.2113,4.2765,4.3287,4.3515,4.3679]}]]